MPMG - Transparência

Contra-cheque - Remuneração de todos os servidores ativos - Pós Resolução CNMP 200/2019

Período: 2021 - Junho

Ordem Matrícula Nome Cargo Efetivo Lotação Rendimentos Descontos Rendimento Líquido Total *14 Data de Referência
Remuneração básica Remuneração eventual ou Temporária Outras Remunerações Temporárias *7 Verbas Indenizatórias *8 Total de Rendimentos Brutos *9 Obrigatórios Legais Outros Descontos Eventuais Total de descontos *13
Remuneração do Cargo Efetivo *1 Outras Verbas Remuneratórias *2 Função de Confiança ou Cargo em Comissão *3 Gratificação Natalina *4 Férias 1/3 Constitucional *5 Abono de Permanência *6 Contribuição Previdenciária *10 Imposto de Renda *11 Retenção por Teto Constitucional *12
1 498900 ABDON MARCIO BARBOSA DA SILVA OFICIAL DO MP ABRE CAMPO - COMARCA; ABRE CAMPO-PJ-01PJ 6.123,79 612,38 0,00 3.368,09 0,00 0,00 0,00 1.717,00 11.821,26 890,06 634,05 0,00 0,00 1.524,11 10.297,15 30/06/2021
2 177800 ADALBERTO MENEZES FARIA SAMORA OFICIAL DO MP BELO HORIZONTE - COMARCA; DIR ESTRUTURA E PROCESSOS ORGANIZACIONAIS 15.272,02 6.108,81 0,00 10.690,42 0,00 0,00 0,00 1.717,00 33.788,25 3.233,21 4.016,96 0,00 0,00 7.250,17 26.538,08 30/06/2021
3 306400 ADALBERTO MOREIRA GONCALVES ANALISTA DO MP BELO HORIZONTE - COMARCA; BH-24PJ JUIZO REG BARREIRO-SECRETARIA 16.750,82 5.025,25 0,00 10.888,04 0,00 0,00 0,00 1.717,00 34.381,11 3.296,45 4.212,54 0,00 0,00 7.508,99 26.872,12 30/06/2021
4 179300 ADENISE AUXILIADORA SOUZA SAD OFICIAL DO MP BARBACENA - COMARCA; BARBACENA-PJ-06PJ 14.790,66 5.916,26 0,00 6.860,12 0,00 0,00 0,00 1.717,00 29.284,04 3.125,38 3.861,29 0,00 0,00 6.986,67 22.297,37 30/06/2021
5 272200 ADILSON BATISTA ORNELAS OFICIAL DO MP LAVRAS - COMARCA; LAVRAS-PJ-SECRETARIA 5.136,32 1.540,90 0,00 3.338,61 0,00 0,00 0,00 1.717,00 11.732,83 880,63 672,57 0,00 0,00 1.553,20 10.179,63 30/06/2021
6 380100 ADILSON GONCALVES DE MELO JUNIOR ANALISTA DO MP ARAXÁ - COMARCA; ARAXA-PJ-05PJ 10.736,08 2.147,22 0,00 6.441,65 0,00 0,00 0,00 2.486,39 21.811,34 1.873,61 2.054,03 0,00 0,00 3.927,64 17.883,70 30/06/2021
7 148800 ADILSON JANUARIO OFICIAL DO MP BELO HORIZONTE - COMARCA; BH-22PJ PES COM DEF E IDOSOS-SECRETARIA 18.820,14 13.174,10 0,00 15.997,12 0,00 0,00 469,25 6.836,08 55.296,69 4.931,36 6.520,79 0,00 0,00 11.452,15 43.844,54 30/06/2021
8 322601 ADMILSON SILVEIRA ANALISTA DO MP SAO JOAO DO PARAISO COMARCA; SAO JOAO DO PARAISO-PJ-UNPJ 9.146,93 914,69 0,00 5.030,81 0,00 0,00 0,00 1.717,00 16.809,43 1.422,14 1.506,50 0,00 0,00 2.928,64 13.880,79 30/06/2021
9 333700 ADRIANA ABRITTA TEIXEIRA OFICIAL DO MP BELO HORIZONTE - COMARCA; DIRET DE PESSOAL DO MINISTERIO PUBLICO - DPMP 10.069,62 3.020,89 0,00 6.545,26 0,00 0,00 0,00 1.717,00 21.352,77 1.906,76 2.206,17 0,00 0,00 4.112,93 17.239,84 30/06/2021
10 468500 ADRIANA APARECIDA FIRMINO ANALISTA DO MP CARATINGA - COMARCA; CARATINGA-PJ-04PJ 10.069,62 2.013,92 0,00 6.041,77 0,00 0,00 0,00 2.486,39 20.611,70 1.745,64 1.921,43 0,00 0,00 3.667,07 16.944,63 30/06/2021
11 326100 ADRIANA AUGUSTA AMARAL BELO OFICIAL DO MP BARBACENA - COMARCA; BARBACENA-PJ-08PJ 10.069,62 3.020,89 0,00 6.545,26 0,00 0,00 0,00 1.717,00 21.352,77 1.906,76 2.101,90 0,00 0,00 4.008,66 17.344,11 30/06/2021
12 605700 ADRIANA COSTA LIRA ASSESSOR/OFICIAL BELO HORIZONTE - COMARCA; COORD ESTADUAL DE DEFESA DA EDUCACAO 0,00 817,05 8.170,49 4.493,77 0,00 0,00 0,00 1.717,00 15.198,31 856,09 1.366,79 0,00 0,00 2.222,88 12.975,43 30/06/2021
13 541100 ADRIANA CRISTINA DE OLIVEIRA OFICIAL DO MP GUAPÉ - COMARCA; GUAPE-PJ-UNPJ 5.387,19 538,72 0,00 0,00 0,00 0,00 0,00 2.486,39 8.412,30 762,96 498,31 0,00 0,00 1.261,27 7.151,03 30/06/2021
14 254800 ADRIANA DAS GRACAS FERNANDES ANALISTA DO MP UBERABA - COMARCA; UBERABA-PJ-07PJ 18.103,37 12.672,36 0,00 15.387,87 0,00 0,00 451,38 6.641,12 53.256,10 4.736,39 6.239,32 0,00 0,00 10.975,71 42.280,39 30/06/2021
15 217400 ADRIANA DE CARVALHO CATAO BRAGA ASSESSOR BELO HORIZONTE - COMARCA; DIV FISCAL ADM CONT TERCEIRIZACAO 0,00 3.268,20 8.170,49 5.719,35 0,00 0,00 0,00 1.717,00 18.875,04 751,99 2.398,93 0,00 0,00 3.150,92 15.724,12 30/06/2021
16 434600 ADRIANA FERREIRA DA SILVA ANALISTA DO MP BELO HORIZONTE - COMARCA; BH-14PJ DEFESA CONSUMIDOR-GAB 112PJ 12.601,30 2.520,26 0,00 7.560,78 0,00 0,00 0,00 1.717,00 24.399,34 2.231,73 2.675,34 0,00 0,00 4.907,07 19.492,27 30/06/2021
17 499800 ADRIANA FERREIRA TIAGO OFICIAL DO MP SALINAS - COMARCA; SALINAS-PJ-02PJ 7.421,79 742,18 0,00 4.081,99 0,00 0,00 0,00 1.717,00 13.962,96 1.118,51 1.068,14 0,00 0,00 2.186,65 11.776,31 30/06/2021
18 543400 ADRIANA GUIMARAES NUNES DE PAULA ANALISTA DO MP PATROCÍNIO - COMARCA; PATROCINIO-PJ-01PJ 9.146,93 914,69 0,00 5.030,81 0,00 0,00 0,00 1.717,00 16.809,43 1.422,14 1.506,50 0,00 0,00 2.928,64 13.880,79 30/06/2021
19 471500 ADRIANA HORTA DE CARVALHO RODRIGUES DE SOUSA ANALISTA DO MP BELO HORIZONTE - COMARCA; GRUPO ESP PROM JUST DEF PROB ADM PAT PUB 10.069,62 2.013,92 0,00 0,00 0,00 0,00 0,00 1.717,00 13.800,54 1.745,64 1.921,43 0,00 0,00 3.667,07 10.133,47 30/06/2021
20 86400 ADRIANA MOREIRA CALDEIRA BRANT OFICIAL DO MP BELO HORIZONTE - COMARCA; BH-21PJ TUTELA FUNDACOES-SECRETARIA 15.272,02 10.690,41 0,00 12.981,22 0,00 3.966,27 0,00 1.717,00 44.626,92 3.966,27 6.270,31 0,00 0,00 10.236,58 34.390,34 30/06/2021
21 480700 ADRIANA MOREIRA DE AVELLAR CEZILIO OFICIAL DO MP BELO HORIZONTE - COMARCA; BH-18PJ VIOLENCIA DOMESTICA-SECRETARIA 6.123,79 1.224,76 0,00 2.792,50 0,00 0,00 0,00 1.717,00 11.858,05 988,05 775,50 0,00 0,00 1.763,55 10.094,50 30/06/2021
22 326000 ADRIANA PEREIRA CARNEIRO RESENDE OFICIAL DO MP BELO HORIZONTE - COMARCA; BH-25PJ DEFESA DA EDUCACAO-SECRETARIA 9.752,14 2.925,64 0,00 6.338,89 0,00 0,00 0,00 1.717,00 20.733,67 1.840,72 2.110,83 0,00 0,00 3.951,55 16.782,12 30/06/2021
23 502200 ADRIANA PETRUCCI DAVINA OFICIAL DO MP PATROCÍNIO - COMARCA; PATROCINIO-PJ-01PJ 7.663,37 766,34 0,00 4.214,86 0,00 0,00 0,00 2.486,39 15.130,96 1.161,03 1.129,53 0,00 0,00 2.290,56 12.840,40 30/06/2021
24 201900 ADRIANA REIS PIMENTA OFICIAL DO MP TEÓFILO OTONI - COMARCA; TEOFILO OTONI-PJ-03PJ 14.790,66 5.916,26 0,00 10.353,46 0,00 0,00 0,00 1.717,00 32.777,38 3.125,38 3.965,56 0,00 0,00 7.090,94 25.686,44 30/06/2021
25 278700 ADRIANA RODRIGUES PINTO COELHO AMARAL ANALISTA DO MP BELO HORIZONTE - COMARCA; ASSESS TECNICA DA CORREGEDORIA-GERAL DO MP 17.413,92 5.224,18 0,00 11.319,05 0,00 0,00 0,00 1.717,00 35.674,15 3.434,37 4.359,53 0,00 0,00 7.793,90 27.880,25 30/06/2021
26 468000 ADRIANA SANTOS DE SANTANA MOREIRA ANALISTA DO MP ARAÇUAÍ - COMARCA; ARACUAI-PJ-02PJ 10.069,62 4.027,85 0,00 7.048,74 0,00 0,00 0,00 1.717,00 22.863,21 2.067,87 2.334,51 0,00 0,00 4.402,38 18.460,83 30/06/2021
27 194700 ADRIANA TSUKIDE OFICIAL DO MP UBERABA - COMARCA; COORD REG BACIAS PARANAIBA BAIXO RIO GRANDE 14.790,66 5.916,26 0,00 0,00 0,00 0,00 0,00 1.717,00 22.423,92 3.125,38 3.913,43 0,00 0,00 7.038,81 15.385,11 30/06/2021
28 465500 ADRIANO CASSIANO MATOS ANALISTA DO MP ARAXÁ - COMARCA; ARAXA-PJ-02PJ 10.069,62 2.013,92 0,00 6.041,77 0,00 0,00 0,00 1.717,00 19.842,31 1.745,64 1.973,56 0,00 0,00 3.719,20 16.123,11 30/06/2021
29 500500 ADRIANO DE ALMEIDA SILVA OFICIAL DO MP UBERABA - COMARCA; UBERABA-PJ-12PJ 7.663,37 766,34 0,00 0,00 0,00 0,00 0,00 2.486,39 10.916,10 1.161,03 675,78 0,00 0,00 1.836,81 9.079,29 30/06/2021
30 187200 ADRIANO DE FREITAS MARON OFICIAL DO MP PONTE NOVA - COMARCA; PONTE NOVA-PJ-03PJ 12.601,30 11.341,17 0,00 11.971,24 0,00 3.643,07 0,00 1.717,00 41.273,78 3.643,07 5.714,82 0,00 0,00 9.357,89 31.915,89 30/06/2021
31 477900 ADRIANO FERREIRA DE ALMEIDA OFICIAL DO MP TAIOBEIRAS - COMARCA; TAIOBEIRAS-PJ-UNPJ 7.663,37 1.532,67 0,00 4.598,02 0,00 0,00 0,00 2.824,54 16.618,60 1.283,64 1.202,28 0,00 0,00 2.485,92 14.132,68 30/06/2021
32 269101 ADRIANO PEREIRA SILVA ANALISTA DO MP UBERABA - COMARCA; UBERABA-PJ-02PJ 10.069,62 2.013,92 0,00 6.041,77 0,00 0,00 0,00 2.486,39 20.611,70 1.745,64 1.817,15 0,00 0,00 3.562,79 17.048,91 30/06/2021
33 414200 ADRIANO RODRIGUES FERNANDES ANALISTA DO MP CARANDAÍ - COMARCA; CARANDAI-PJ-UNPJ 10.069,62 2.013,92 0,00 6.041,77 0,00 0,00 0,00 1.717,00 19.842,31 1.745,64 1.869,29 0,00 0,00 3.614,93 16.227,38 30/06/2021
34 536700 ADRIELLE COSTA MARIA MOURAO FIGUEIREDO OFICIAL DO MP SERRO - COMARCA; SERRO-PJ-SECRETARIA 5.387,19 538,72 0,00 2.306,25 0,00 0,00 0,00 2.486,39 10.718,55 762,96 550,45 0,00 0,00 1.313,41 9.405,14 30/06/2021
35 514300 ADRIENE DAMASCENO BRAGA ANALISTA DO MP ALFENAS - COMARCA; ALFENAS-PJ-03PJ 10.069,62 1.006,96 0,00 5.538,29 0,00 0,00 0,00 2.486,39 19.101,26 1.584,53 1.740,95 0,00 0,00 3.325,48 15.775,78 30/06/2021
36 254600 ADRIENE DOMINGUES COSTA ANALISTA DO MP BELO HORIZONTE - COMARCA; SUPERINTENDENCIA DE RECURSOS HUMANOS 16.750,82 5.025,25 0,00 10.888,04 0,00 0,00 0,00 0,00 32.664,11 3.296,45 4.212,54 0,00 0,00 7.508,99 25.155,12 30/06/2021
37 252001 ADRIENE GOMES BARRETO ANALISTA DO MP BELO HORIZONTE - COMARCA; BH-19PJ SAUDE-SECRETARIA 047PJ 14.324,23 5.729,69 0,00 10.026,96 0,00 0,00 0,00 1.717,00 31.797,88 3.020,90 3.814,72 0,00 0,00 6.835,62 24.962,26 30/06/2021
38 645000 AFONSO CELSO GUIMARAES JUNIOR OFICIAL DO MP PIRAPORA - COMARCA; PIRAPORA-PJ-01PJ 4.376,03 437,60 0,00 2.406,82 0,00 0,00 0,00 1.717,00 8.937,45 595,50 312,95 0,00 0,00 908,45 8.029,00 30/06/2021
39 302500 AGENOR JOSE DA SILVA JUNIOR ANALISTA DO MP JUIZ DE FORA - COMARCA; JUIZ DE FORA-PJ-14PJ 16.750,82 5.025,25 0,00 10.888,04 0,00 0,00 0,00 1.717,00 34.381,11 3.296,45 4.108,26 0,00 0,00 7.404,71 26.976,40 30/06/2021
40 357500 AILSON WAGNER DE ALENCAR SILVA OFICIAL DO MP BELO HORIZONTE - COMARCA; BH-12PJ JUIZO CRIMINAL-SECRETARIA 10.069,62 4.027,85 0,00 7.048,74 0,00 0,00 0,00 1.717,00 22.863,21 2.067,87 2.282,37 0,00 0,00 4.350,24 18.512,97 30/06/2021
41 366400 AILTON ALEXSSANDRO ALVES OFICIAL DO MP PARÁ DE MINAS - COMARCA; PARA DE MINAS-PJ-05PJ 9.444,70 3.777,88 0,00 0,00 0,00 0,00 0,00 1.717,00 14.939,58 1.927,89 2.236,68 0,00 0,00 4.164,57 10.775,01 30/06/2021
42 318900 AILTON DE CASTRO RIBEIRO JUNIOR OFICIAL DO MP ITAJUBA - COMARCA; ITAJUBA-PJ-01PJ 10.069,62 3.020,89 0,00 4.593,07 0,00 0,00 0,00 2.486,39 20.169,97 1.906,76 1.997,62 0,00 0,00 3.904,38 16.265,59 30/06/2021
43 464400 ALAN MONTEIRO GASPAR ANALISTA DO MP SETE LAGOAS - COMARCA; SETE LAGOAS-PJ-08PJ 10.069,62 2.013,92 0,00 4.182,17 0,00 0,00 0,00 1.717,00 17.982,71 1.745,64 1.973,56 0,00 0,00 3.719,20 14.263,51 30/06/2021
44 492000 ALANA DE CASTRO FREITAS OFICIAL DO MP ITUMIRIM - COMARCA; ITUMIRIM-PJ-SECRETARIA 6.123,79 612,38 0,00 0,00 0,00 0,00 0,00 1.717,00 8.453,17 890,06 738,32 0,00 0,00 1.628,38 6.824,79 30/06/2021
45 306700 ALANA MARCIA DE OLIVEIRA OFICIAL DO MP BELO HORIZONTE - COMARCA; DIRETORIA DE ADMINISTRACAO FINANCEIRA 9.752,14 2.925,64 0,00 6.338,89 0,00 0,00 0,00 1.717,00 20.733,67 1.840,72 2.110,83 0,00 0,00 3.951,55 16.782,12 30/06/2021
46 324500 ALANMAR COUTINHO COSTA OFICIAL DO MP LEOPOLDINA - COMARCA; LEOPOLDINA-PJ-02PJ 9.444,70 2.833,41 0,00 6.139,06 0,00 0,00 0,00 1.717,00 20.134,17 1.776,77 1.914,23 0,00 0,00 3.691,00 16.443,17 30/06/2021
47 407300 ALBERTO LUIZ SOARES DE OLIVEIRA ANALISTA DO MP BELO HORIZONTE - COMARCA; DIRETORIA DE PROJETOS DE EDIFICACOES 12.601,30 2.520,26 0,00 7.560,78 0,00 0,00 0,00 1.717,00 24.399,34 2.231,73 2.675,34 0,00 0,00 4.907,07 19.492,27 30/06/2021
48 118200 ALBERTO PEREIRA DA COSTA OFICIAL DO MP DORES DO INDAIÁ - COMARCA; DORES DO INDAIA-PJ-UNPJ 16.750,82 15.075,74 0,00 15.913,28 0,00 4.904,53 0,00 1.717,00 54.361,37 4.904,53 7.830,81 0,00 0,00 12.735,34 41.626,03 30/06/2021
49 282400 ALCILENE MARISE DE ARAUJO ANALISTA DO MP BELO HORIZONTE - COMARCA; BH-23PJ INF-FISC MED SOC FEC 17.413,92 5.224,18 0,00 11.319,05 0,00 0,00 498,04 7.150,14 41.605,33 3.434,37 4.307,39 0,00 0,00 7.741,76 33.863,57 30/06/2021
50 112600 ALCIONE DA MOTA JARDIM OFICIAL DO MP BELO HORIZONTE - COMARCA; CAO-CRIANCAS E ADOLESCENTES-SECRETARIA 13.872,60 9.710,82 0,00 11.791,71 0,00 0,00 0,00 1.717,00 37.092,13 3.585,62 4.577,90 0,00 0,00 8.163,52 28.928,61 30/06/2021
51 396400 ALCIONE DE FREITAS E SILVA ANALISTA DO MP BELO HORIZONTE - COMARCA; ASSESS JUR DO CONS SUPERIOR DO MINISTERIO PUB 14.324,23 5.729,69 0,00 6.609,15 0,00 0,00 0,00 1.717,00 28.380,07 3.020,90 3.814,72 0,00 0,00 6.835,62 21.544,45 30/06/2021
52 657400 ALCIONE MARIA FERREIRA ASSESSOR PROCURADOR JUSTICA BELO HORIZONTE - COMARCA; GABINETE DE PROCURADOR DE JUSTIÇA - SALA 610 0,00 0,00 7.187,72 3.593,86 0,00 0,00 0,00 1.717,00 12.498,58 751,99 1.229,92 0,00 0,00 1.981,91 10.516,67 30/06/2021
53 161600 ALCIONE NERY SOUZA ASSESSOR BELO HORIZONTE - COMARCA; BH-18PJ DIREITOS HUMANOS-SECRETARIA 0,00 4.085,25 8.170,49 6.127,87 0,00 0,00 0,00 1.717,00 20.100,61 751,99 2.623,62 0,00 0,00 3.375,61 16.725,00 30/06/2021
54 376000 ALDA GOMES LANA OFICIAL DO MP BELO HORIZONTE - COMARCA; BH-18PJ VIOLENCIA DOMESTICA-SECRETARIA 8.858,43 1.771,69 0,00 5.315,06 0,00 0,00 0,00 1.717,00 17.662,18 1.513,10 1.585,68 0,00 0,00 3.098,78 14.563,40 30/06/2021
55 148000 ALDA MARTINS SIMOES OFICIAL DO MP BELO HORIZONTE - COMARCA; BH-23PJ CIVEL- FISC ENT AB POL 17.413,92 8.706,96 0,00 13.060,44 0,00 0,00 0,00 1.717,00 40.898,32 3.991,62 5.216,19 0,00 0,00 9.207,81 31.690,51 30/06/2021
56 318400 ALDO CREPALDI JUNIOR OFICIAL DO MP BELO HORIZONTE - COMARCA; DIVISAO DE MATERIAIS 9.752,14 2.925,64 0,00 4.389,18 0,00 0,00 0,00 1.717,00 18.783,96 1.840,72 2.058,69 0,00 0,00 3.899,41 14.884,55 30/06/2021
57 604500 ALENIZE APARECIDA RODRIGUES HENRIQUE OFICIAL DO MP RIO NOVO - COMARCA; RIO NOVO-PJ-UNPJ 5.387,19 538,72 0,00 2.306,25 0,00 0,00 0,00 1.717,00 9.949,16 762,96 550,45 0,00 0,00 1.313,41 8.635,75 30/06/2021
58 197900 ALESSA DE SOUSA E SILVA OFICIAL DO MP OLIVEIRA - COMARCA; OLIVEIRA-PJ-02PJ 15.272,02 6.108,81 0,00 10.690,42 0,00 0,00 0,00 1.891,00 33.962,25 3.233,21 4.016,96 0,00 0,00 7.250,17 26.712,08 30/06/2021
59 428500 ALESSANDRA ALVES DINIZ OFICIAL DO MP BELO HORIZONTE - COMARCA; CENTRAL DE APOIO TECNICO-SECRETARIA 6.123,79 3.061,90 0,00 0,00 0,00 0,00 0,00 1.717,00 10.902,69 1.281,99 1.304,16 0,00 0,00 2.586,15 8.316,54 30/06/2021
60 286801 ALESSANDRA BOTELHO JUNQUEIRA DE MENEZES ANALISTA DO MP PASSOS - COMARCA; PASSOS-PJ-05PJ 13.011,52 5.204,61 0,00 9.108,07 0,00 0,00 0,00 2.486,39 29.810,59 2.726,86 3.181,64 0,00 0,00 5.908,50 23.902,09 30/06/2021
61 307000 ALESSANDRA CRISTINA SANTOS MENDES ANALISTA DO MP BELO HORIZONTE - COMARCA; BH-18PJ VIOLENCIA DOMESTICA-SECRETARIA 12.204,02 3.661,21 0,00 5.359,76 0,00 0,00 0,00 1.717,00 22.941,99 2.350,71 2.795,00 0,00 0,00 5.145,71 17.796,28 30/06/2021
62 264400 ALESSANDRA DE SOUZA SANTOS ANALISTA DO MP BELO HORIZONTE - COMARCA; SUPERINTENDENCIA DOS ORGAOS COLEGIADOS 18.103,37 7.241,35 0,00 12.672,36 0,00 0,00 0,00 1.717,00 39.734,08 3.867,43 5.036,89 0,00 0,00 8.904,32 30.829,76 30/06/2021
63 441500 ALESSANDRA DRUMMOND DE FIGUEIREDO ROSSI ANALISTA DO MP BELO HORIZONTE - COMARCA; DIRETORIA DE PROJETOS DE EDIFICACOES 10.069,62 2.013,92 0,00 6.041,77 0,00 0,00 0,00 1.717,00 19.842,31 1.745,64 1.973,56 0,00 0,00 3.719,20 16.123,11 30/06/2021
64 524000 ALESSANDRA LUCIOLI DE BARROS GUERRA ANALISTA DO MP BELO HORIZONTE - COMARCA; BH-19PJ SAUDE--SECRETARIA 10.069,62 1.006,96 0,00 5.538,29 0,00 0,00 0,00 1.717,00 18.331,87 1.584,53 1.584,54 0,00 0,00 3.169,07 15.162,80 30/06/2021
65 479900 ALESSANDRA MARA ANDRADE DE FARIA OFICIAL DO MP UBERABA - COMARCA; UBERABA-PJ-09PJ 7.663,37 1.532,67 0,00 0,00 0,00 0,00 0,00 1.717,00 10.913,04 1.283,64 1.306,55 0,00 0,00 2.590,19 8.322,85 30/06/2021
66 226700 ALESSANDRA MARA VASCONCELOS REZENDE OFICIAL DO MP CONSELHEIRO LAFAIETE - COMARCA; CONSELHEIRO LAFAIETE-PJ-07PJ 10.397,52 3.119,26 0,00 6.758,39 0,00 0,00 0,00 1.717,00 21.992,17 1.974,96 2.304,64 0,00 0,00 4.279,60 17.712,57 30/06/2021
67 112100 ALESSANDRA MARCIA FERREIRA OFICIAL DO MP BELO HORIZONTE - COMARCA; BELO HORIZONTE- SECRETARIA DAS PROMOTORIAS 10.069,62 7.048,73 0,00 8.559,18 0,00 0,00 0,00 1.717,00 27.394,53 2.551,21 3.136,60 0,00 0,00 5.687,81 21.706,72 30/06/2021
68 196500 ALESSANDRA MARIA RIBEIRO LUCIANO OFICIAL DO MP RIO PARANAÍBA - COMARCA; RIO PARANAIBA-PJ-UNPJ 15.272,02 6.108,81 0,00 10.690,42 0,00 0,00 0,00 1.717,00 33.788,25 3.233,21 4.016,96 0,00 0,00 7.250,17 26.538,08 30/06/2021
69 91400 ALESSANDRA MENDES VASCONCELOS DE SOUZA OFICIAL DO MP BELO HORIZONTE - COMARCA; BH-23PJ INF-FISC MED SOC AB 18.820,14 13.174,10 0,00 15.997,12 0,00 4.931,36 0,00 1.717,00 54.639,72 4.931,36 7.929,06 0,00 0,00 12.860,42 41.779,30 30/06/2021
70 651700 ALESSANDRA PROFIRIO SOUZA OFICIAL DO MP NOVA ERA - COMARCA; NOVA ERA-PJ-UNPJ 4.376,03 262,56 0,00 2.319,30 0,00 0,00 0,00 1.717,00 8.674,89 570,31 236,58 0,00 0,00 806,89 7.868,00 30/06/2021
71 384900 ALESSANDRA RODRIGUES ANALISTA DO MP VISCONDE DO RIO BRANCO - COMARCA; VISCONDE DO RIO BRANCO-PJ-03PJ 14.324,23 2.864,85 0,00 8.594,54 0,00 0,00 0,00 2.486,39 28.270,01 2.562,53 3.048,67 0,00 0,00 5.611,20 22.658,81 30/06/2021
72 390000 ALESSANDRA SPADANO MASSARA VASCONCELOS OFICIAL DO MP BETIM - COMARCA; BETIM-PJ-10PJ 8.858,43 1.771,69 0,00 5.315,06 0,00 0,00 0,00 1.717,00 17.662,18 1.513,10 1.637,82 0,00 0,00 3.150,92 14.511,26 30/06/2021
73 426500 ALESSANDRO CAMPOS DE PAIVA ANALISTA DO MP BELO HORIZONTE - COMARCA; CENTRO PUBLICIDADE E DESIGN GRAFICO 13.011,52 2.602,30 0,00 7.806,91 0,00 0,00 0,00 1.717,00 25.137,73 2.310,49 2.789,06 0,00 0,00 5.099,55 20.038,18 30/06/2021
74 623400 ALESSANDRO DE OLIVEIRA REZENDE ANALISTA DO MP BELO HORIZONTE - COMARCA; DIRET DE INFORMACAO E CONHECIMENTO-DINC/CEAF 8.436,53 843,65 0,00 4.640,09 0,00 0,00 0,00 1.717,00 15.637,27 1.297,11 1.325,98 0,00 0,00 2.623,09 13.014,18 30/06/2021
75 420600 ALESSANDRO SILVA OFICIAL DO MP VISCONDE DO RIO BRANCO - COMARCA; VISCONDE DO RIO BRANCO-PJ-02PJ 8.436,53 2.530,96 0,00 5.483,75 0,00 0,00 0,00 1.717,00 18.168,24 1.567,08 1.187,43 0,00 0,00 2.754,51 15.413,73 30/06/2021
76 375301 ALETHEIA PATRICIA ASSIS MORAIS MOREIRA ANALISTA DO MP ITABIRA - COMARCA; ITABIRA-PJ-02PJ 10.069,62 1.006,96 0,00 0,00 0,00 0,00 0,00 3.255,78 14.332,36 1.584,53 1.688,82 0,00 0,00 3.273,35 11.059,01 30/06/2021
77 382300 ALEX CARVALHO LIMA ANALISTA DO MP UBERLÂNDIA - COMARCA; UBERLANDIA-PJ-14PJ 14.324,23 2.864,85 0,00 0,00 0,00 0,00 0,00 1.717,00 18.906,08 2.562,53 3.152,94 0,00 0,00 5.715,47 13.190,61 30/06/2021
78 195201 ALEX DE CASTRO PEREIRA ANALISTA DO MP UBERABA - COMARCA; UBERABA-PJ-09PJ 17.413,92 6.965,57 0,00 12.189,75 0,00 0,00 0,00 1.717,00 38.286,24 3.713,00 4.813,92 0,00 0,00 8.526,92 29.759,32 30/06/2021
79 358900 ALEX DE PAULA LANZA ASSESSOR BELO HORIZONTE - COMARCA; CENTRO JORNALISMO 0,00 0,00 10.397,52 5.198,76 0,00 0,00 0,00 2.486,39 18.082,67 751,99 2.112,61 0,00 0,00 2.864,60 15.218,07 30/06/2021
80 178400 ALEX RODRIGO SALDANHA GUIMARAES OFICIAL DO MP BELO HORIZONTE - COMARCA; DIRETORIA DE SISTEMAS DE INFORMACAO 6.123,79 2.449,52 0,00 4.286,66 0,00 0,00 0,00 1.717,00 14.576,97 1.184,01 1.162,70 0,00 0,00 2.346,71 12.230,26 30/06/2021
81 413500 ALEX VILELA OLIVEIRA ANALISTA DO MP GOVERNADOR VALADARES - COMARCA; COORD REG PJ DEF EDU DIR CRIANCA ADOL RIODOCE 13.011,52 2.602,30 0,00 0,00 0,00 0,00 0,00 1.717,00 17.330,82 2.310,49 2.789,06 0,00 0,00 5.099,55 12.231,27 30/06/2021
82 264300 ALEXANDRA FATIMA SARAIVA SOARES ANALISTA DO MP BELO HORIZONTE - COMARCA; CENTRAL DE APOIO TECN-SETOR DE MEIO AMBIENTE 18.103,37 5.431,01 0,00 11.767,19 0,00 0,00 3.714,90 1.717,00 40.733,47 3.577,78 5.640,30 0,00 0,00 9.218,08 31.515,39 30/06/2021
83 488000 ALEXANDRA LARA PAIS DE CARVALHO ANALISTA DO MP SERRO - COMARCA; SERRO-PJ-UNPJ 10.069,62 1.006,96 0,00 0,00 3.692,19 0,00 0,00 1.717,00 16.485,77 1.584,53 2.599,89 0,00 0,00 4.184,42 12.301,35 30/06/2021
84 256300 ALEXANDRA SANTOS GOMES OFICIAL DO MP BELO HORIZONTE - COMARCA; DIRETORIA GESTAO COMPRAS LICITACOES 10.069,62 3.020,89 0,00 6.545,26 0,00 0,00 0,00 1.717,00 21.352,77 1.906,76 2.206,17 0,00 0,00 4.112,93 17.239,84 30/06/2021
85 403300 ALEXANDRE AUGUSTO RODRIGUES ANALISTA DO MP ÁGUAS FORMOSAS - COMARCA; AGUAS FORMOSAS-PJ-UNPJ 10.069,62 2.013,92 0,00 6.041,77 0,00 0,00 0,00 3.255,78 21.381,09 1.745,64 1.973,56 0,00 0,00 3.719,20 17.661,89 30/06/2021
86 640900 ALEXANDRE BARBOSA MASCARENHAS ANALISTA DO MP BETIM - COMARCA; BETIM-PJ-02PJ 6.741,63 404,50 0,00 3.573,07 0,00 0,00 0,00 1.717,00 12.436,20 841,65 477,10 0,00 0,00 1.318,75 11.117,45 30/06/2021
87 311700 ALEXANDRE BARCELOS RESENDE OFICIAL DO MP BELO HORIZONTE - COMARCA; BH-19PJ SAUDE-SECRETARIA 047PJ 7.912,85 1.582,57 0,00 4.747,71 0,00 0,00 0,00 2.486,39 16.729,52 1.331,54 1.375,71 0,00 0,00 2.707,25 14.022,27 30/06/2021
88 285600 ALEXANDRE CAMPOS DE OLIVEIRA OFICIAL DO MP UBERABA - COMARCA; COORD REG BACIAS PARANAIBA BAIXO RIO GRANDE 10.069,62 3.020,89 0,00 6.545,26 0,00 0,00 0,00 1.717,00 21.352,77 1.906,76 2.049,76 0,00 0,00 3.956,52 17.396,25 30/06/2021
89 509200 ALEXANDRE CAPUANO DE REZENDE ANALISTA DO MP BELO HORIZONTE - COMARCA; BH-07PJ 03 TRIBUNAL DO JURI-GAB 109PJ 10.069,62 1.006,96 0,00 5.538,29 3.692,19 0,00 0,00 1.717,00 22.024,06 1.584,53 2.704,17 0,00 0,00 4.288,70 17.735,36 30/06/2021
90 229400 ALEXANDRE CARLOS BOTREL DIRETOR/OFICIAL BELO HORIZONTE - COMARCA; SUPERINTENDENCIA DOS ORGAOS COLEGIADOS 0,00 5.224,18 17.413,92 11.319,05 0,00 0,00 0,00 1.717,00 35.674,15 2.518,67 4.663,48 0,00 0,00 7.182,15 28.492,00 30/06/2021
91 411900 ALEXANDRE CARVALHO SANTOS RIBEIRO ANALISTA DO MP OLIVEIRA - COMARCA; OLIVEIRA-PJ-02PJ 13.011,52 2.602,30 0,00 7.806,91 0,00 0,00 0,00 2.486,39 25.907,12 2.310,49 2.789,06 0,00 0,00 5.099,55 20.807,57 30/06/2021
92 641600 ALEXANDRE DA SILVA ASSUNCAO OFICIAL DO MP BELO HORIZONTE - COMARCA; SERVICO MEDICO-DEPTO PERIC MEDICA SAUDE OCUP 4.817,57 481,76 0,00 2.649,67 0,00 0,00 0,00 1.717,00 9.666,00 668,35 405,84 0,00 0,00 1.074,19 8.591,81 30/06/2021
93 201200 ALEXANDRE DE ALENCAR CORDEIRO OFICIAL DO MP ÁGUAS FORMOSAS - COMARCA; AGUAS FORMOSAS-PJ-UNPJ 6.123,79 3.061,90 0,00 4.592,85 0,00 0,00 0,00 1.717,00 15.495,54 1.281,99 1.304,16 0,00 0,00 2.586,15 12.909,39 30/06/2021
94 288200 ALEXANDRE DE VASCONCELOS COSTA KER ANALISTA DO MP BELO HORIZONTE - COMARCA; BH-03PJ EMPRESARIAL-SECRETARIA 16.750,82 5.025,25 0,00 10.888,04 0,00 0,00 0,00 1.717,00 34.381,11 3.296,45 4.160,40 0,00 0,00 7.456,85 26.924,26 30/06/2021
95 445000 ALEXANDRE DIOGENES OLIVEIRA ANALISTA DO MP SALINAS - COMARCA; SALINAS-PJ-02PJ 10.069,62 2.013,92 0,00 6.041,77 0,00 0,00 0,00 2.486,39 20.611,70 1.745,64 1.973,56 0,00 0,00 3.719,20 16.892,50 30/06/2021
96 463400 ALEXANDRE LEAL WINKELSTROTER ANALISTA DO MP TEÓFILO OTONI - COMARCA; TEOFILO OTONI-PJ-04PJ 10.069,62 2.013,92 0,00 6.041,77 0,00 0,00 0,00 1.717,00 19.842,31 1.745,64 1.973,56 0,00 0,00 3.719,20 16.123,11 30/06/2021
97 615700 ALEXANDRE LUIZ DE CASTRO MACIEL ANALISTA DO MP IBIRITÉ - COMARCA; IBIRITE-PJ-02PJ 8.436,53 843,65 0,00 4.640,09 0,00 0,00 0,00 1.717,00 15.637,27 1.297,11 1.325,98 0,00 0,00 2.623,09 13.014,18 30/06/2021
98 356900 ALEXANDRE MOISES MENDONCA E ARAUJO OFICIAL DO MP UBERABA - COMARCA; UBERABA-PJ-13PJ 7.421,79 1.484,36 0,00 4.453,08 0,00 0,00 0,00 1.717,00 15.076,23 1.237,26 1.239,58 0,00 0,00 2.476,84 12.599,39 30/06/2021
99 633300 ALEXANDRE NONATO MARTINS OFICIAL DO MP IGARAPÉ - COMARCA; IGARAPE-PJ-02PJ 4.817,57 481,76 0,00 2.649,67 0,00 0,00 0,00 1.717,00 9.666,00 668,35 363,18 0,00 0,00 1.031,53 8.634,47 30/06/2021
100 469900 ALEXANDRE PEREIRA GUEDES ANALISTA DO MP CATAGUASES - COMARCA; CATAGUASES-PJ-03PJ 10.069,62 2.013,92 0,00 6.041,77 0,00 0,00 0,00 1.717,00 19.842,31 1.745,64 1.973,56 0,00 0,00 3.719,20 16.123,11 30/06/2021
101 208700 ALEXANDRE RESENDE FRAGA ANALISTA DO MP BELO HORIZONTE - COMARCA; BH-19PJ SAUDE-SECRETARIA 130PJ 18.820,14 7.528,06 0,00 13.174,10 0,00 0,00 0,00 1.717,00 41.239,30 4.027,99 5.112,29 0,00 0,00 9.140,28 32.099,02 30/06/2021
102 216401 ALEXANDRE RIBEIRO DE LIMA MAIORINO ANALISTA DO MP UBERABA - COMARCA; UBERABA-PJ-03PJ 16.750,82 6.700,33 0,00 11.725,58 0,00 0,00 0,00 1.717,00 36.893,73 3.564,46 4.547,34 0,00 0,00 8.111,80 28.781,93 30/06/2021
103 475100 ALEXANDRE TEOTONIO COSTA ANALISTA DO MP ARAGUARI - COMARCA; ARAGUARI-PJ-01PJ 10.069,62 2.013,92 0,00 6.041,77 0,00 0,00 0,00 1.717,00 19.842,31 1.745,64 1.869,29 0,00 0,00 3.614,93 16.227,38 30/06/2021
104 339000 ALEXANDRE VITOR CARDOSO OFICIAL DO MP BELO HORIZONTE - COMARCA; PROMOT ESTADUAL DE DEF PATRI CULT E TUR DE MG 6.123,79 1.837,14 0,00 3.980,47 0,00 0,00 0,00 1.717,00 13.658,40 1.086,03 864,83 0,00 0,00 1.950,86 11.707,54 30/06/2021
105 678900 ALEXIA DUARTE TORRES ASSESSOR PROCURADOR JUSTICA BELO HORIZONTE - COMARCA; GABINETE DE PROCURADOR DE JUSTIÇA - SALA 502 0,00 0,00 7.187,72 3.593,86 0,00 0,00 0,00 1.717,00 12.498,58 751,99 1.229,92 0,00 0,00 1.981,91 10.516,67 30/06/2021
106 623100 ALEXSANDER BATISTA AGUIAR ANALISTA DO MP BELO HORIZONTE - COMARCA; DIRETORIA DE SUPORTE E MANUTENCAO 8.436,53 843,65 0,00 4.640,09 0,00 0,00 0,00 2.486,39 16.406,66 1.297,11 1.169,57 0,00 0,00 2.466,68 13.939,98 30/06/2021
107 513300 ALFSON MIRANDA BRAGA ANALISTA DO MP BELO HORIZONTE - COMARCA; BH-12PJ JUIZO CRIMINAL-GAB 092PJ 10.069,62 1.006,96 0,00 5.538,29 0,00 0,00 0,00 1.717,00 18.331,87 1.584,53 1.740,95 0,00 0,00 3.325,48 15.006,39 30/06/2021
108 618400 ALICE MAGALHAES MACEDO DE CARVALHO ANALISTA DO MP IPATINGA - COMARCA; IPATINGA-PJ-10PJ 8.436,53 843,65 0,00 4.640,09 0,00 0,00 0,00 2.486,39 16.406,66 1.297,11 1.325,98 0,00 0,00 2.623,09 13.783,57 30/06/2021
109 471000 ALICE TITONELI MOREIRA ANALISTA DO MP MIRADOURO - COMARCA; MIRADOURO-PJ-UNPJ 10.069,62 2.013,92 0,00 6.041,77 0,00 0,00 0,00 2.724,91 20.850,22 1.745,64 1.921,43 0,00 0,00 3.667,07 17.183,15 30/06/2021
110 622400 ALINE BALBINO PORTUGAL LOPES ANALISTA DO MP TRÊS PONTAS - COMARCA; TRES PONTAS-PJ-03PJ 8.436,53 843,65 0,00 4.640,09 0,00 0,00 0,00 2.486,39 16.406,66 1.297,11 1.325,98 0,00 0,00 2.623,09 13.783,57 30/06/2021
111 373000 ALINE BOTELHO RESENDE OFICIAL DO MP JUIZ DE FORA - COMARCA; JUIZ DE FORA-PJ-22PJ 8.579,10 1.715,82 0,00 5.147,46 0,00 0,00 0,00 1.717,00 17.159,38 1.459,46 1.560,39 0,00 0,00 3.019,85 14.139,53 30/06/2021
112 699800 ALINE CRISTINA DE OLIVEIRA AMARAL BARBOSA ASSESSOR PROCURADOR JUSTICA BELO HORIZONTE - COMARCA; GABINETE DE PROCURADOR DE JUSTIÇA - SALA 904 0,00 0,00 7.187,72 2.819,76 0,00 0,00 0,00 1.717,00 11.724,48 751,99 1.125,64 0,00 0,00 1.877,63 9.846,85 30/06/2021
113 407700 ALINE CRISTINA RODRIGUES PEREIRA COORDENADOR/ANALISTA BELO HORIZONTE - COMARCA; DIRETORIA DE PROJETOS DE EDIFICACOES 0,00 2.687,03 13.435,16 8.061,10 0,00 0,00 0,00 2.486,39 26.669,68 1.745,64 3.084,19 0,00 0,00 4.829,83 21.839,85 30/06/2021
114 193100 ALINE CRISTINA SENA OLIVEIRA OFICIAL DO MP UBERLÂNDIA - COMARCA; UBERLANDIA-PJ-03PJ 14.790,66 5.916,26 0,00 10.353,46 0,00 0,00 0,00 2.486,39 33.546,77 3.125,38 3.913,43 0,00 0,00 7.038,81 26.507,96 30/06/2021
115 554200 ALINE CRISTINA SILVA SOUZA OFICIAL DO MP TIROS - COMARCA; TIROS-PJ-UNPJ 5.930,75 593,08 0,00 2.489,23 2.174,61 0,00 0,00 1.717,00 12.904,67 856,09 1.287,29 0,00 0,00 2.143,38 10.761,29 30/06/2021
116 505500 ALINE DA CUNHA MARREIROS OLIVEIRA ANALISTA DO MP EUGENÓPOLIS - COMARCA; EUGENOPOLIS-PJ-UNPJ 10.069,62 1.006,96 0,00 5.538,29 0,00 0,00 0,00 3.255,78 19.870,65 1.584,53 1.688,82 0,00 0,00 3.273,35 16.597,30 30/06/2021
117 433500 ALINE DE MELO QUEIROZ ASSESSOR/OFICIAL BELO HORIZONTE - COMARCA; ASSESSORIA TECNICA DO PROCON-MG 0,00 2.079,50 10.397,52 6.238,51 0,00 0,00 548,99 8.475,36 27.739,88 1.459,46 2.160,47 0,00 0,00 3.619,93 24.119,95 30/06/2021
118 691100 ALINE DE MELO SOUZA ASSESSOR PROCURADOR JUSTICA BELO HORIZONTE - COMARCA; GABINETE DE PROCURADOR DE JUSTIÇA - SALA 401 0,00 0,00 7.187,72 3.593,86 0,00 0,00 0,00 1.717,00 12.498,58 751,99 1.229,92 0,00 0,00 1.981,91 10.516,67 30/06/2021
119 542700 ALINE DE SOUSA ALBINO ANALISTA DO MP CONTAGEM - COMARCA; CONTAGEM-PJ-09PJ 9.146,93 914,69 0,00 5.030,81 0,00 0,00 0,00 1.717,00 16.809,43 1.422,14 1.506,50 0,00 0,00 2.928,64 13.880,79 30/06/2021
120 330000 ALINE DIORIO MAYRINK OFICIAL DO MP BELO HORIZONTE - COMARCA; BH-15PJ M AMB PAT HIST CULT-GAB 115PJ 7.187,72 1.437,54 0,00 4.312,63 0,00 0,00 0,00 1.717,00 14.654,89 1.192,32 1.174,70 0,00 0,00 2.367,02 12.287,87 30/06/2021
121 499000 ALINE FERREIRA LOPES ANALISTA DO MP TEÓFILO OTONI - COMARCA; TEOFILO OTONI-PJ-09PJ 10.069,62 1.006,96 0,00 5.538,29 0,00 0,00 0,00 1.717,00 18.331,87 1.584,53 1.740,95 0,00 0,00 3.325,48 15.006,39 30/06/2021
122 405300 ALINE LAIA CARDOZO DIRETOR/ANALISTA BELO HORIZONTE - COMARCA; SUPERINTENDENCIA LOGISTICA SERVICOS 0,00 3.482,78 17.413,92 10.448,35 0,00 0,00 0,00 1.717,00 33.062,05 2.562,53 4.172,54 0,00 0,00 6.735,07 26.326,98 30/06/2021
123 278200 ALINE MARCIA FARIA BARBOSA FERNANDES OFICIAL DO MP BARBACENA - COMARCA; BARBACENA-PJ-SECRETARIA 7.421,79 2.226,54 0,00 3.518,85 0,00 0,00 0,00 1.717,00 14.884,18 1.356,01 1.254,62 0,00 0,00 2.610,63 12.273,55 30/06/2021
124 389000 ALINE NERI NOBRE ANALISTA DO MP MONTES CLAROS - COMARCA; COORD REG PJ DEF EDUC DIR CRIANCA ADOL NORTE 14.324,23 4.297,27 0,00 9.310,75 0,00 0,00 0,00 1.717,00 29.649,25 2.791,72 3.483,83 0,00 0,00 6.275,55 23.373,70 30/06/2021
125 294600 ALINE PATRICIA SILVA VIEIRA OFICIAL DO MP UBERLÂNDIA - COMARCA; UBERLANDIA-PJ-03PJ 10.069,62 3.020,89 0,00 7.267,89 0,00 0,00 1.445,27 1.717,00 23.520,67 1.906,76 2.499,35 0,00 0,00 4.406,11 19.114,56 30/06/2021
126 420000 ALINE RODRIGUES CAMOROPIN ANALISTA DO MP SABARÁ - COMARCA; SABARA-PJ-02PJ 13.011,52 2.602,30 0,00 7.806,91 0,00 0,00 0,00 1.717,00 25.137,73 2.310,49 2.789,06 0,00 0,00 5.099,55 20.038,18 30/06/2021
127 699600 ALINE SEPULVEDA ROSA PIRES ASSESSOR PROCURADOR JUSTICA BELO HORIZONTE - COMARCA; GABINETE DE PROCURADOR DE JUSTIÇA - SALA 905 0,00 0,00 7.187,72 3.593,86 0,00 0,00 0,00 1.717,00 12.498,58 751,99 1.229,92 0,00 0,00 1.981,91 10.516,67 30/06/2021
128 408300 ALINE SILVA ARAUJO DE PAULA ANALISTA DO MP SÃO SEBASTIÃO DO PARAÍSO - COMARCA; SAO SEBASTIAO DO PARAISO-PJ-02PJ 13.011,52 2.602,30 0,00 7.806,91 0,00 0,00 0,00 2.486,39 25.907,12 2.310,49 2.789,06 0,00 0,00 5.099,55 20.807,57 30/06/2021
129 425400 ALINE TRINDADE DE FREITAS CAMPOS OFICIAL DO MP BELO HORIZONTE - COMARCA; BH-14PJ DEFESA CONSUMIDOR-SECRETARIA 8.579,10 1.715,82 0,00 0,00 0,00 0,00 0,00 1.717,00 12.011,92 1.459,46 1.560,39 0,00 0,00 3.019,85 8.992,07 30/06/2021
130 517200 ALISSOM PEREIRA DA SILVA ANALISTA DO MP BORDA DA MATA - COMARCA; BORDA DA MATA-PJ-UNPJ 10.069,62 1.006,96 0,00 5.538,29 0,00 0,00 0,00 2.486,39 19.101,26 1.584,53 1.740,95 0,00 0,00 3.325,48 15.775,78 30/06/2021
131 442400 ALISSON LABRE ANALISTA DO MP VARGINHA - COMARCA; VARGINHA-PJ-03PJ 10.069,62 2.013,92 0,00 6.041,77 0,00 0,00 0,00 1.717,00 19.842,31 1.745,64 1.973,56 0,00 0,00 3.719,20 16.123,11 30/06/2021
132 643800 ALLAN PAUL FONSECA DE CASTRO ASSESSOR/OFICIAL CONTAGEM - COMARCA; CONTAGEM-PJ-SECRETARIA 0,00 1.039,75 10.397,52 5.718,64 0,00 0,00 0,00 2.486,39 19.642,30 668,35 2.092,09 0,00 0,00 2.760,44 16.881,86 30/06/2021
133 612900 ALLAN VINICIUS VIEIRA ARAUJO COORDENADOR/OFICIAL BELO HORIZONTE - COMARCA; DIRETORIA DE GESTAO DOCUMENTAL 0,00 1.343,52 13.435,16 7.389,34 0,00 0,00 0,00 1.717,00 23.885,02 762,96 2.984,96 0,00 0,00 3.747,92 20.137,10 30/06/2021
134 349000 ALLEC RODRIGUES VIEIRA OFICIAL DO MP BELO HORIZONTE - COMARCA; COORD EST DEF DIR FAM PESSOAS DEFICI IDOSOS 10.069,62 3.020,89 0,00 6.545,26 0,00 0,00 0,00 1.717,00 21.352,77 1.906,76 2.206,17 0,00 0,00 4.112,93 17.239,84 30/06/2021
135 297300 ALLYSON SALIBA MONTEIRO LAIZO ANALISTA DO MP CONSELHEIRO LAFAIETE - COMARCA; CONSELHEIRO LAFAIETE-PJ-03PJ 18.820,14 5.646,04 0,00 12.233,09 0,00 0,00 0,00 3.255,78 39.955,05 3.726,87 4.833,95 0,00 0,00 8.560,82 31.394,23 30/06/2021
136 303700 ALMIR LOPES LOURES ANALISTA DO MP BELO HORIZONTE - COMARCA; CENTRAL DE APOIO TECN-SETOR DE MEIO AMBIENTE 18.820,14 5.646,04 0,00 0,00 0,00 0,00 0,00 1.717,00 26.183,18 3.726,87 4.833,95 0,00 0,00 8.560,82 17.622,36 30/06/2021
137 696600 ALOIZIO MARTINS JALES JUNIOR ASSESSOR PROMOTOR JUSTICA CAMPESTRE - COMARCA; CAMPESTRE-PJ-SECRETARIA 0,00 0,00 7.187,72 3.593,86 0,00 0,00 0,00 1.717,00 12.498,58 751,99 1.229,92 0,00 0,00 1.981,91 10.516,67 30/06/2021
138 515900 ALTAIR NEVES JUNIOR OFICIAL DO MP BELO HORIZONTE - COMARCA; BH-01PJ FAZENDA PUBLICA-SECRETARIA 7.421,79 742,18 0,00 0,00 0,00 0,00 0,00 1.717,00 9.880,97 1.118,51 1.068,14 0,00 0,00 2.186,65 7.694,32 30/06/2021
139 233300 ALVARINDO BATISTA ANALISTA DO MP BELO HORIZONTE - COMARCA; NUCLEO APOIO TECNICO ESP COMUNICACAO 18.820,14 5.646,04 0,00 12.233,09 8.155,39 0,00 0,00 2.486,39 47.341,05 3.726,87 7.024,55 0,00 0,00 10.751,42 36.589,63 30/06/2021
140 274100 ALYSSON CARVALHO VIDAL DE LACERDA OFICIAL DO MP MANHUAÇU - COMARCA; MANHUACU-PJ-01PJ 10.069,62 3.020,89 0,00 0,00 0,00 0,00 0,00 1.717,00 14.807,51 1.906,76 2.206,17 0,00 0,00 4.112,93 10.694,58 30/06/2021
141 621000 AMANDA BASTOS ALVES ANALISTA DO MP BELO HORIZONTE - COMARCA; BH-07PJ 01 TRIBUNAL DO JURI-GAB 066PJ 8.436,53 843,65 0,00 4.640,09 0,00 0,00 0,00 1.717,00 15.637,27 1.297,11 1.325,98 0,00 0,00 2.623,09 13.014,18 30/06/2021
142 521700 AMANDA CRISTINA AGUIAR MACHADO OFICIAL DO MP CONGONHAS - COMARCA; CONGONHAS-PJ-01PJ 5.562,64 556,26 0,00 3.059,45 0,00 0,00 0,00 1.717,00 10.895,35 792,88 543,16 0,00 0,00 1.336,04 9.559,31 30/06/2021
143 613400 AMANDA DE ASSIS IUNES SANTOS ANALISTA DO MP CONGONHAS - COMARCA; CONGONHAS-PJ-01PJ 8.436,53 843,65 0,00 4.640,09 0,00 0,00 0,00 1.717,00 15.637,27 1.297,11 1.325,98 0,00 0,00 2.623,09 13.014,18 30/06/2021
144 695900 AMANDA DE OLIVEIRA ASSESSOR PROCURADOR JUSTICA BELO HORIZONTE - COMARCA; PROC JUST ATUACAO TRIBUNAIS SUPERIORES-GAB004 0,00 0,00 7.187,72 3.593,86 0,00 0,00 0,00 1.717,00 12.498,58 751,99 1.229,92 0,00 0,00 1.981,91 10.516,67 30/06/2021
145 520800 AMANDA DE SOUZA MACHADO ANALISTA DO MP BAEPENDI - COMARCA; BAEPENDI-PJ-UNPJ 10.069,62 1.006,96 0,00 5.538,29 0,00 0,00 0,00 1.717,00 18.331,87 1.584,53 1.636,68 0,00 0,00 3.221,21 15.110,66 30/06/2021
146 663900 AMANDA DENISE GONCALVES DA SILVA ASSESSOR BELO HORIZONTE - COMARCA; DIRET DE FORMACAO, APERFEIC. E POS-GRADUACAO 0,00 0,00 3.076,28 1.538,14 0,00 0,00 0,00 1.717,00 6.331,42 449,69 224,40 0,00 0,00 674,09 5.657,33 30/06/2021
147 677000 AMANDA LETICIA MESSIAS PEGO ASSESSOR PROMOTOR JUSTICA CORAÇÃO DE JESUS - COMARCA; CORACAO DE JESUS-PJ-UNPJ 0,00 0,00 7.187,72 3.593,86 0,00 0,00 0,00 1.717,00 12.498,58 751,99 1.229,92 0,00 0,00 1.981,91 10.516,67 30/06/2021
148 543100 AMANDA VIEIRA FREITAS BRESSANE ANALISTA DO MP VARGINHA - COMARCA; COORD REG DEF ORDEM ECONOMICA TRIB SUL MINAS 9.146,93 914,69 0,00 3.566,49 0,00 0,00 0,00 1.717,00 15.345,11 1.422,14 1.506,50 0,00 0,00 2.928,64 12.416,47 30/06/2021
149 434400 AMARILIS ASSIS SIMAO CURCIO ANALISTA DO MP BELO HORIZONTE - COMARCA; NUCLEO DE ACORDOS DE NAO PERSECUCAO PENAL BH 10.069,62 2.013,92 0,00 6.041,77 0,00 0,00 0,00 1.717,00 19.842,31 1.745,64 1.973,56 0,00 0,00 3.719,20 16.123,11 30/06/2021
150 652000 AMAURI SILVA ALVES ASSESSOR/OFICIAL BELO HORIZONTE - COMARCA; BH-23PJ INFRACIONAL-SEC EXP 0,00 490,23 8.170,49 4.330,36 0,00 0,00 539,85 7.606,29 21.137,22 570,31 1.355,50 0,00 0,00 1.925,81 19.211,41 30/06/2021
151 58000 AMELIA GUARIZE DE CASTRO OFICIAL DO MP JUIZ DE FORA - COMARCA; JUIZ DE FORA-PJ-SECRETARIA 6.741,63 6.741,63 0,00 6.741,63 0,00 1.969,60 0,00 1.717,00 23.911,49 1.969,60 2.838,54 0,00 0,00 4.808,14 19.103,35 30/06/2021
152 324301 AMERICA SUELI FERREIRA DA SILVA ANALISTA DO MP MONTE CARMELO - COMARCA; MONTE CARMELO-PJ-02PJ 10.069,62 2.013,92 0,00 6.041,77 0,00 0,00 0,00 2.076,05 20.201,36 1.745,64 1.921,43 0,00 0,00 3.667,07 16.534,29 30/06/2021
153 273300 AMUJACY DE BRITO ASSIZ OFICIAL DO MP BELO HORIZONTE - COMARCA; BH-12PJ JUIZO CRIMINAL-SECRETARIA 10.069,62 3.020,89 0,00 6.545,26 0,00 0,00 0,00 1.717,00 21.352,77 1.906,76 1.997,62 0,00 0,00 3.904,38 17.448,39 30/06/2021
154 482200 ANA ALICE LOPES ACHTSCHIN ANALISTA DO MP BELO HORIZONTE - COMARCA; PROC JUST ATUACAO TRIBUNAIS SUPERIORES-GAB002 10.736,08 2.147,22 0,00 6.441,65 0,00 0,00 0,00 1.717,00 21.041,95 1.873,61 2.158,30 0,00 0,00 4.031,91 17.010,04 30/06/2021
155 490400 ANA AMELIA PAULINO GARCIA OFICIAL DO MP CONTAGEM - COMARCA; CONTAGEM-PJ-SECRETARIA 7.663,37 766,34 0,00 3.069,57 0,00 0,00 0,00 1.717,00 13.216,28 1.161,03 1.129,53 0,00 0,00 2.290,56 10.925,72 30/06/2021
156 690400 ANA ANGELICA MOREIRA DA CUNHA ASSESSOR PROMOTOR JUSTICA TIMÓTEO - COMARCA; TIMOTEO-PJ-02PJ 0,00 0,00 7.187,72 3.593,86 0,00 0,00 0,00 1.717,00 12.498,58 751,99 1.229,92 0,00 0,00 1.981,91 10.516,67 30/06/2021
157 279100 ANA CAROLINA ARAUJO PEREIRA ANALISTA DO MP BELO HORIZONTE - COMARCA; DIRETORIA DE PROJETOS DE EDIFICACOES 18.820,14 5.646,04 0,00 7.978,74 0,00 0,00 0,00 1.717,00 34.161,92 3.726,87 4.781,81 0,00 0,00 8.508,68 25.653,24 30/06/2021
158 653300 ANA CAROLINA CYRNE DINIZ ASSESSOR BELO HORIZONTE - COMARCA; CENTRAL DE APOIO TECNICO-SETOR CONTABIL 0,00 0,00 8.170,49 4.085,25 0,00 0,00 0,00 1.717,00 13.972,74 751,99 1.500,18 0,00 0,00 2.252,17 11.720,57 30/06/2021
159 359400 ANA CAROLINA DE ABREU FARIA ASSESSOR BELO HORIZONTE - COMARCA; SUPERINTENDÊNCIA DE ENGENHARIA E ARQUITETURA 0,00 0,00 10.397,52 5.198,76 0,00 0,00 0,00 2.486,39 18.082,67 751,99 2.060,47 0,00 0,00 2.812,46 15.270,21 30/06/2021
160 408500 ANA CAROLINA DE CASTRO CARVALHO ANALISTA DO MP BARBACENA - COMARCA; BARBACENA - SECRETARIA DAS PJS CRIMINAIS 13.011,52 2.602,30 0,00 7.806,91 0,00 0,00 0,00 1.717,00 25.137,73 2.310,49 2.789,06 0,00 0,00 5.099,55 20.038,18 30/06/2021
161 688000 ANA CAROLINA DE OLIVEIRA PINTO ASSESSOR PROCURADOR JUSTICA BELO HORIZONTE - COMARCA; GABINETE DE PROCURADOR DE JUSTIÇA - SALA 1014 0,00 0,00 7.187,72 3.593,86 0,00 0,00 0,00 1.717,00 12.498,58 751,99 1.229,92 0,00 0,00 1.981,91 10.516,67 30/06/2021
162 420200 ANA CAROLINA FERNANDES SILVA ANALISTA DO MP BELO HORIZONTE - COMARCA; GABINETE DE PROCURADOR DE JUSTIÇA - SALA 704 12.601,30 2.520,26 0,00 7.560,78 0,00 0,00 0,00 1.717,00 24.399,34 2.231,73 2.675,34 0,00 0,00 4.907,07 19.492,27 30/06/2021
163 522100 ANA CAROLINA FERNANDINO VIDAL PEREIRA SANTOS OFICIAL DO MP BELO HORIZONTE - COMARCA; SECRETARIA DO PROCON-MG 7.421,79 742,18 0,00 0,00 0,00 0,00 0,00 1.717,00 9.880,97 1.118,51 1.068,14 0,00 0,00 2.186,65 7.694,32 30/06/2021
164 502400 ANA CAROLINA GONCALVES FERNANDES ANALISTA DO MP IPATINGA - COMARCA; IPATINGA-PJ-01PJ 10.069,62 1.006,96 0,00 3.875,54 0,00 0,00 0,00 6.307,69 21.259,81 1.584,53 1.740,95 0,00 0,00 3.325,48 17.934,33 30/06/2021
165 529900 ANA CAROLINA GONCALVES PECANHA CHEQUER ANALISTA DO MP MANHUAÇU - COMARCA; MANHUACU-PJ-04PJ 9.146,93 914,69 0,00 3.566,49 0,00 0,00 0,00 3.255,78 16.883,89 1.422,14 1.506,50 0,00 0,00 2.928,64 13.955,25 30/06/2021
166 431900 ANA CAROLINA MOTTA GUATIMOSIM ANALISTA DO MP BELO HORIZONTE - COMARCA; ASSESSORIA JURIDICO-ADMINISTRATIVA 12.601,30 2.520,26 0,00 7.560,78 0,00 0,00 0,00 2.486,39 25.168,73 2.231,73 2.675,34 0,00 0,00 4.907,07 20.261,66 30/06/2021
167 490600 ANA CAROLINA XAVIER GODOY ANALISTA DO MP BELO HORIZONTE - COMARCA; BH-18PJ DIREITOS HUMANOS-SECRETARIA 10.069,62 1.006,96 0,00 3.927,68 0,00 0,00 0,00 3.255,78 18.260,04 1.584,53 1.636,68 0,00 0,00 3.221,21 15.038,83 30/06/2021
168 600300 ANA CAROLINE PEREIRA DINIZ ANALISTA DO MP BELO HORIZONTE - COMARCA; COMB CRIMES PRAT POR AG POL MUN-SECRETARIA 9.146,93 914,69 0,00 5.030,81 0,00 0,00 0,00 2.486,39 17.578,82 1.422,14 1.506,50 0,00 0,00 2.928,64 14.650,18 30/06/2021
169 615800 ANA CAROLINE PEREIRA OLIVEIRA OFICIAL DO MP ALFENAS - COMARCA; ALFENAS-PJ-06PJ 5.387,19 538,72 0,00 2.962,96 0,00 0,00 0,00 1.717,00 10.605,87 762,96 550,45 0,00 0,00 1.313,41 9.292,46 30/06/2021
170 324800 ANA CECILIA MENDES DA SILVA OFICIAL DO MP OURO FINO - COMARCA; OURO FINO-PJ-01PJ 10.069,62 3.020,89 0,00 6.545,26 0,00 0,00 0,00 1.717,00 21.352,77 1.906,76 2.154,03 0,00 0,00 4.060,79 17.291,98 30/06/2021
171 704100 ANA CLARA MARTINS ALBUQUERQUE ASSESSOR BELO HORIZONTE - COMARCA; CAO-CRIANCAS E ADOLESCENTES-ASS TECNICA 0,00 0,00 3.076,28 512,71 0,00 0,00 0,00 1.717,00 5.305,99 449,69 224,40 0,00 0,00 674,09 4.631,90 30/06/2021
172 698700 ANA CLARA SANTOS ALMEIDA ASSESSOR PROMOTOR JUSTICA SABINÓPOLIS - COMARCA; SABINOPOLIS-PJ-UNPJ 0,00 0,00 7.187,72 3.593,86 0,00 0,00 0,00 1.717,00 12.498,58 751,99 1.229,92 0,00 0,00 1.981,91 10.516,67 30/06/2021
173 441300 ANA CLAUDIA ALKIMIM MIRANDA BOMTEMPO ANALISTA DO MP MONTES CLAROS - COMARCA; MONTES CLAROS-PJ-11PJ 12.601,30 2.520,26 0,00 7.560,78 0,00 0,00 0,00 1.717,00 24.399,34 2.231,73 2.571,07 0,00 0,00 4.802,80 19.596,54 30/06/2021
174 642500 ANA CLAUDIA DA COSTA NAVES OFICIAL DO MP MONTE CARMELO - COMARCA; MONTE CARMELO-PJ-02PJ 4.376,03 437,60 0,00 2.406,82 0,00 0,00 0,00 2.486,39 9.706,84 595,50 312,95 0,00 0,00 908,45 8.798,39 30/06/2021
175 604900 ANA CLAUDIA OLIVEIRA DE MIRANDA OFICIAL DO MP PONTE NOVA - COMARCA; PONTE NOVA-PJ-04PJ 5.387,19 538,72 0,00 2.962,96 0,00 0,00 0,00 1.717,00 10.605,87 762,96 498,31 0,00 0,00 1.261,27 9.344,60 30/06/2021
176 379300 ANA CRISTINA ALVES FLAVIO ANALISTA DO MP SÃO GOTARDO - COMARCA; SAO GOTARDO-PJ-01PJ 14.324,23 2.864,85 0,00 8.594,54 0,00 0,00 0,00 2.486,39 28.270,01 2.562,53 3.100,80 0,00 0,00 5.663,33 22.606,68 30/06/2021
177 461200 ANA CRISTINA ALVES PASCHOAL ANALISTA DO MP SANTA LUZIA - COMARCA; SANTA LUZIA-PJ-03PJ 10.069,62 2.013,92 0,00 6.041,77 4.027,85 0,00 0,00 1.717,00 23.870,16 1.745,64 3.029,08 0,00 0,00 4.774,72 19.095,44 30/06/2021
178 514100 ANA CRISTINA ARAUJO ASSUNCAO ANALISTA DO MP BELO HORIZONTE - COMARCA; ASSESS JUR DO CONS SUPERIOR DO MINISTERIO PUB 10.069,62 1.006,96 0,00 5.538,29 0,00 0,00 0,00 2.486,39 19.101,26 1.584,53 1.688,82 0,00 0,00 3.273,35 15.827,91 30/06/2021
179 113400 ANA CRISTINA BRAGA ALBUQUERQUE ASSESSOR/ANALISTA BELO HORIZONTE - COMARCA; ASSESS ESP ADM E FINANCEIRA DO PGJ ADJ ADM 30.090,04 21.063,02 0,00 17.731,11 0,00 5.486,23 520,11 7.390,96 82.281,47 5.486,23 8.882,75 15.690,84 0,00 30.059,82 52.221,65 30/06/2021
180 233800 ANA CRISTINA BRAGA SOARES OFICIAL DO MP CONTAGEM - COMARCA; CONTAGEM-PJ-SECRETARIA 10.736,08 3.220,82 0,00 6.978,45 0,00 0,00 0,00 1.717,00 22.652,35 2.045,38 2.302,03 0,00 0,00 4.347,41 18.304,94 30/06/2021
181 186400 ANA CRISTINA DE AZEVEDO LOPES OFICIAL DO MP UBÁ - COMARCA; UBA-PJ-01PJ 14.790,66 5.916,26 0,00 6.807,99 0,00 0,00 0,00 1.717,00 29.231,91 3.125,38 3.965,56 0,00 0,00 7.090,94 22.140,97 30/06/2021
182 693000 ANA CRISTINA DE MELO SILVEIRA ASSESSOR PROCURADOR JUSTICA BELO HORIZONTE - COMARCA; GABINETE DE PROCURADOR DE JUSTIÇA - SALA 501 0,00 0,00 7.187,72 0,00 0,00 0,00 0,00 2.486,39 9.674,11 751,99 1.229,92 0,00 0,00 1.981,91 7.692,20 30/06/2021
183 465100 ANA CRISTINA DE OLIVEIRA GUIMARAES ANALISTA DO MP ITAJUBA - COMARCA; ITAJUBA-PJ-05PJ 10.069,62 2.013,92 0,00 6.041,77 0,00 0,00 0,00 3.255,78 21.381,09 1.745,64 1.869,29 0,00 0,00 3.614,93 17.766,16 30/06/2021
184 500600 ANA CRISTINA LATADO SUDARIO ANALISTA DO MP UBERLÂNDIA - COMARCA; UBERLANDIA-PJ-09PJ 10.069,62 1.006,96 0,00 5.538,29 0,00 0,00 0,00 1.717,00 18.331,87 1.584,53 1.740,95 0,00 0,00 3.325,48 15.006,39 30/06/2021
185 331400 ANA CRISTINA RIBEIRO ALVES OFICIAL DO MP BAMBUÍ - COMARCA; BAMBUI-PJ-UNPJ 9.146,93 2.744,08 0,00 5.945,51 0,00 0,00 0,00 1.717,00 19.553,52 1.714,84 1.876,95 0,00 0,00 3.591,79 15.961,73 30/06/2021
186 249300 ANA ELOINA MARTINS OFICIAL DO MP BETIM - COMARCA; BETIM-PJ-02PJ 12.601,30 5.040,52 0,00 5.874,66 0,00 0,00 0,00 1.717,00 25.233,48 2.634,97 3.257,52 0,00 0,00 5.892,49 19.340,99 30/06/2021
187 257400 ANA FLAVIA CAMBRAIA ANALISTA DO MP BELO HORIZONTE - COMARCA; BH-19PJ SAUDE-SECRETARIA 150PJ 18.103,37 5.431,01 0,00 11.767,19 0,00 0,00 0,00 1.717,00 37.018,57 3.577,78 4.566,57 0,00 0,00 8.144,35 28.874,22 30/06/2021
188 248201 ANA FLAVIA DE MORAIS SOUZA ANALISTA DO MP DIVINÓPOLIS - COMARCA; DIVINOPOLIS-PJ-01PJ 10.069,62 3.020,89 0,00 6.545,26 0,00 0,00 0,00 2.486,39 22.122,16 1.906,76 2.101,90 0,00 0,00 4.008,66 18.113,50 30/06/2021
189 621100 ANA FLAVIA DINIZ TEODORO OFICIAL DO MP SANTA LUZIA - COMARCA; SANTA LUZIA-PJ-06PJ 5.387,19 538,72 0,00 0,00 0,00 0,00 0,00 1.717,00 7.642,91 762,96 550,45 0,00 0,00 1.313,41 6.329,50 30/06/2021
190 238600 ANA FLAVIA FRANCO OFICIAL DO MP BELO HORIZONTE - COMARCA; DIRETORIA DE PESSOAL ADMINISTRATIVO - DPAD 13.011,52 3.903,46 0,00 5.653,33 0,00 0,00 0,00 1.717,00 24.285,31 2.518,67 3.089,63 0,00 0,00 5.608,30 18.677,01 30/06/2021
191 690000 ANA FLAVIA LURIAN DE PAIVA ASSESSOR PROCURADOR JUSTICA BELO HORIZONTE - COMARCA; GABINETE DE PROCURADOR DE JUSTIÇA - SALA 609 0,00 0,00 7.187,72 3.593,86 0,00 0,00 0,00 1.717,00 12.498,58 751,99 1.229,92 0,00 0,00 1.981,91 10.516,67 30/06/2021
192 402900 ANA FLAVIA PORTES DE CARVALHO ANALISTA DO MP BELO HORIZONTE - COMARCA; DIRET DE PLANOS PROJETOS E PROGRAMAS INST 14.324,23 2.864,85 0,00 8.594,54 0,00 0,00 0,00 1.717,00 27.500,62 2.562,53 3.100,80 0,00 0,00 5.663,33 21.837,29 30/06/2021
193 382700 ANA KARENINA SALDANHA GONTIJO ANALISTA DO MP BELO HORIZONTE - COMARCA; ASSESS TECNICO-JUR JUNTO AS PROC. DE JUST 13.872,60 2.774,52 0,00 8.323,56 0,00 0,00 0,00 2.486,39 27.457,07 2.475,82 3.027,75 0,00 0,00 5.503,57 21.953,50 30/06/2021
194 620500 ANA KARINE DE ANDRADE OLIVEIRA ANALISTA DO MP RIBEIRÃO DAS NEVES - COMARCA; RIBEIRAO NEVES-SEC PJ EXECUCAO PENAL 7.663,37 766,34 0,00 4.214,86 0,00 0,00 0,00 1.717,00 14.361,57 1.161,03 1.129,53 0,00 0,00 2.290,56 12.071,01 30/06/2021
195 462200 ANA LUCIA ANDRADE TOMICH OTTONI ANALISTA DO MP TEÓFILO OTONI - COMARCA; TEOFILO OTONI-PJ-07PJ 10.069,62 2.013,92 0,00 6.041,77 0,00 0,00 0,00 1.717,00 19.842,31 1.745,64 1.921,43 0,00 0,00 3.667,07 16.175,24 30/06/2021
196 504100 ANA LUCIA CATAO DE CARVALHO OFICIAL DO MP BELO HORIZONTE - COMARCA; BH-09PJ AUDITORIA MILITAR-SECRETARIA 7.663,37 766,34 0,00 4.214,86 0,00 0,00 0,00 1.717,00 14.361,57 1.161,03 1.077,39 0,00 0,00 2.238,42 12.123,15 30/06/2021
197 274700 ANA LUCIA DE ALENCAR BRAGATO OFICIAL DO MP UBERABA - COMARCA; UBERABA-PJ-07PJ 10.069,62 3.020,89 0,00 4.488,79 0,00 0,00 0,00 1.717,00 19.296,30 1.906,76 2.206,17 0,00 0,00 4.112,93 15.183,37 30/06/2021
198 509400 ANA LUCIA DORNELAS MALLOSTO ANALISTA DO MP JUIZ DE FORA - COMARCA; JUIZ DE FORA-PJ-25PJ 10.069,62 1.006,96 0,00 5.538,29 0,00 0,00 0,00 1.717,00 18.331,87 1.584,53 1.688,82 0,00 0,00 3.273,35 15.058,52 30/06/2021
199 302600 ANA LUCIA LOPES SANTOS OFICIAL DO MP BELO HORIZONTE - COMARCA; DIVISÃO DE FISCALIZAÇÃO DAS RELAÇÕES DE CONSU 10.069,62 3.020,89 0,00 7.267,89 0,00 0,00 1.445,27 1.717,00 23.520,67 1.906,76 2.551,48 0,00 0,00 4.458,24 19.062,43 30/06/2021
200 702000 ANA LUISA DE OLIVEIRA RIBEIRO ASSESSOR PROCURADOR JUSTICA BELO HORIZONTE - COMARCA; ASSESS TECNICO-JUR JUNTO AS PROC. DE JUST 0,00 0,00 7.187,72 2.395,91 0,00 0,00 0,00 1.717,00 11.300,63 751,99 1.229,92 0,00 0,00 1.981,91 9.318,72 30/06/2021
201 493400 ANA LUISA NOGUEIRA MOREIRA ANALISTA DO MP BELO HORIZONTE - COMARCA; BH-19PJ SAUDE-SECRETARIA 130PJ 10.069,62 1.006,96 0,00 5.538,29 0,00 0,00 0,00 1.717,00 18.331,87 1.584,53 1.740,95 0,00 0,00 3.325,48 15.006,39 30/06/2021
202 389300 ANA LUISA REUTER LIMA COORDENADOR/ANALISTA BELO HORIZONTE - COMARCA; DIRETORIA DE SISTEMAS DE INFORMACAO 11.819,15 2.363,83 2.687,03 8.435,01 0,00 0,00 0,00 1.717,00 27.022,02 2.081,55 3.197,47 0,00 0,00 5.279,02 21.743,00 30/06/2021
203 480600 ANA LUIZA FERNANDES FRAGA E GRECO COORDENADOR/OFICIAL BELO HORIZONTE - COMARCA; OUVIDORIA DO MPMG 0,00 2.363,83 11.819,15 7.091,49 0,00 0,00 0,00 1.717,00 22.991,47 1.237,26 2.690,71 0,00 0,00 3.927,97 19.063,50 30/06/2021
204 517800 ANA LUIZA MAGALHAES CIRINO PIOTO DE MELO OFICIAL DO MP BELO HORIZONTE - COMARCA; DIVISAO DE MANUTENCAO PREDIAL 5.387,19 538,72 0,00 0,00 0,00 0,00 0,00 3.231,13 9.157,04 762,96 550,45 0,00 0,00 1.313,41 7.843,63 30/06/2021
205 481400 ANA MARCIA CANDIDA FERREIRA OFICIAL DO MP BRUMADINHO - COMARCA; BRUMADINHO-PJ-02PJ 6.123,79 1.224,76 0,00 3.674,28 0,00 0,00 0,00 1.717,00 12.739,83 988,05 879,78 0,00 0,00 1.867,83 10.872,00 30/06/2021
206 643100 ANA MARIA LOPES MIRANDA ANALISTA DO MP BELO HORIZONTE - COMARCA; CAO-FUNDACOES 7.421,79 742,18 0,00 4.081,99 0,00 0,00 0,00 1.717,00 13.962,96 841,65 1.144,28 0,00 0,00 1.985,93 11.977,03 30/06/2021
207 556400 ANA MARIA OLIVEIRA SOUZA OFICIAL DO MP ITAPECERICA - COMARCA; ITAPECERICA-PJ-UNPJ 5.930,75 593,08 0,00 3.261,92 0,00 0,00 0,00 1.717,00 11.502,75 856,09 689,27 0,00 0,00 1.545,36 9.957,39 30/06/2021
208 409600 ANA OLIVIA FARIA ROSENBURG ANALISTA DO MP BELO HORIZONTE - COMARCA; DIRETORIA DO COLEGIO E DA CAMARA DE PJ 13.011,52 3.903,46 0,00 8.457,49 0,00 0,00 0,00 1.717,00 27.089,47 2.518,67 3.089,63 0,00 0,00 5.608,30 21.481,17 30/06/2021
209 461500 ANA PAULA ALVES CARVALHO ANALISTA DO MP UBERLÂNDIA - COMARCA; UBERLANDIA-PJ-25PJ 10.069,62 2.013,92 0,00 6.041,77 0,00 0,00 443,06 6.550,42 25.118,79 1.745,64 1.973,56 0,00 0,00 3.719,20 21.399,59 30/06/2021
210 523200 ANA PAULA ALVES DA SILVA OFICIAL DO MP GOVERNADOR VALADARES - COMARCA; GOVERNADOR VALADARES-PJ-10PJ 7.421,79 742,18 0,00 4.081,99 0,00 0,00 0,00 4.793,47 17.039,43 1.118,51 963,87 0,00 0,00 2.082,38 14.957,05 30/06/2021
211 381200 ANA PAULA BARROS PEREIRA RIGHI ANALISTA DO MP BELO HORIZONTE - COMARCA; PROC JUST ATUACAO TRIBUNAIS SUPERIORES-GAB003 14.324,23 2.864,85 0,00 8.594,54 0,00 0,00 0,00 2.486,39 28.270,01 2.562,53 3.100,80 0,00 0,00 5.663,33 22.606,68 30/06/2021
212 696400 ANA PAULA CARVALHO SILVA ASSESSOR PROMOTOR JUSTICA PERDÕES - COMARCA; PERDOES-PJ-UNPJ 0,00 0,00 7.187,72 3.593,86 0,00 0,00 0,00 1.717,00 12.498,58 751,99 1.229,92 0,00 0,00 1.981,91 10.516,67 30/06/2021
213 700900 ANA PAULA CRAVO SALOME ASSESSOR BELO HORIZONTE - COMARCA; PROCURADOR-GERAL DE JUSTIÇA 0,00 0,00 3.076,28 1.281,78 0,00 0,00 0,00 1.717,00 6.075,06 449,69 224,40 0,00 0,00 674,09 5.400,97 30/06/2021
214 227200 ANA PAULA DA SILVA CAMPOLINA ANALISTA DO MP BELO HORIZONTE - COMARCA; DIRETORIA DE ORCAMENTO-DIOR/SPC 18.820,14 9.410,07 0,00 14.115,11 0,00 0,00 0,00 1.717,00 44.062,32 4.329,11 5.703,44 0,00 0,00 10.032,55 34.029,77 30/06/2021
215 278500 ANA PAULA DIAS CAPANEMA OFICIAL DO MP BELO HORIZONTE - COMARCA; DIRETORIA DE SEGURANCA 10.069,62 3.020,89 0,00 6.545,26 0,00 0,00 0,00 1.717,00 21.352,77 1.906,76 2.206,17 0,00 0,00 4.112,93 17.239,84 30/06/2021
216 327300 ANA PAULA GARCIA MAXIMO OFICIAL DO MP UNAÍ - COMARCA; UNAI-PJ-01PJ 11.085,56 4.434,22 0,00 7.759,89 0,00 0,00 0,00 1.717,00 24.996,67 2.295,44 2.610,92 0,00 0,00 4.906,36 20.090,31 30/06/2021
217 270000 ANA PAULA GOULART CRUZ DE MAGALHAES ANALISTA DO MP BELO HORIZONTE - COMARCA; COMB CRIMES PRAT POR AG POL MUN-ASSESSORIA 13.872,60 4.161,78 0,00 9.017,19 0,00 0,00 0,00 1.717,00 28.768,57 2.697,78 3.348,21 0,00 0,00 6.045,99 22.722,58 30/06/2021
218 262100 ANA PAULA KOMATSUZAKI ABIJAUDI ANALISTA DO MP BELO HORIZONTE - COMARCA; BH-17PJ PATRIMONIO PUBLICO-SECRETARIA 18.103,37 7.241,35 0,00 12.672,36 0,00 0,00 0,00 1.717,00 39.734,08 3.867,43 4.932,62 0,00 0,00 8.800,05 30.934,03 30/06/2021
219 278900 ANA PAULA MOREIRA GURGEL COORDENADOR/ANALISTA BELO HORIZONTE - COMARCA; ASSESSORIA JURIDICO-ADMINISTRATIVA 18.820,14 7.528,06 3.482,78 14.915,49 0,00 0,00 2.689,39 1.717,00 49.152,86 4.027,99 6.966,04 0,00 0,00 10.994,03 38.158,83 30/06/2021
220 425701 ANA PAULA ROCHA ANALISTA DO MP BELO HORIZONTE - COMARCA; ASSESSORIA DE COMUNICACAO INTEGRADA 8.858,43 885,84 0,00 3.469,86 0,00 0,00 0,00 2.486,39 15.700,52 1.371,36 1.433,19 0,00 0,00 2.804,55 12.895,97 30/06/2021
221 692700 ANA PAULA RODRIGUES GOMES GONCALVES ASSESSOR PROCURADOR JUSTICA BELO HORIZONTE - COMARCA; GABINETE DE PROCURADOR DE JUSTIÇA - SALA 1012 0,00 0,00 7.187,72 3.593,86 0,00 0,00 0,00 2.486,39 13.267,97 751,99 1.177,78 0,00 0,00 1.929,77 11.338,20 30/06/2021
222 395601 ANA PAULA SALGE OLIVEIRA ANALISTA DO MP UBERABA - COMARCA; UBERABA-PJ-15PJ 10.069,62 3.020,89 0,00 6.545,26 0,00 0,00 0,00 1.717,00 21.352,77 1.906,76 2.206,17 0,00 0,00 4.112,93 17.239,84 30/06/2021
223 473200 ANA PAULA SCOTTON BRASIL ANALISTA DO MP JUIZ DE FORA - COMARCA; JUIZ DE FORA-PJ-07PJ 10.069,62 2.013,92 0,00 6.041,77 0,00 0,00 0,00 2.486,39 20.611,70 1.745,64 1.973,56 0,00 0,00 3.719,20 16.892,50 30/06/2021
224 633600 ANA PAULA SILVA FERNANDES OFICIAL DO MP CATAGUASES - COMARCA; CATAGUASES-PJ-04PJ 5.217,34 521,73 0,00 2.869,54 0,00 0,00 0,00 1.717,00 10.325,61 734,31 506,95 0,00 0,00 1.241,26 9.084,35 30/06/2021
225 470900 ANA PAULA VALADARES ANALISTA DO MP PITANGUI - COMARCA; PITANGUI-PJ-01PJ 10.069,62 2.013,92 0,00 4.234,30 0,00 0,00 0,00 1.717,00 18.034,84 1.745,64 1.869,29 0,00 0,00 3.614,93 14.419,91 30/06/2021
226 447000 ANA PAULA VALENTIM DE ARAUJO ANALISTA DO MP BELO HORIZONTE - COMARCA; COMB CRIMES PRAT POR AG POL MUN-ASSESSORIA 10.069,62 2.013,92 0,00 6.041,77 0,00 0,00 0,00 1.717,00 19.842,31 1.745,64 1.973,56 0,00 0,00 3.719,20 16.123,11 30/06/2021
227 604200 ANA PAULA VIANA E SILVA OFICIAL DO MP BELO HORIZONTE - COMARCA; BH-17PJ PATRIMONIO PUBLICO-SECRETARIA 5.930,75 593,08 0,00 2.489,23 0,00 0,00 0,00 1.717,00 10.730,06 856,09 689,27 0,00 0,00 1.545,36 9.184,70 30/06/2021
228 505400 ANA PAULA VIEIRA SOUTO OFICIAL DO MP ALMENARA - COMARCA; ALMENARA-PJ-01PJ 6.123,79 1.837,14 0,00 0,00 0,00 0,00 0,00 1.717,00 9.677,93 1.086,03 969,10 0,00 0,00 2.055,13 7.622,80 30/06/2021
229 280200 ANA RACHEL BRANDAO LADEIRA ROLAND DIRETOR/ANALISTA BELO HORIZONTE - COMARCA; SUPERINTENDENCIA DE RECURSOS HUMANOS 17.413,92 5.224,18 3.482,78 13.060,44 0,00 0,00 0,00 1.717,00 40.898,32 3.434,37 5.369,43 0,00 0,00 8.803,80 32.094,52 30/06/2021
230 691000 ANA RACHEL DOS REIS E SENA COSTA ASSESSOR PROMOTOR JUSTICA BELO HORIZONTE - COMARCA; GABINETE DE PROCURADOR DE JUSTIÇA - SALA 601 0,00 0,00 7.187,72 3.593,86 0,00 0,00 0,00 1.717,00 12.498,58 751,99 1.229,92 0,00 0,00 1.981,91 10.516,67 30/06/2021
231 601200 ANA REGINA RIBEIRO COORDENADOR/ANALISTA BELO HORIZONTE - COMARCA; DIV FISCAL ADM CONT TERCEIRIZACAO 0,00 1.181,92 11.819,15 6.500,54 0,00 0,00 0,00 1.717,00 21.218,61 1.422,14 2.314,85 0,00 0,00 3.736,99 17.481,62 30/06/2021
232 384700 ANA RODRIGUES PEREIRA MARRA ANALISTA DO MP COROMANDEL - COMARCA; COROMANDEL-PJ-UNPJ 10.069,62 2.013,92 0,00 6.041,77 0,00 0,00 0,00 2.486,39 20.611,70 1.745,64 1.869,29 0,00 0,00 3.614,93 16.996,77 30/06/2021
233 232700 ANA SILVIA SEMBLANO NAKAMURA ASSESSOR/OFICIAL BELO HORIZONTE - COMARCA; CENT DE APOIO TEC-SETOR DEF,IDOSO E INFANC 0,00 3.119,26 10.397,52 6.758,39 0,00 0,00 0,00 1.717,00 21.992,17 1.906,76 2.323,40 0,00 0,00 4.230,16 17.762,01 30/06/2021
234 602100 ANACLETO FRANCISCO MARCIER PIMENTA OFICIAL DO MP SÃO JOÃO DEL REI - COMARCA; SAO JOAO DEL REI-PJ-03PJ 5.387,19 538,72 0,00 2.962,96 0,00 0,00 0,00 1.717,00 10.605,87 762,96 312,25 0,00 0,00 1.075,21 9.530,66 30/06/2021
235 310400 ANADEJE DO CARMO DINIZ ARAUJO OFICIAL DO MP BELO HORIZONTE - COMARCA; DIRETORIA DE PESSOAL ADMINISTRATIVO - DPAD 10.069,62 3.020,89 0,00 6.545,26 0,00 0,00 0,00 1.717,00 21.352,77 1.906,76 2.206,17 0,00 0,00 4.112,93 17.239,84 30/06/2021
236 337000 ANAILDES MARIA MENDES OFICIAL DO MP JANAÚBA - COMARCA; JANAUBA-PJ-02PJ 9.444,70 2.833,41 0,00 6.139,06 0,00 0,00 0,00 2.486,39 20.903,56 1.776,77 2.018,51 0,00 0,00 3.795,28 17.108,28 30/06/2021
237 192900 ANATALIA CERQUEIRA LIMA PERES OFICIAL DO MP UBERABA - COMARCA; COORD REG SAUDE MACROR SANIT TRIANGULO SUL 11.085,56 4.434,22 0,00 7.759,89 0,00 0,00 0,00 1.717,00 24.996,67 2.295,44 2.767,33 0,00 0,00 5.062,77 19.933,90 30/06/2021
238 377400 ANDEIRSON DA MATTA BARBOSA ANALISTA DO MP POUSO ALEGRE - COMARCA; POUSO ALEGRE-PJ-01PJ 10.069,62 2.013,92 0,00 6.041,77 0,00 0,00 0,00 2.486,39 20.611,70 1.745,64 1.973,56 0,00 0,00 3.719,20 16.892,50 30/06/2021
239 317400 ANDERSON DA SILVA BICALHO OFICIAL DO MP CONTAGEM - COMARCA; CONTAGEM-PJ-SECRETARIA 9.146,93 2.744,08 0,00 4.201,75 0,00 0,00 0,00 1.717,00 17.809,76 1.714,84 1.772,68 0,00 0,00 3.487,52 14.322,24 30/06/2021
240 506900 ANDERSON DE SOUZA DAMIANI ANALISTA DO MP BELO HORIZONTE - COMARCA; DIRETORIA DE PAGAMENTO DE PESSOAL-DPAG 10.069,62 3.020,89 0,00 6.545,26 0,00 0,00 0,00 1.717,00 21.352,77 1.906,76 2.101,90 0,00 0,00 4.008,66 17.344,11 30/06/2021
241 410000 ANDERSON DE SOUZA NETO ASSESSOR BELO HORIZONTE - COMARCA; DIRETORIA DE ADMINISTRACAO FINANCEIRA 0,00 0,00 5.136,32 2.568,16 0,00 0,00 0,00 1.717,00 9.421,48 738,09 669,60 0,00 0,00 1.407,69 8.013,79 30/06/2021
242 181900 ANDERSON FLAVIO DE OLIVEIRA OFICIAL DO MP ITAGUARA - COMARCA; ITAGUARA-PJ-SECRETARIA 13.011,52 5.204,61 0,00 6.049,54 0,00 0,00 0,00 1.717,00 25.982,67 2.726,86 3.390,19 0,00 0,00 6.117,05 19.865,62 30/06/2021
243 333200 ANDERSON JOSE DE FREITAS OFICIAL DO MP IPATINGA - COMARCA; IPATINGA-PJ-04PJ 9.444,70 2.833,41 0,00 6.861,69 4.574,46 0,00 1.445,27 1.717,00 26.876,53 1.776,77 3.517,52 0,00 0,00 5.294,29 21.582,24 30/06/2021
244 699400 ANDERSON LUIZ CABRAL ASSESSOR PROMOTOR JUSTICA ALÉM PARAÍBA - COMARCA; ALEM PARAIBA-PJ-03PJ 0,00 0,00 7.187,72 2.767,62 0,00 0,00 0,00 1.717,00 11.672,34 751,99 1.229,92 0,00 0,00 1.981,91 9.690,43 30/06/2021
245 462100 ANDERSON LUIZ GUIMARAES CARDOSO ANALISTA DO MP BARBACENA - COMARCA; BARBACENA-PJ-02PJ 10.736,08 2.147,22 0,00 4.425,69 0,00 0,00 0,00 1.717,00 19.025,99 1.873,61 2.158,30 0,00 0,00 4.031,91 14.994,08 30/06/2021
246 429700 ANDERSON MELO DE SOUZA ASSESSOR/OFICIAL BELO HORIZONTE - COMARCA; DIRET DE ESTAGIOS E CONVENIOS ACADEMICOS 0,00 2.079,50 10.397,52 6.238,51 0,00 0,00 1.458,07 1.717,00 21.890,60 988,05 2.691,08 0,00 0,00 3.679,13 18.211,47 30/06/2021
247 545600 ANDERSON MENDES PROCOPIO FERREIRA ANALISTA DO MP BELO HORIZONTE - COMARCA; BH-12PJ JUIZO CRIMINAL-GAB 089PJ 9.146,93 914,69 0,00 5.030,81 0,00 0,00 0,00 1.717,00 16.809,43 1.422,14 1.506,50 0,00 0,00 2.928,64 13.880,79 30/06/2021
248 519900 ANDERSON MOREIRA DOEHLER ANALISTA DO MP TEÓFILO OTONI - COMARCA; COORD REG SAUDE MACRORREGIAO SANIT NORDESTE 10.069,62 3.020,89 0,00 6.545,26 0,00 0,00 0,00 1.717,00 21.352,77 1.906,76 2.206,17 0,00 0,00 4.112,93 17.239,84 30/06/2021
249 103000 ANDERSON TADEU DE DEUS ASSESSOR BELO HORIZONTE - COMARCA; BH-26 CRIME CONT CRIAN ADOL-SECRETARIA 0,00 2.153,40 3.076,28 2.614,84 -242,55 0,00 1.434,12 9.721,10 18.757,19 751,99 817,37 0,00 0,00 1.569,36 17.187,83 30/06/2021
250 309200 ANDITYAS SOARES DE MOURA COSTA MATOS ANALISTA DO MP BELO HORIZONTE - COMARCA; GABINETE DE PROCURADOR DE JUSTIÇA - SALA 909 14.790,66 4.437,20 0,00 9.613,93 0,00 0,00 0,00 1.717,00 30.558,79 2.888,73 3.623,90 0,00 0,00 6.512,63 24.046,16 30/06/2021
251 519200 ANDRE BORJA LANA ANALISTA DO MP BELO HORIZONTE - COMARCA; CENTRO JORNALISMO 10.069,62 1.006,96 0,00 5.538,29 0,00 0,00 1.480,83 1.717,00 19.812,70 1.584,53 2.148,18 0,00 0,00 3.732,71 16.079,99 30/06/2021
252 637200 ANDRE FERNANDES DA CUNHA OFICIAL DO MP MORADA NOVA DE MINAS - COMARCA; MORADA NOVA DE MINAS-PJ-UNPJ 5.217,34 521,73 0,00 2.248,90 0,00 0,00 0,00 1.717,00 9.704,97 734,31 506,95 0,00 0,00 1.241,26 8.463,71 30/06/2021
253 651500 ANDRE GONCALVES MARANHAO OFICIAL DO MP JACINTO - COMARCA; JACINTO-PJ-SECRETARIA 4.376,03 262,56 0,00 0,00 0,00 0,00 0,00 1.717,00 6.355,59 570,31 279,23 0,00 0,00 849,54 5.506,05 30/06/2021
254 521900 ANDRE LUIS GOMES SILVA ANALISTA DO MP FORMIGA - COMARCA; FORMIGA-PJ-02PJ 10.069,62 1.006,96 0,00 5.538,29 0,00 0,00 0,00 2.486,39 19.101,26 1.584,53 1.259,64 0,00 0,00 2.844,17 16.257,09 30/06/2021
255 304300 ANDRE LUIZ AVELAR ANALISTA DO MP BELO HORIZONTE - COMARCA; DIRETORIA DE REDES E BANCOS DE DADOS 8.436,53 2.530,96 0,00 3.868,40 0,00 0,00 0,00 1.717,00 16.552,89 1.567,08 1.663,62 0,00 0,00 3.230,70 13.322,19 30/06/2021
256 397400 ANDRE PATARO MYRRHA DE PAULA E SILVA ANALISTA DO MP BELO HORIZONTE - COMARCA; ASSESSORIA JURIDICO-ADMINISTRATIVA 14.324,23 2.864,85 0,00 8.594,54 0,00 0,00 0,00 2.486,39 28.270,01 2.562,53 3.152,94 0,00 0,00 5.715,47 22.554,54 30/06/2021
257 650100 ANDRE THOME VARGAS OFICIAL DO MP LEOPOLDINA - COMARCA; LEOPOLDINA-PJ-04PJ 4.817,57 289,05 0,00 2.049,09 0,00 0,00 0,00 1.717,00 8.872,71 639,44 368,99 0,00 0,00 1.008,43 7.864,28 30/06/2021
258 548500 ANDRE VINICIUS CARVALHO MEIRA ANALISTA DO MP JUIZ DE FORA - COMARCA; JUIZ DE FORA-PJ-24PJ 9.146,93 914,69 0,00 5.030,81 0,00 0,00 0,00 1.717,00 16.809,43 1.422,14 1.506,50 0,00 0,00 2.928,64 13.880,79 30/06/2021
259 297200 ANDRE WILLE ROSARIO ANALISTA DO MP BELO HORIZONTE - COMARCA; ASSESSORIA ESPECIAL DO PGJ 17.413,92 5.224,18 0,00 11.319,05 0,00 0,00 0,00 1.717,00 35.674,15 3.434,37 4.307,39 0,00 0,00 7.741,76 27.932,39 30/06/2021
260 423600 ANDREA COSTA GUALBERTO ALVES ANALISTA DO MP GOVERNADOR VALADARES - COMARCA; COORD REG PJ DEF EDU DIR CRIANCA ADOL RIODOCE 12.601,30 8.820,91 0,00 0,00 0,00 0,00 0,00 1.717,00 23.139,21 3.239,83 4.078,66 0,00 0,00 7.318,49 15.820,72 30/06/2021
261 198600 ANDREA CRISTINA ANDRADE COSTA E SOUZA OFICIAL DO MP MONTES CLAROS - COMARCA; MONTES CLAROS-PJ-15PJ 15.272,02 6.108,81 0,00 10.690,42 0,00 0,00 0,00 1.717,00 33.788,25 3.233,21 4.069,10 0,00 0,00 7.302,31 26.485,94 30/06/2021
262 467300 ANDREA DE CASSIA PENNA ALVERNAZ ANALISTA DO MP PONTE NOVA - COMARCA; PONTE NOVA-PJ-01PJ 10.069,62 2.013,92 0,00 6.041,77 0,00 0,00 0,00 1.717,00 19.842,31 1.745,64 1.921,43 0,00 0,00 3.667,07 16.175,24 30/06/2021
263 308000 ANDREA DE CASSIA SANTOS OLIVEIRA ANALISTA DO MP BELO HORIZONTE - COMARCA; COORD DE GABINETE DO PGJ 16.750,82 5.025,25 0,00 10.888,04 0,00 0,00 0,00 1.717,00 34.381,11 3.296,45 4.160,40 0,00 0,00 7.456,85 26.924,26 30/06/2021
264 349500 ANDREA DE OLIVEIRA LOIOLA REGIS OFICIAL DO MP IGUATAMA - COMARCA; IGUATAMA-PJ-UNPJ 9.752,14 1.950,43 0,00 5.851,29 0,00 0,00 0,00 1.717,00 19.270,86 1.684,69 1.833,42 0,00 0,00 3.518,11 15.752,75 30/06/2021
265 287900 ANDREA FERNANDES PENA MARTINS OFICIAL DO MP MONTES CLAROS - COMARCA; MONTES CLAROS-PJ-09PJ 10.069,62 3.020,89 0,00 6.545,26 0,00 0,00 0,00 1.717,00 21.352,77 1.906,76 2.101,90 0,00 0,00 4.008,66 17.344,11 30/06/2021
266 300800 ANDREA FERREIRA ANALISTA DO MP LAVRAS - COMARCA; LAVRAS-PJ-04PJ 15.272,02 4.581,61 0,00 0,00 0,00 0,00 0,00 1.717,00 21.570,63 2.988,86 3.768,45 0,00 0,00 6.757,31 14.813,32 30/06/2021
267 395100 ANDREA LANNA MENDES NOVAIS ANALISTA DO MP BELO HORIZONTE - COMARCA; PROMOT ESTADUAL DE DEF PATRI CULT E TUR DE MG 14.324,23 2.864,85 0,00 0,00 0,00 0,00 0,00 1.717,00 18.906,08 2.562,53 3.100,80 0,00 0,00 5.663,33 13.242,75 30/06/2021
268 67300 ANDREA LEAO MAGALHAES ROQUE ASSESSOR BELO HORIZONTE - COMARCA; COORD ESTADUAL COMBATE CRIMES CIBERNETICOS 0,00 7.278,26 10.397,52 8.837,89 0,00 0,00 0,00 1.717,00 28.230,67 751,99 4.062,00 0,00 0,00 4.813,99 23.416,68 30/06/2021
269 335700 ANDREA LOPES PEREIRA ANALISTA DO MP GOVERNADOR VALADARES - COMARCA; COORD REG DO MA DA BACIA DO RIO DOCE 16.750,82 5.025,25 0,00 10.888,04 0,00 0,00 0,00 1.717,00 34.381,11 3.296,45 4.212,54 0,00 0,00 7.508,99 26.872,12 30/06/2021
270 389200 ANDREA TUPINI DOS SANTOS TRISTAO DA ROCHA COORDENADOR/OFICIAL BELO HORIZONTE - COMARCA; BH-13ª PJ JUÍZO DE TÓXICOS-SECRETARIA 0,00 2.363,83 11.819,15 7.091,49 0,00 2.081,55 520,04 7.390,19 31.266,25 2.081,55 3.030,96 0,00 0,00 5.112,51 26.153,74 30/06/2021
271 419000 ANDREIA BARBOSA DE ALMEIDA ANALISTA DO MP BELO HORIZONTE - COMARCA; GABINETE DE PROCURADOR DE JUSTIÇA - SALA 705 12.601,30 2.520,26 0,00 7.560,78 0,00 0,00 0,00 1.717,00 24.399,34 2.231,73 2.675,34 0,00 0,00 4.907,07 19.492,27 30/06/2021
272 281501 ANDREIA CARLA COSTA ANALISTA DO MP UBÁ - COMARCA; UBA-PJ-02PJ 13.011,52 2.602,30 0,00 7.806,91 0,00 0,00 0,00 1.717,00 25.137,73 2.310,49 2.789,06 0,00 0,00 5.099,55 20.038,18 30/06/2021
273 477100 ANDREIA DE ALMEIDA RIBEIRO MELO OFICIAL DO MP CONTAGEM - COMARCA; CONTAGEM-PJ-SECRETARIA 7.663,37 1.532,67 0,00 4.598,02 0,00 0,00 0,00 1.717,00 15.511,06 1.283,64 1.306,55 0,00 0,00 2.590,19 12.920,87 30/06/2021
274 619000 ANDREIA FERREIRA NORONHA COORDENADOR/OFICIAL BELO HORIZONTE - COMARCA; DIRETORIA DE SERVICO CRIMINAL 0,00 1.343,52 13.435,16 7.389,34 0,00 0,00 0,00 1.717,00 23.885,02 762,96 2.984,96 0,00 0,00 3.747,92 20.137,10 30/06/2021
275 424000 ANDREIA LUCIA COUTO ANALISTA DO MP BELO HORIZONTE - COMARCA; BH-18PJ DIREITOS HUMANOS-SECRETARIA 13.011,52 2.602,30 0,00 7.806,91 0,00 0,00 0,00 1.717,00 25.137,73 2.310,49 2.789,06 0,00 0,00 5.099,55 20.038,18 30/06/2021
276 370100 ANDREIA MARIA SILVA PINTO OFICIAL DO MP CORONEL FABRICIANO - COMARCA; CORONEL FABRICIANO-PJ-01PJ 9.146,93 1.829,39 0,00 5.488,16 0,00 0,00 0,00 2.486,39 18.950,87 1.568,49 1.717,79 0,00 0,00 3.286,28 15.664,59 30/06/2021
277 382100 ANDREIA NATALI PEREIRA DE OLIVEIRA OFICIAL DO MP PRADOS - COMARCA; PRADOS-PJ-UNPJ 8.858,43 1.771,69 0,00 5.315,06 0,00 0,00 0,00 1.717,00 17.662,18 1.513,10 1.637,82 0,00 0,00 3.150,92 14.511,26 30/06/2021
278 275200 ANDREIA RIBEIRO FREITAS OFICIAL DO MP VIÇOSA - COMARCA; VICOSA-PJ-04PJ 10.069,62 3.020,89 0,00 6.545,26 0,00 0,00 0,00 1.717,00 21.352,77 1.906,76 2.154,03 0,00 0,00 4.060,79 17.291,98 30/06/2021
279 352200 ANDREIA XAVIER PEREIRA OFICIAL DO MP CLÁUDIO - COMARCA; CLAUDIO-PJ-UNPJ 9.752,14 1.950,43 0,00 4.066,16 0,00 0,00 0,00 1.717,00 17.485,73 1.684,69 1.885,56 0,00 0,00 3.570,25 13.915,48 30/06/2021
280 638500 ANDRESA ALVES FEITOSA CASAGRANDE ANALISTA DO MP LAVRAS - COMARCA; COORD REG DO MA DA BACIA DO RIO GRANDE 8.170,49 817,05 0,00 4.493,77 0,00 0,00 0,00 1.717,00 15.198,31 841,65 1.370,76 0,00 0,00 2.212,41 12.985,90 30/06/2021
281 383700 ANDRESSA EDUARDO SOUZA ANALISTA DO MP OURO BRANCO - COMARCA; OURO BRANCO-PJ-SECRETARIA 14.324,23 2.864,85 0,00 5.736,80 0,00 0,00 0,00 2.486,39 25.412,27 2.562,53 3.152,94 0,00 0,00 5.715,47 19.696,80 30/06/2021
282 678400 ANDRESSA LUIZA SILVA LOPES ASSESSOR PROMOTOR JUSTICA CARMO DO PARANAÍBA - COMARCA; CARMO DO PARANAIBA-PJ-02PJ 0,00 0,00 7.187,72 3.593,86 0,00 0,00 0,00 1.717,00 12.498,58 751,99 1.229,92 0,00 0,00 1.981,91 10.516,67 30/06/2021
283 426200 ANDRESSA MENDES CASAL OFICIAL DO MP BELO HORIZONTE - COMARCA; DIR ESTRUTURA E PROCESSOS ORGANIZACIONAIS 7.421,79 1.484,36 0,00 4.453,08 2.968,72 0,00 0,00 1.717,00 18.044,95 1.237,26 2.055,98 0,00 0,00 3.293,24 14.751,71 30/06/2021
284 390100 ANDRESSA RIBEIRO PUCCI OFICIAL DO MP UBERABA - COMARCA; UBERABA-PJ-14PJ 6.741,63 1.348,33 0,00 2.966,12 0,00 0,00 0,00 1.717,00 12.773,08 1.106,67 1.051,04 0,00 0,00 2.157,71 10.615,37 30/06/2021
285 462500 ANDREZA APARECIDA COSTA E SILVA ANALISTA DO MP CONSELHEIRO LAFAIETE - COMARCA; CONSELHEIRO LAFAIETE-PJ-02PJ 10.069,62 2.013,92 0,00 6.041,77 0,00 0,00 0,00 1.717,00 19.842,31 1.745,64 1.973,56 0,00 0,00 3.719,20 16.123,11 30/06/2021
286 677700 ANDREZA DE LOURDES FERREIRA DE PAIVA ASSESSOR PROMOTOR JUSTICA ABRE CAMPO - COMARCA; ABRE CAMPO-PJ-01PJ 0,00 0,00 7.187,72 0,00 0,00 0,00 0,00 1.717,00 8.904,72 751,99 1.229,92 0,00 0,00 1.981,91 6.922,81 30/06/2021
287 537800 ANDREZZA LUZIA DE OLIVEIRA ALVES ANALISTA DO MP PATOS DE MINAS - COMARCA; COORD REG PJ DEF EDU DIR CRI ADO AL PAR NOROE 9.146,93 914,69 0,00 5.030,81 0,00 0,00 0,00 1.717,00 16.809,43 1.422,14 1.454,36 0,00 0,00 2.876,50 13.932,93 30/06/2021
288 491600 ANE PATRICIA RIBEIRO DUARTE ANALISTA DO MP SETE LAGOAS - COMARCA; SETE LAGOAS-PJ-11PJ 10.069,62 1.006,96 0,00 3.901,61 0,00 0,00 0,00 1.717,00 16.695,19 1.584,53 1.688,82 0,00 0,00 3.273,35 13.421,84 30/06/2021
289 465800 ANELISE GAMA ASSESSOR BELO HORIZONTE - COMARCA; BH-18PJ VIOLENCIA DOMESTICA-SECRETARIA 0,00 0,00 8.170,49 3.123,88 0,00 0,00 0,00 1.717,00 13.011,37 751,99 1.500,18 0,00 0,00 2.252,17 10.759,20 30/06/2021
290 535200 ANELIZE FERNANDA ALVES VILARINHO OFICIAL DO MP CAPINÓPOLIS - COMARCA; CAPINOPOLIS-PJ-UNPJ 5.387,19 538,72 0,00 2.962,96 0,00 0,00 0,00 2.486,39 11.375,26 762,96 550,45 0,00 0,00 1.313,41 10.061,85 30/06/2021
291 197200 ANGELA COELHO SALDANHA OFICIAL DO MP PARÁ DE MINAS - COMARCA; PARA DE MINAS-PJ-03PJ 15.272,02 6.108,81 0,00 10.690,42 0,00 0,00 0,00 1.717,00 33.788,25 3.233,21 4.121,24 0,00 0,00 7.354,45 26.433,80 30/06/2021
292 307400 ANGELA CRISTINA GONCALVES MUNIZ ANALISTA DO MP UBERLÂNDIA - COMARCA; UBERLANDIA-PJ-SEC FAMILIA 17.413,92 6.965,57 0,00 12.189,75 0,00 0,00 0,00 1.717,00 38.286,24 3.713,00 4.761,79 0,00 0,00 8.474,79 29.811,45 30/06/2021
293 191800 ANGELA MARIA DE OLIVEIRA OFICIAL DO MP GUARANÉSIA - COMARCA; GUARANESIA-PJ-SECRETARIA 15.272,02 10.690,41 0,00 12.981,22 0,00 3.966,27 475,98 6.909,49 50.295,39 3.966,27 6.270,31 0,00 0,00 10.236,58 40.058,81 30/06/2021
294 497400 ANGELA MARIA HENRIQUES ANALISTA DO MP BELO HORIZONTE - COMARCA; COORD REG BACIAS RIO VELHAS E PARAOPEBA 10.069,62 1.006,96 0,00 5.538,29 0,00 0,00 0,00 1.717,00 18.331,87 1.584,53 1.740,95 0,00 0,00 3.325,48 15.006,39 30/06/2021
295 260700 ANGELICA CRISTINA AZEVEDO MOREIRA MOUCO OFICIAL DO MP UBÁ - COMARCA; UBA-PJ-05PJ 12.601,30 3.780,39 0,00 8.190,85 0,00 0,00 0,00 1.717,00 26.289,54 2.433,35 2.966,43 0,00 0,00 5.399,78 20.889,76 30/06/2021
296 334600 ANGELICA PANISSA DE FREITAS GALLATI OFICIAL DO MP GUAXUPÉ - COMARCA; GUAXUPE-PJ-02PJ 10.069,62 3.020,89 0,00 6.545,26 0,00 0,00 0,00 2.504,39 22.140,16 1.906,76 2.154,03 0,00 0,00 4.060,79 18.079,37 30/06/2021
297 521100 ANGELICA SALES MOREIRA OFICIAL DO MP BELO HORIZONTE - COMARCA; BH-02PJ FAMILIA-SECRETARIA 7.421,79 742,18 0,00 4.081,99 0,00 0,00 0,00 1.717,00 13.962,96 1.118,51 1.068,14 0,00 0,00 2.186,65 11.776,31 30/06/2021
298 466500 ANGELLO MARQUES AGRELLI ANALISTA DO MP MAR DE ESPANHA - COMARCA; MAR DE ESPANHA-PJ-UNPJ 10.069,62 2.013,92 0,00 6.041,77 0,00 0,00 0,00 1.717,00 19.842,31 1.745,64 1.973,56 0,00 0,00 3.719,20 16.123,11 30/06/2021
299 363300 ANGELO VERDOLIN HENRIQUES ANALISTA DO MP SETE LAGOAS - COMARCA; SETE LAGOAS-PJ-04PJ 15.272,02 6.108,81 0,00 7.013,19 0,00 0,00 0,00 2.486,39 30.880,41 3.233,21 4.121,24 0,00 0,00 7.354,45 23.525,96 30/06/2021
300 250900 ANISIO APARECIDO SANTOS OFICIAL DO MP MARIANA - COMARCA; MARIANA-PJ-02PJ 6.123,79 2.449,52 0,00 4.286,66 0,00 0,00 0,00 1.717,00 14.576,97 1.184,01 536,13 0,00 0,00 1.720,14 12.856,83 30/06/2021
301 651200 ANITA MARIA SANT ANA DE MATTOS FONTES OFICIAL DO MP ERVÁLIA - COMARCA; ERVALIA-PJ-UNPJ 4.817,57 3.372,30 0,00 0,00 0,00 0,00 0,00 1.717,00 9.906,87 1.122,66 1.021,99 0,00 0,00 2.144,65 7.762,22 30/06/2021
302 698100 ANNA CAROLINA POLICARIO BERTOLIN ASSESSOR PROCURADOR JUSTICA BELO HORIZONTE - COMARCA; PROC. JUSTICA DIR. DIFUSOS E COLETIVOS-SEC 0,00 0,00 7.187,72 3.593,86 0,00 0,00 0,00 1.717,00 12.498,58 751,99 1.229,92 0,00 0,00 1.981,91 10.516,67 30/06/2021
303 253400 ANNA FLAVIA LEHMAN BATTAGLIA DIRETOR/ANALISTA BELO HORIZONTE - COMARCA; SUPRIN DE PLANEJAMENTO E COORDENACAO 18.103,37 5.431,01 3.482,78 13.508,58 0,00 0,00 1.215,84 1.717,00 43.458,58 3.772,31 5.700,92 0,00 0,00 9.473,23 33.985,35 30/06/2021
304 688800 ANNA LUIZA MATTOS DUARTE ASSESSOR PROCURADOR JUSTICA BELO HORIZONTE - COMARCA; GABINETE DE PROCURADOR DE JUSTIÇA - SALA 305 0,00 0,00 7.187,72 3.593,86 0,00 0,00 0,00 1.717,00 12.498,58 751,99 1.229,92 0,00 0,00 1.981,91 10.516,67 30/06/2021
305 447600 ANNGELUCE ALCANTARA DE CAMPOS OFICIAL DO MP DIVINÓPOLIS - COMARCA; DIVINOPOLIS-PJ-SECRETARIA 7.421,79 1.484,36 0,00 4.453,08 0,00 0,00 0,00 1.717,00 15.076,23 1.237,26 1.239,58 0,00 0,00 2.476,84 12.599,39 30/06/2021
306 119600 ANSELMO BORGES PARREIRAS OFICIAL DO MP BONFIM - COMARCA; BONFIM-PJ-UNPJ 7.912,85 6.330,29 0,00 7.121,57 0,00 2.091,18 0,00 1.717,00 25.172,89 2.091,18 2.995,37 0,00 0,00 5.086,55 20.086,34 30/06/2021
307 630300 ANTONIA GOMES RAMALHO OFICIAL DO MP NOVO CRUZEIRO - COMARCA; NOVO CRUZEIRO-PJ-UNPJ 5.387,19 538,72 0,00 0,00 0,00 0,00 0,00 3.255,78 9.181,69 762,96 550,45 0,00 0,00 1.313,41 7.868,28 30/06/2021
308 332400 ANTONIA MARIA MAMEDE OFICIAL DO MP UBERLÂNDIA - COMARCA; COORD REG PP TRIANGULO MINEIRO UBERLANDIA 9.752,14 2.925,64 0,00 5.030,37 0,00 1.840,72 0,00 1.717,00 21.265,87 1.840,72 2.617,03 0,00 0,00 4.457,75 16.808,12 30/06/2021
309 401600 ANTONIO CARLOS GUEDES AROUCA ANALISTA DO MP BELO HORIZONTE - COMARCA; CAO-IDOSOS E PESSOAS COM DEFICIENCIA 11.819,15 2.363,83 0,00 7.091,49 0,00 0,00 0,00 1.717,00 22.991,47 2.081,55 2.458,53 0,00 0,00 4.540,08 18.451,39 30/06/2021
310 333900 ANTONIO GONCALVES DE SOUZA FILHO OFICIAL DO MP BELO HORIZONTE - COMARCA; DIRETORIA DE CONTABILIDADE 9.752,14 2.925,64 0,00 6.338,89 0,00 0,00 0,00 1.717,00 20.733,67 1.840,72 2.110,83 0,00 0,00 3.951,55 16.782,12 30/06/2021
311 176100 ANTONIO MARCELO CAMPOS CAMPANELLA OFICIAL DO MP BELO HORIZONTE - COMARCA; COORD DE GABINETE DO PGJ 15.272,02 7.636,01 0,00 11.454,02 0,00 0,00 503,98 7.214,93 42.080,96 3.477,56 4.474,02 0,00 0,00 7.951,58 34.129,38 30/06/2021
312 321001 ANTONIO OLINTO VIEIRA MACHADO ANALISTA DO MP BELO HORIZONTE - COMARCA; CENTRAL DE APOIO TECN-SETOR DE MEIO AMBIENTE 14.324,23 2.864,85 0,00 8.594,54 0,00 0,00 0,00 1.717,00 27.500,62 2.562,53 3.048,67 0,00 0,00 5.611,20 21.889,42 30/06/2021
313 356200 ANTONIO PAULA DA SILVA OFICIAL DO MP JUIZ DE FORA - COMARCA; JUIZ DE FORA-PJ-20PJ 8.579,10 2.573,73 0,00 5.576,42 0,00 0,00 0,00 1.717,00 18.446,25 1.596,73 1.758,57 0,00 0,00 3.355,30 15.090,95 30/06/2021
314 119900 ANTONIO RODRIGUES DE PINHO OFICIAL DO MP GUANHÃES - COMARCA; GUANHAES-PJ-01PJ 14.790,66 10.353,46 0,00 0,00 0,00 0,00 0,00 2.486,39 27.630,51 3.835,34 4.886,28 0,00 0,00 8.721,62 18.908,89 30/06/2021
315 373300 ANTONIO SERGIO ANANIAS OFICIAL DO MP AIURUOCA - COMARCA; AIURUOCA-PJ-UNPJ 8.579,10 1.715,82 0,00 5.147,46 3.431,64 0,00 0,00 1.717,00 20.591,02 1.459,46 2.451,96 0,00 0,00 3.911,42 16.679,60 30/06/2021
316 608100 ANTONIO SIDINEY VIEIRA LEMOS ANALISTA DO MP PIRAPORA - COMARCA; PIRAPORA-PJ-01PJ 8.436,53 3.374,61 0,00 5.905,57 0,00 0,00 0,00 1.717,00 19.433,71 1.702,06 1.910,64 0,00 0,00 3.612,70 15.821,01 30/06/2021
317 374700 ANTONIO SILVA NETO OFICIAL DO MP BELO HORIZONTE - COMARCA; GAECO - SECRETARIA 8.858,43 1.771,69 0,00 5.315,06 0,00 0,00 0,00 1.717,00 17.662,18 1.513,10 1.637,82 0,00 0,00 3.150,92 14.511,26 30/06/2021
318 636700 ANTONIUS VITORIANO FERNANDES OFICIAL DO MP BELO HORIZONTE - COMARCA; ASSESSORIA JURIDICA DO PROCON-MG 4.817,57 481,76 0,00 0,00 0,00 0,00 0,00 1.717,00 7.016,33 668,35 405,84 0,00 0,00 1.074,19 5.942,14 30/06/2021
319 413200 ANY PEREIRA SILVA ANALISTA DO MP TRÊS PONTAS - COMARCA; TRES PONTAS-PJ-01PJ 12.601,30 2.520,26 0,00 7.560,78 0,00 0,00 0,00 1.717,00 24.399,34 2.231,73 2.675,34 0,00 0,00 4.907,07 19.492,27 30/06/2021
320 151401 APARECIDA DE FATIMA MENDES DE ALMEIDA ASSESSOR JUIZ DE FORA - COMARCA; JUIZ DE FORA-PJ-SECRETARIA 0,00 0,00 5.136,32 2.568,16 0,00 0,00 0,00 1.717,00 9.421,48 738,09 669,60 0,00 0,00 1.407,69 8.013,79 30/06/2021
321 329300 APARECIDA MARIA MELO DE ASSIS OFICIAL DO MP BELO HORIZONTE - COMARCA; BH-18PJ DIREITOS HUMANOS-SECRETARIA 10.069,62 3.020,89 0,00 6.545,26 0,00 0,00 0,00 1.717,00 21.352,77 1.906,76 2.206,17 0,00 0,00 4.112,93 17.239,84 30/06/2021
322 475300 APARECIDA MARLENE FREIRE ROSA ANALISTA DO MP BELO HORIZONTE - COMARCA; BH-02PJ FAMILIA-SECRETARIA 12.204,02 10.983,62 0,00 11.593,82 0,00 3.522,30 0,00 1.717,00 40.020,76 3.522,30 5.507,24 0,00 0,00 9.029,54 30.991,22 30/06/2021
323 653000 APARECIDA ROSA DE LIMA ASSESSOR BELO HORIZONTE - COMARCA; SECRETARIA PROCESSOS DISCIPES ADMINISTRATIVOS 0,00 0,00 8.170,49 4.085,25 0,00 0,00 0,00 1.717,00 13.972,74 751,99 1.500,18 0,00 0,00 2.252,17 11.720,57 30/06/2021
324 354500 APARECIDA VIEIRA DE CARVALHO OFICIAL DO MP BELO HORIZONTE - COMARCA; DIVISÃO DE EDUCAÇÃO PARA O CONSUMO 7.663,37 1.532,67 0,00 4.598,02 0,00 0,00 0,00 1.717,00 15.511,06 1.283,64 1.306,55 0,00 0,00 2.590,19 12.920,87 30/06/2021
325 551000 ARACELES BICALHO FELIX ANALISTA DO MP MANHUAÇU - COMARCA; MANHUACU-PJ-02PJ 9.146,93 914,69 0,00 5.030,81 0,00 0,00 0,00 1.717,00 16.809,43 1.422,14 1.506,50 0,00 0,00 2.928,64 13.880,79 30/06/2021
326 286200 ARACELI MEDRADO DOS SANTOS LIMA OFICIAL DO MP PARACATU - COMARCA; PARACATU-PJ-03PJ 6.123,79 1.837,14 0,00 3.980,47 0,00 0,00 0,00 1.717,00 13.658,40 1.086,03 1.021,24 0,00 0,00 2.107,27 11.551,13 30/06/2021
327 112200 ARAQUEM AUGUSTO DE MATOS AGENTE DO MP BELO HORIZONTE - COMARCA; BH-23PJ CIVEL-SEC EXP CIVEIS 8.858,43 7.086,74 0,00 7.972,59 0,00 2.363,50 0,00 1.717,00 27.998,26 2.363,50 3.359,15 0,00 0,00 5.722,65 22.275,61 30/06/2021
328 280600 ARDUINO FRATTEZI ANALISTA DO MP BELO HORIZONTE - COMARCA; CENTRAL DE APOIO TECNICO-SETOR CONTABIL 17.413,92 5.224,18 0,00 11.319,05 0,00 0,00 0,00 1.717,00 35.674,15 3.434,37 4.411,67 0,00 0,00 7.846,04 27.828,11 30/06/2021
329 520201 ARIANE DE FATIMA CARVALHO ALMEIDA RODRIGUES ANALISTA DO MP VESPASIANO - COMARCA; VESPASIANO-PJ-04PJ 8.436,53 843,65 0,00 3.406,74 0,00 0,00 0,00 2.486,39 15.173,31 1.297,11 1.169,57 0,00 0,00 2.466,68 12.706,63 30/06/2021
330 537600 ARIELA FREIRE MONTIJO ANALISTA DO MP ARCOS - COMARCA; ARCOS-PJ-01PJ 9.146,93 914,69 0,00 5.030,81 0,00 0,00 0,00 2.486,39 17.578,82 1.422,14 1.402,22 0,00 0,00 2.824,36 14.754,46 30/06/2021
331 182000 ARILSON ALEXANDRE MARTINS MAGALHAES OFICIAL DO MP JOÃO MONLEVADE - COMARCA; JOAO MONLEVADE-PJ-01PJ 14.790,66 7.395,33 0,00 11.093,00 0,00 0,00 0,00 3.255,78 36.534,77 3.362,04 4.098,68 0,00 0,00 7.460,72 29.074,05 30/06/2021
332 511000 ARISLANE CAROLINA DA SILVA ANALISTA DO MP CAMPINA VERDE - COMARCA; CAMPINA VERDE-PJ-UNPJ 10.069,62 1.006,96 0,00 5.538,29 0,00 0,00 0,00 3.255,78 19.870,65 1.584,53 1.740,95 0,00 0,00 3.325,48 16.545,17 30/06/2021
333 170000 ARLEY BRITES DA SILVA ASSESSOR BELO HORIZONTE - COMARCA; BH-14PJ DEFESA CONSUMIDOR-SECRETARIA 0,00 2.054,53 5.136,32 3.595,43 0,00 0,00 0,00 1.717,00 12.503,28 751,99 604,62 0,00 0,00 1.356,61 11.146,67 30/06/2021
334 120400 ARLINDO CASSIO DA CRUZ OFICIAL DO MP SÃO GONÇALO DO SAPUCAÍ - COMARCA; SAO GONCALO DO SAPUCAI-PJ-01PJ 18.820,14 15.056,11 0,00 16.938,13 0,00 5.232,48 0,00 1.717,00 57.763,86 5.232,48 8.342,33 0,00 0,00 13.574,81 44.189,05 30/06/2021
335 243700 ARLINDO MARCIO LACERDA OFICIAL DO MP CONTAGEM - COMARCA; CONTAGEM-PJ-SECRETARIA 12.601,30 5.040,52 0,00 9.543,55 6.362,36 0,00 1.445,27 1.717,00 36.710,00 2.634,97 5.404,62 0,00 0,00 8.039,59 28.670,41 30/06/2021
336 392100 ARNALDO DE ANDRADE OFICIAL DO MP DIVINÓPOLIS - COMARCA; DIVINOPOLIS-PJ-02PJ 8.858,43 1.771,69 0,00 6.037,70 0,00 0,00 1.445,27 2.486,39 20.599,48 1.513,10 1.983,13 0,00 0,00 3.496,23 17.103,25 30/06/2021
337 642400 ARTANE INARDE DE SIQUEIRA DAMASCENO ANALISTA DO MP BELO HORIZONTE - COMARCA; PROC JUST ATUACAO TRIBUNAIS SUPERIORES-GAB005 8.170,49 490,23 0,00 4.330,36 0,00 0,00 0,00 1.717,00 14.708,08 841,65 1.280,88 0,00 0,00 2.122,53 12.585,55 30/06/2021
338 302100 AUGUSTO ROUSSEAU DE CASTRO ANALISTA DO MP CATAGUASES - COMARCA; CATAGUASES-PJ-02PJ 18.820,14 5.646,04 0,00 12.233,09 0,00 0,00 0,00 1.717,00 38.416,27 3.726,87 4.833,95 0,00 0,00 8.560,82 29.855,45 30/06/2021
339 540200 AUREA AVELAR BITTENCOURT OFICIAL DO MP BELO HORIZONTE - COMARCA; GRUPO ESP PROM JUST DEF PROB ADM PAT PUB 5.387,19 538,72 0,00 2.962,96 0,00 0,00 0,00 1.717,00 10.605,87 762,96 446,18 0,00 0,00 1.209,14 9.396,73 30/06/2021
340 633501 AUREA GONTIJO BIRCHAL ASSESSOR BELO HORIZONTE - COMARCA; PROCURADOR-GERAL DE JUSTIÇA 0,00 0,00 8.170,49 2.042,62 0,00 0,00 0,00 1.717,00 11.930,11 751,99 1.500,18 0,00 0,00 2.252,17 9.677,94 30/06/2021
341 183200 AURELIANO MAGELA DE REZENDE COORDENADOR/OFICIAL BELO HORIZONTE - COMARCA; COORD DE GABINETE DO PGJ 15.499,20 6.199,68 2.687,03 12.192,96 0,00 0,00 0,00 1.717,00 38.295,87 3.284,10 4.933,64 0,00 0,00 8.217,74 30.078,13 30/06/2021
342 629400 AYESKA DA COSTA VAL MOURA DABIEN OFICIAL DO MP BELO HORIZONTE - COMARCA; BH-09PJ AUDITORIA MILITAR-SECRETARIA 5.387,19 538,72 0,00 2.962,96 0,00 0,00 0,00 1.717,00 10.605,87 762,96 550,45 0,00 0,00 1.313,41 9.292,46 30/06/2021
343 701600 BARBARA CHAVES OLIVEIRA ASSESSOR PROCURADOR JUSTICA BELO HORIZONTE - COMARCA; PROC. JUSTICA DIR. DIFUSOS E COLETIVOS-SEC 0,00 0,00 7.187,72 2.994,88 0,00 0,00 0,00 1.717,00 11.899,60 751,99 1.229,92 0,00 0,00 1.981,91 9.917,69 30/06/2021
344 691900 BARBARA COUTINHO REIS ASSESSOR PROCURADOR JUSTICA BELO HORIZONTE - COMARCA; GABINETE DE PROCURADOR DE JUSTIÇA - SALA 912 0,00 0,00 7.187,72 3.593,86 0,00 0,00 0,00 1.717,00 12.498,58 751,99 1.229,92 0,00 0,00 1.981,91 10.516,67 30/06/2021
345 692200 BARBARA CRISTINA MENDES BANDEIRA DE MELO DUTRA ASSESSOR PROCURADOR JUSTICA BELO HORIZONTE - COMARCA; GABINETE DE PROCURADOR DE JUSTIÇA - SALA 1009 0,00 0,00 7.187,72 3.593,86 0,00 0,00 0,00 1.717,00 12.498,58 751,99 1.229,92 0,00 0,00 1.981,91 10.516,67 30/06/2021
346 652800 BARBARA JULIANNE MOREIRA CASTRO ASSESSOR PROCURADOR JUSTICA BELO HORIZONTE - COMARCA; ASSESS TECNICO-JUR JUNTO AS PROC. DE JUST 0,00 0,00 7.187,72 3.716,71 0,00 0,00 0,00 1.717,00 12.621,43 751,99 1.229,92 0,00 0,00 1.981,91 10.639,52 30/06/2021
347 663600 BARBARA REGINA PEREIRA DE PINHO MAGALHAES ASSESSOR PROMOTOR JUSTICA BELO HORIZONTE - COMARCA; CAO-DH CONT EXT ATIV POLIC E AP COMUNIT-REC 0,00 0,00 7.023,92 0,00 4.539,16 0,00 0,00 20.236,77 31.799,85 751,99 2.433,14 0,00 0,00 3.185,13 28.614,72 30/06/2021
348 692400 BARBARA SOUZA OLIVEIRA ASSESSOR PROMOTOR JUSTICA DIVINO - COMARCA; DIVINO-PJ-UNPJ 0,00 0,00 7.187,72 3.593,86 0,00 0,00 0,00 1.717,00 12.498,58 751,99 1.229,92 0,00 0,00 1.981,91 10.516,67 30/06/2021
349 546500 BARBARA ZACARONI GOULART OFICIAL DO MP BETIM - COMARCA; BETIM-PJ-08PJ 5.387,19 538,72 0,00 2.306,25 0,00 0,00 0,00 1.717,00 9.949,16 762,96 550,45 0,00 0,00 1.313,41 8.635,75 30/06/2021
350 316500 BEATRIZ ABILVIA DA SILVA ANALISTA DO MP GOVERNADOR VALADARES - COMARCA; GOVERNADOR VALADARES-PJ-07PJ 16.750,82 5.025,25 0,00 10.888,04 0,00 0,00 0,00 1.717,00 34.381,11 3.296,45 4.212,54 0,00 0,00 7.508,99 26.872,12 30/06/2021
351 311800 BEATRIZ APARECIDA SOARES GANEM OFICIAL DO MP ITAMBACURI - COMARCA; ITAMBACURI-PJ-02PJ 10.069,62 3.020,89 0,00 6.545,26 0,00 0,00 0,00 1.717,00 21.352,77 1.906,76 2.049,76 0,00 0,00 3.956,52 17.396,25 30/06/2021
352 266800 BEATRIZ AUGUSTA VILACA GOMES DE HUBER OFICIAL DO MP BELO HORIZONTE - COMARCA; BH-05PJ-JUÍZO SUCESSÕES-SEC 9.146,93 2.744,08 0,00 0,00 0,00 0,00 0,00 1.717,00 13.608,01 1.714,84 1.929,09 0,00 0,00 3.643,93 9.964,08 30/06/2021
353 235200 BEATRIZ BOTELHO BATISTA OFICIAL DO MP BELO HORIZONTE - COMARCA; BH-21PJ TUTELA FUNDACOES-SECRETARIA 10.069,62 4.027,85 0,00 7.048,74 0,00 0,00 0,00 1.717,00 22.863,21 2.067,87 2.438,78 0,00 0,00 4.506,65 18.356,56 30/06/2021
354 182300 BEATRIZ PAULA SOUSA RAMOS OFICIAL DO MP MARIANA - COMARCA; MARIANA-PJ-01PJ 14.790,66 7.395,33 0,00 0,00 0,00 0,00 0,00 1.717,00 23.902,99 3.362,04 4.255,09 0,00 0,00 7.617,13 16.285,86 30/06/2021
355 507000 BELCHIOR FRANKLIN AMARAL LEITE ANALISTA DO MP BELO HORIZONTE - COMARCA; CENTRAL DE APOIO TECNICO 10.069,62 1.006,96 0,00 3.953,75 0,00 0,00 0,00 2.486,39 17.516,72 1.584,53 1.584,54 0,00 0,00 3.169,07 14.347,65 30/06/2021
356 345100 BENITO ELIAS RODRIGUES ANALISTA DO MP BARBACENA - COMARCA; BARBACENA - SECRETARIA DAS PJS CRIMINAIS 15.272,02 4.581,61 0,00 9.926,82 0,00 0,00 0,00 1.717,00 31.497,45 2.988,86 3.768,45 0,00 0,00 6.757,31 24.740,14 30/06/2021
357 207300 BENITO VIEIRA DOS SANTOS ANALISTA DO MP BELO HORIZONTE - COMARCA; COMB CRIMES PRAT POR AG POL MUN-ASSESSORIA 18.820,14 7.528,06 0,00 13.174,10 0,00 4.027,99 0,00 1.717,00 45.267,29 4.027,99 5.167,94 0,00 0,00 9.195,93 36.071,36 30/06/2021
358 480200 BERNADETE NUNES DOS SANTOS ANALISTA DO MP GUANHÃES - COMARCA; GUANHAES-PJ-02PJ 10.069,62 3.020,89 0,00 4.488,79 0,00 0,00 0,00 1.717,00 19.296,30 1.906,76 2.206,17 0,00 0,00 4.112,93 15.183,37 30/06/2021
359 378400 BETANIA FARNESI DE SOUZA E SILVA OFICIAL DO MP CURVELO - COMARCA; CURVELO-PJ-01PJ 8.858,43 3.543,37 0,00 6.200,90 0,00 0,00 0,00 1.717,00 20.319,70 1.796,57 1.994,94 0,00 0,00 3.791,51 16.528,19 30/06/2021
360 387400 BETANIA MENDONCA DE ASSIS CARVALHO ANALISTA DO MP JUIZ DE FORA - COMARCA; JUIZ DE FORA-PJ-03PJ 14.324,23 2.864,85 0,00 8.594,54 0,00 0,00 0,00 1.717,00 27.500,62 2.562,53 3.100,80 0,00 0,00 5.663,33 21.837,29 30/06/2021
361 450300 BIANCA OLIVEIRA DE ALBUQUERQUE ANALISTA DO MP BELO HORIZONTE - COMARCA; BH-10PJ EXECUÇÃO PENAL-SECRETARIA 10.069,62 2.013,92 0,00 6.041,77 0,00 0,00 0,00 1.717,00 19.842,31 1.745,64 1.973,56 0,00 0,00 3.719,20 16.123,11 30/06/2021
362 535400 BIANCA SALOTO ROSSI ANALISTA DO MP SANTOS DUMONT - COMARCA; SANTOS DUMONT-PJ-01PJ 9.146,93 914,69 0,00 5.030,81 0,00 0,00 0,00 2.486,39 17.578,82 1.422,14 1.506,50 0,00 0,00 2.928,64 14.650,18 30/06/2021
363 120800 BRAS MARQUES DE SOUZA ANALISTA DO MP BELO HORIZONTE - COMARCA; SUPERINTENDENCIA DE GESTAO ADMINISTRATIVA 23.757,25 19.005,81 0,00 17.731,11 0,00 5.486,23 520,11 7.390,96 73.891,47 5.486,23 8.778,48 7.300,84 0,00 21.565,55 52.325,92 30/06/2021
364 460900 BRENO CRISTIANO DE SOUZA REZENDE ANALISTA DO MP ITAÚNA - COMARCA; ITAUNA-PJ-02PJ 9.752,14 1.950,43 0,00 5.851,29 0,00 0,00 0,00 1.717,00 19.270,86 1.684,69 1.885,56 0,00 0,00 3.570,25 15.700,61 30/06/2021
365 239000 BRENO VENANCIO ROMANINI OFICIAL DO MP BELO HORIZONTE - COMARCA; BH-20PJ ORD ECON TRIBUTARIA-SECRETARIA 10.069,62 3.020,89 0,00 0,00 0,00 0,00 0,00 1.717,00 14.807,51 1.906,76 2.206,17 0,00 0,00 4.112,93 10.694,58 30/06/2021
366 202201 BRIGITTE AMARALINA DE CALDAS LIMA OFICIAL DO MP NANUQUE - COMARCA; NANUQUE-PJ-03PJ 10.069,62 4.027,85 0,00 7.048,74 0,00 0,00 0,00 1.717,00 22.863,21 2.067,87 2.178,09 0,00 0,00 4.245,96 18.617,25 30/06/2021
367 642300 BRUNA IZABELITA DE FATIMA OLIVEIRA COSTA OFICIAL DO MP BELO HORIZONTE - COMARCA; BH-02PJ FAMILIA-SECRETARIA 5.217,34 521,73 0,00 0,00 0,00 0,00 0,00 1.717,00 7.456,07 734,31 506,95 0,00 0,00 1.241,26 6.214,81 30/06/2021
368 513600 BRUNA KARLA MARTINS CARVALHO ANALISTA DO MP GOVERNADOR VALADARES - COMARCA; GOVERNADOR VALADARES-PJ-14PJ 10.069,62 1.006,96 0,00 5.538,29 0,00 0,00 0,00 1.717,00 18.331,87 1.584,53 1.740,95 0,00 0,00 3.325,48 15.006,39 30/06/2021
369 415100 BRUNA MARIA SOARES OLIVEIRA COSTA RAMOS ANALISTA DO MP UBÁ - COMARCA; COORD REG BACIA DO RIO PARAIBA DO SUL 13.011,52 2.602,30 0,00 5.257,13 0,00 0,00 0,00 1.717,00 22.587,95 2.310,49 2.789,06 0,00 0,00 5.099,55 17.488,40 30/06/2021
370 692900 BRUNA MENDES COELHO ASSESSOR PROCURADOR JUSTICA BELO HORIZONTE - COMARCA; GABINETE DE PROCURADOR DE JUSTIÇA - SALA 801 0,00 0,00 7.187,72 2.767,62 0,00 0,00 0,00 1.717,00 11.672,34 751,99 1.229,92 0,00 0,00 1.981,91 9.690,43 30/06/2021
371 470000 BRUNA MORAES ANALISTA DO MP TOMBOS - COMARCA; TOMBOS-PJ-UNPJ 12.204,02 2.440,80 0,00 7.322,41 0,00 0,00 0,00 1.717,00 23.684,23 2.155,45 2.408,81 0,00 0,00 4.564,26 19.119,97 30/06/2021
372 614700 BRUNA NATTANY DE LIMA OFICIAL DO MP MANTENA - COMARCA; MANTENA-PJ-01PJ 5.387,19 538,72 0,00 2.962,96 0,00 0,00 0,00 1.717,00 10.605,87 762,96 550,45 0,00 0,00 1.313,41 9.292,46 30/06/2021
373 693300 BRUNA RAMONY ROCHA DA CRUZ ASSESSOR PROMOTOR JUSTICA JAIBA - COMARCA; JAIBA-PJ-UNPJ 0,00 0,00 7.187,72 0,00 0,00 0,00 0,00 1.717,00 8.904,72 751,99 1.229,92 0,00 0,00 1.981,91 6.922,81 30/06/2021
374 631800 BRUNA RAPOSO JORGE OFICIAL DO MP JUIZ DE FORA - COMARCA; JUIZ DE FORA-PJ-06PJ 5.387,19 538,72 0,00 2.962,96 1.975,30 0,00 0,00 1.717,00 12.581,17 762,96 1.093,66 0,00 0,00 1.856,62 10.724,55 30/06/2021
375 697400 BRUNA SILVA SANTOS ASSESSOR PROMOTOR JUSTICA TIMÓTEO - COMARCA; TIMOTEO-PJ-04PJ 0,00 0,00 7.187,72 3.593,86 0,00 0,00 0,00 1.717,00 12.498,58 751,99 1.229,92 0,00 0,00 1.981,91 10.516,67 30/06/2021
376 699300 BRUNA URSINE TIMO ASSESSOR PROCURADOR JUSTICA BELO HORIZONTE - COMARCA; COMB CRIMES PRAT POR AG POL MUN-ASSESSORIA 0,00 0,00 7.187,72 3.593,86 0,00 0,00 0,00 1.717,00 12.498,58 751,99 1.229,92 0,00 0,00 1.981,91 10.516,67 30/06/2021
377 463800 BRUNO ALVES TEIXEIRA ANALISTA DO MP UBERLÂNDIA - COMARCA; UBERLANDIA-PJ-04PJ 10.069,62 2.013,92 0,00 6.041,77 0,00 0,00 0,00 1.717,00 19.842,31 1.745,64 1.973,56 0,00 0,00 3.719,20 16.123,11 30/06/2021
378 538500 BRUNO AUGUSTO DA SILVA OFICIAL DO MP SANTA LUZIA - COMARCA; SANTA LUZIA-PJ-03PJ 5.930,75 593,08 0,00 0,00 0,00 0,00 0,00 1.717,00 8.240,83 856,09 689,27 0,00 0,00 1.545,36 6.695,47 30/06/2021
379 318200 BRUNO BARROS DE SOUZA OFICIAL DO MP UBÁ - COMARCA; UBA-PJ-04PJ 10.069,62 3.020,89 0,00 6.545,26 0,00 0,00 0,00 1.717,00 21.352,77 1.906,76 1.827,17 0,00 0,00 3.733,93 17.618,84 30/06/2021
380 459600 BRUNO CASTELAR LUGAO MENDES OFICIAL DO MP BELO HORIZONTE - COMARCA; PROC JUST RECURSOS ESP E EXTRAORD CRIMINAIS 7.912,85 1.582,57 0,00 0,00 0,00 0,00 0,00 1.717,00 11.212,42 1.331,54 1.375,71 0,00 0,00 2.707,25 8.505,17 30/06/2021
381 427400 BRUNO CESAR RIBEIRO DE PAIVA ANALISTA DO MP BELO HORIZONTE - COMARCA; ASSESS JUR DO CONS SUPERIOR DO MINISTERIO PUB 13.011,52 2.602,30 0,00 7.806,91 5.204,61 0,00 0,00 1.717,00 30.342,34 2.310,49 4.220,32 0,00 0,00 6.530,81 23.811,53 30/06/2021
382 380900 BRUNO CIRILO ANTUNES OFICIAL DO MP VARGINHA - COMARCA; VARGINHA-PJ-05PJ 8.579,10 1.715,82 0,00 5.147,46 0,00 0,00 0,00 1.717,00 17.159,38 1.459,46 1.560,39 0,00 0,00 3.019,85 14.139,53 30/06/2021
383 329000 BRUNO DE MELO REIS ANALISTA DO MP PATROCÍNIO - COMARCA; PATROCINIO-PJ-02PJ 16.750,82 5.025,25 0,00 10.888,04 0,00 0,00 0,00 3.255,78 35.919,89 3.296,45 4.108,26 0,00 0,00 7.404,71 28.515,18 30/06/2021
384 697800 BRUNO GAZZOLA BEZERRA FALCAO ASSESSOR PROCURADOR JUSTICA BELO HORIZONTE - COMARCA; PROCURADOR-GERAL ADJUNTO JURIDICO- GABINETE 0,00 0,00 7.187,72 3.593,86 0,00 0,00 0,00 1.717,00 12.498,58 751,99 1.229,92 0,00 0,00 1.981,91 10.516,67 30/06/2021
385 378300 BRUNO HERDY LOPES DE OLIVEIRA ANALISTA DO MP GOVERNADOR VALADARES - COMARCA; GOVERNADOR VALADARES-PJ-03PJ 14.324,23 2.864,85 0,00 8.594,54 0,00 0,00 0,00 1.717,00 27.500,62 2.562,53 3.152,94 0,00 0,00 5.715,47 21.785,15 30/06/2021
386 529700 BRUNO JOSE BUENO DIAS OFICIAL DO MP SÃO SEBASTIÃO DO PARAÍSO - COMARCA; SAO SEBASTIAO DO PARAISO-PJ-02PJ 5.930,75 593,08 0,00 3.261,92 0,00 0,00 0,00 1.717,00 11.502,75 856,09 637,13 0,00 0,00 1.493,22 10.009,53 30/06/2021
387 691600 BRUNO JOSE RIBEIRO ASSESSOR PROMOTOR JUSTICA CLÁUDIO - COMARCA; CLAUDIO-PJ-UNPJ 0,00 0,00 7.187,72 3.593,86 0,00 0,00 0,00 1.717,00 12.498,58 751,99 1.229,92 0,00 0,00 1.981,91 10.516,67 30/06/2021
388 350100 BRUNO LAUD SERRANO DOS REIS OFICIAL DO MP UBÁ - COMARCA; UBA-PJ-02PJ 9.444,70 2.833,41 0,00 6.139,06 0,00 0,00 0,00 1.717,00 20.134,17 1.776,77 1.966,37 0,00 0,00 3.743,14 16.391,03 30/06/2021
389 373800 BRUNO MARTINO DE ALBUQUERQUE ANALISTA DO MP PONTE NOVA - COMARCA; PONTE NOVA-PJ-03PJ 14.324,23 2.864,85 0,00 8.594,54 0,00 0,00 0,00 1.717,00 27.500,62 2.562,53 3.048,67 0,00 0,00 5.611,20 21.889,42 30/06/2021
390 470400 BRUNO NOVAIS CABRAL ANALISTA DO MP MUTUM - COMARCA; MUTUM-PJ-UNPJ 10.069,62 2.013,92 0,00 6.041,77 0,00 0,00 0,00 2.486,39 20.611,70 1.745,64 1.869,29 0,00 0,00 3.614,93 16.996,77 30/06/2021
391 648600 BRUNO RIBEIRO E MELO ASSESSOR BELO HORIZONTE - COMARCA; CENTRO CERIMONIAL 0,00 0,00 8.170,49 4.085,25 0,00 0,00 0,00 1.717,00 13.972,74 751,99 1.500,18 0,00 0,00 2.252,17 11.720,57 30/06/2021
392 369200 BRUNO ROBERTO DIAS DE OLIVEIRA OFICIAL DO MP BELO HORIZONTE - COMARCA; BH-22PJ PES COM DEF E IDOSOS-SECRETARIA 9.146,93 1.829,39 0,00 5.488,16 0,00 0,00 0,00 1.717,00 18.181,48 1.568,49 1.717,79 0,00 0,00 3.286,28 14.895,20 30/06/2021
393 547700 BRUNO ROBERTO SOUZA GONCALVES ANALISTA DO MP PARACATU - COMARCA; PARACATU-PJ-03PJ 9.146,93 914,69 0,00 5.030,81 0,00 0,00 0,00 3.255,78 18.348,21 1.422,14 1.506,50 0,00 0,00 2.928,64 15.419,57 30/06/2021
394 546100 BRUNO SA VIEIRA ANALISTA DO MP BARBACENA - COMARCA; BARBACENA-PJ-SECRETARIA 9.146,93 914,69 0,00 5.030,81 0,00 0,00 0,00 1.717,00 16.809,43 1.422,14 1.454,36 0,00 0,00 2.876,50 13.932,93 30/06/2021
395 438200 BRUNO SALES PEREIRA ANALISTA DO MP BELO HORIZONTE - COMARCA; CENTRAL DE APOIO TECNICO-SETOR CONTABIL 12.204,02 2.440,80 0,00 7.322,41 0,00 0,00 0,00 2.486,39 24.453,62 2.155,45 2.513,08 0,00 0,00 4.668,53 19.785,09 30/06/2021
396 537400 BRUNO SANT'ANA CESAR ANALISTA DO MP CONTAGEM - COMARCA; CONTAGEM-PJ-21PJ 9.146,93 914,69 0,00 5.030,81 0,00 0,00 0,00 1.717,00 16.809,43 1.422,14 1.506,50 0,00 0,00 2.928,64 13.880,79 30/06/2021
397 679000 BRUNO WILLIANS PAULINO DE MELLO ASSESSOR PROCURADOR JUSTICA BELO HORIZONTE - COMARCA; GABINETE DE PROCURADOR DE JUSTIÇA - SALA 1006 0,00 0,00 7.187,72 3.593,86 0,00 0,00 0,00 1.717,00 12.498,58 751,99 1.229,92 0,00 0,00 1.981,91 10.516,67 30/06/2021
398 405800 CAIO FERNANDO RODRIGUES DE OLIVEIRA ANALISTA DO MP BELO HORIZONTE - COMARCA; GABINETE DE PROCURADOR DE JUSTIÇA - SALA 805 13.011,52 2.602,30 0,00 7.806,91 0,00 0,00 0,00 1.717,00 25.137,73 2.310,49 2.789,06 0,00 0,00 5.099,55 20.038,18 30/06/2021
399 530000 CAIO GUEDES DE OLIVEIRA ANALISTA DO MP DIAMANTINA - COMARCA; DIAMANTINA-PJ-02PJ 10.069,62 1.006,96 0,00 3.901,61 0,00 0,00 0,00 2.486,39 17.464,58 1.584,53 1.688,82 0,00 0,00 3.273,35 14.191,23 30/06/2021
400 491400 CAIO MIRANDA JUNQUEIRA ANALISTA DO MP BUENO BRANDAO - COMARCA; BUENO BRANDAO-PJ-UNPJ 10.069,62 1.006,96 0,00 5.538,29 0,00 0,00 0,00 1.717,00 18.331,87 1.584,53 1.636,68 0,00 0,00 3.221,21 15.110,66 30/06/2021
401 415800 CAMILA ALVES DA SILVA ANALISTA DO MP CAETÉ - COMARCA; CAETE-PJ-01PJ 13.011,52 2.602,30 0,00 7.806,91 0,00 0,00 0,00 1.508,81 24.929,54 2.310,49 2.789,06 0,00 19,09 5.118,64 19.810,90 30/06/2021
402 555800 CAMILA CAROLINE ROCHA CHAVES OFICIAL DO MP SALINAS - COMARCA; SALINAS-PJ-01PJ 5.930,75 593,08 0,00 2.489,23 2.174,61 0,00 0,00 1.717,00 12.904,67 856,09 1.287,29 0,00 0,00 2.143,38 10.761,29 30/06/2021
403 445200 CAMILA CONDE ROCHA ANALISTA DO MP CONTAGEM - COMARCA; CONTAGEM-PJ-08PJ 10.069,62 2.013,92 0,00 6.041,77 4.027,85 0,00 0,00 2.486,39 24.639,55 1.745,64 3.081,22 0,00 0,00 4.826,86 19.812,69 30/06/2021
404 419900 CAMILA CUNNINGHAM PIMENTA DE PADUA ANALISTA DO MP BELO HORIZONTE - COMARCA; ASSESSORIA PSICOSSOCIAL 13.011,52 2.602,30 0,00 7.806,91 0,00 0,00 0,00 1.717,00 25.137,73 2.310,49 2.789,06 0,00 0,00 5.099,55 20.038,18 30/06/2021
405 704600 CAMILA DIAS NOGUEIRA ASSESSOR BELO HORIZONTE - COMARCA; CENTRO JORNALISMO 0,00 0,00 10.397,52 1.732,92 0,00 0,00 0,00 3.024,96 15.155,40 751,99 2.112,61 0,00 0,00 2.864,60 12.290,80 30/06/2021
406 507700 CAMILA ELIZABETH RODRIGUES ANALISTA DO MP BELO HORIZONTE - COMARCA; BH-02PJ FAMILIA-SECRETARIA 10.736,08 1.073,61 0,00 5.904,85 0,00 0,00 0,00 1.717,00 19.431,54 1.701,83 1.910,30 0,00 0,00 3.612,13 15.819,41 30/06/2021
407 372700 CAMILA FONSECA LIMONGE ANALISTA DO MP BETIM - COMARCA; BETIM-PJ-01PJ 14.324,23 2.864,85 0,00 8.594,54 0,00 0,00 0,00 2.486,39 28.270,01 2.562,53 3.152,94 0,00 0,00 5.715,47 22.554,54 30/06/2021
408 621300 CAMILA GOLFETO DE SOUSA VALENTE OFICIAL DO MP ESPERA FELIZ - COMARCA; ESPERA FELIZ-PJ-UNPJ 5.387,19 538,72 0,00 2.962,96 0,00 0,00 0,00 2.870,54 11.759,41 762,96 446,18 0,00 0,00 1.209,14 10.550,27 30/06/2021
409 409800 CAMILA GONCALVES COSTA RIBEIRO ANALISTA DO MP INHAPIM - COMARCA; INHAPIM-PJ-02PJ 10.069,62 2.013,92 0,00 6.041,77 0,00 0,00 0,00 2.486,39 20.611,70 1.745,64 1.921,43 0,00 0,00 3.667,07 16.944,63 30/06/2021
410 335000 CAMILA GONTIJO DE PAIVA ANALISTA DO MP BELO HORIZONTE - COMARCA; COORD DE CONTROLE DA CONSTITUCIONALIDADE 16.112,82 4.833,85 0,00 6.907,06 0,00 0,00 0,00 1.717,00 29.570,73 3.163,74 3.968,81 0,00 0,00 7.132,55 22.438,18 30/06/2021
411 693400 CAMILA HECKSHER MONTEIRO ASSESSOR PROCURADOR JUSTICA BELO HORIZONTE - COMARCA; GABINETE DE PROCURADOR DE JUSTIÇA - SALA 613 0,00 0,00 7.187,72 3.593,86 0,00 0,00 0,00 1.717,00 12.498,58 751,99 1.229,92 0,00 0,00 1.981,91 10.516,67 30/06/2021
412 696000 CAMILA IMACULADA OLIVEIRA ASSESSOR PROCURADOR JUSTICA BELO HORIZONTE - COMARCA; GABINETE DE PROCURADOR DE JUSTIÇA - SALA 804 0,00 0,00 7.187,72 0,00 0,00 0,00 0,00 1.717,00 8.904,72 751,99 1.229,92 0,00 0,00 1.981,91 6.922,81 30/06/2021
413 547800 CAMILA MATTARELLI DE ABREU E SILVA ANALISTA DO MP BELO HORIZONTE - COMARCA; CAO-VIOLENCIA DOMESTICA E FAMILIAR 9.146,93 914,69 0,00 5.030,81 0,00 0,00 0,00 1.717,00 16.809,43 1.422,14 1.506,50 0,00 0,00 2.928,64 13.880,79 30/06/2021
414 430000 CANDIDA MARINA COSTA ANALISTA DO MP BELO HORIZONTE - COMARCA; DIVISAO DE DOCUMENTACAO JURIDICA 13.011,52 2.602,30 0,00 7.806,91 0,00 0,00 0,00 1.717,00 25.137,73 2.310,49 2.789,06 0,00 0,00 5.099,55 20.038,18 30/06/2021
415 614300 CARINA CORTIELHA OFICIAL DO MP BELO HORIZONTE - COMARCA; BH-23PJ CIVEL-SEC EXP CIVEIS 4.974,42 497,44 0,00 2.166,56 0,00 0,00 0,00 1.717,00 9.355,42 694,23 444,49 0,00 0,00 1.138,72 8.216,70 30/06/2021
416 380400 CARINA DIAS FACANHA DE SOUZA ANALISTA DO MP SANTA RITA DO SAPUCAÍ - COMARCA; SANTA RITA DO SAPUCAI-PJ-SECRETARIA 14.324,23 2.864,85 0,00 8.594,54 0,00 0,00 0,00 1.717,00 27.500,62 2.562,53 3.152,94 0,00 0,00 5.715,47 21.785,15 30/06/2021
417 698300 CARINA ESTEPHANY FAVATO FERREIRA JUSTE ASSESSOR PROCURADOR JUSTICA BELO HORIZONTE - COMARCA; PROC. JUSTICA DIR. DIFUSOS E COLETIVOS-SEC 0,00 0,00 7.187,72 3.593,86 0,00 0,00 0,00 1.717,00 12.498,58 751,99 1.229,92 0,00 0,00 1.981,91 10.516,67 30/06/2021
418 255000 CARLA ADRIANA DE MENEZES OFICIAL DO MP BELO HORIZONTE - COMARCA; CENT DE APOIO TEC-SETOR DEF,IDOSO E INFANC 10.069,62 3.020,89 0,00 6.545,26 0,00 0,00 0,00 1.717,00 21.352,77 1.906,76 2.206,17 0,00 0,00 4.112,93 17.239,84 30/06/2021
419 425100 CARLA ADRIANA DINIZ AMARAL OFICIAL DO MP CONTAGEM - COMARCA; CONTAGEM-PJ-SECRETARIA 8.579,10 1.715,82 0,00 5.147,46 0,00 0,00 0,00 1.717,00 17.159,38 1.459,46 1.560,39 0,00 0,00 3.019,85 14.139,53 30/06/2021
420 508100 CARLA ALESSANDRA FONSECA ANALISTA DO MP BELO HORIZONTE - COMARCA; CAO-ORDEM ECONOMICA E TRIBUTARIA-SECRETARIA 10.069,62 1.006,96 0,00 0,00 0,00 0,00 0,00 1.717,00 12.793,58 1.584,53 1.740,95 0,00 0,00 3.325,48 9.468,10 30/06/2021
421 607100 CARLA ANGELICA DIAS MIRANDA OFICIAL DO MP JABOTICATUBAS - COMARCA; JABOTICATUBAS-PJ-UNPJ 5.930,75 593,08 0,00 2.567,44 0,00 0,00 0,00 1.717,00 10.808,27 856,09 532,86 0,00 0,00 1.388,95 9.419,32 30/06/2021
422 351500 CARLA APARECIDA MENDES RAMIRIO OFICIAL DO MP PASSOS - COMARCA; PASSOS-PJ-01PJ 9.146,93 1.829,39 0,00 5.488,16 0,00 0,00 0,00 1.717,00 18.181,48 1.568,49 1.665,66 0,00 0,00 3.234,15 14.947,33 30/06/2021
423 442800 CARLA GONCALVES COSTA SOALHEIRO ANALISTA DO MP GOVERNADOR VALADARES - COMARCA; GOVERNADOR VALADARES-PJ-11PJ 10.069,62 2.013,92 0,00 6.041,77 0,00 0,00 0,00 2.486,39 20.611,70 1.745,64 1.921,43 0,00 0,00 3.667,07 16.944,63 30/06/2021
424 321500 CARLA GONCALVES MASSOTE OFICIAL DO MP CAMPO BELO - COMARCA; CAMPO BELO-PJ-02PJ 10.069,62 3.020,89 0,00 6.545,26 0,00 0,00 0,00 1.717,00 21.352,77 1.906,76 2.206,17 0,00 0,00 4.112,93 17.239,84 30/06/2021
425 429200 CARLA HAUTEQUESTT BECHARA COORDENADOR/ANALISTA BELO HORIZONTE - COMARCA; DIRET DE INFORMACAO E CONHECIMENTO-DINC/CEAF 13.011,52 2.602,30 2.687,03 9.150,43 0,00 0,00 0,00 1.717,00 29.168,28 2.310,49 3.527,99 0,00 0,00 5.838,48 23.329,80 30/06/2021
426 247500 CARLA MATILDE GUIMARAES DE OLIVEIRA OFICIAL DO MP ITAJUBA - COMARCA; ITAJUBA-PJ-SECRETARIA 10.069,62 4.027,85 0,00 7.048,74 0,00 0,00 0,00 1.717,00 22.863,21 2.067,87 2.386,64 0,00 0,00 4.454,51 18.408,70 30/06/2021
427 226100 CARLA MERLI DA CONCEICAO ANALISTA DO MP BELO HORIZONTE - COMARCA; CENTRAL DE APOIO TECNICO-SETOR CONTABIL 18.820,14 5.646,04 0,00 12.233,09 0,00 0,00 0,00 1.717,00 38.416,27 3.726,87 4.781,81 0,00 0,00 8.508,68 29.907,59 30/06/2021
428 181401 CARLO MICHEL GAUDENSI COELHO ANALISTA DO MP BELO HORIZONTE - COMARCA; BH-08PJ JUIZADO ESPECIAL-SECRETARIA 12.601,30 5.040,52 0,00 8.820,91 0,00 0,00 0,00 1.717,00 28.179,73 2.634,97 3.257,52 0,00 0,00 5.892,49 22.287,24 30/06/2021
429 634000 CARLOS ALBERTO AMORMINO TRIGUEIRO ANALISTA DO MP BELO HORIZONTE - COMARCA; DIRET DE APOIO AS PROCURADORIAS DE JUSTICA 8.170,49 817,05 0,00 4.493,77 0,00 0,00 0,00 2.486,39 15.967,70 1.250,28 1.206,25 0,00 0,00 2.456,53 13.511,17 30/06/2021
430 637900 CARLOS ALBERTO DE MOURA OFICIAL DO MP SETE LAGOAS - COMARCA; SETE LAGOAS-PJ-07PJ 5.217,34 521,73 0,00 0,00 0,00 0,00 0,00 1.717,00 7.456,07 734,31 454,81 0,00 0,00 1.189,12 6.266,95 30/06/2021
431 638700 CARLOS ALBERTO FERREIRA BRAGA ANALISTA DO MP MATOZINHOS - COMARCA; MATOZINHOS-PJ-01PJ 8.170,49 817,05 0,00 4.493,77 0,00 0,00 0,00 1.717,00 15.198,31 841,65 1.266,49 0,00 0,00 2.108,14 13.090,17 30/06/2021
432 375801 CARLOS ALBERTO ROCHA ANALISTA DO MP VARGINHA - COMARCA; GAECO REGIONAL DE VARGINHA 10.069,62 1.006,96 0,00 0,00 0,00 0,00 0,00 1.717,00 12.793,58 1.584,53 1.740,95 0,00 0,00 3.325,48 9.468,10 30/06/2021
433 462800 CARLOS ANDREI SOARES FAGUNDES ANALISTA DO MP MONTES CLAROS - COMARCA; MONTES CLAROS-PJ-09PJ 10.069,62 2.013,92 0,00 0,00 0,00 0,00 0,00 1.717,00 13.800,54 1.745,64 1.921,43 0,00 0,00 3.667,07 10.133,47 30/06/2021
434 370300 CARLOS AUGUSTO BUENO DIAS ASSESSOR BELO HORIZONTE - COMARCA; SUPERINTENDÊNCIA DE ENGENHARIA E ARQUITETURA 0,00 0,00 10.397,52 5.198,76 0,00 0,00 0,00 1.717,00 17.313,28 751,99 1.463,96 0,00 0,00 2.215,95 15.097,33 30/06/2021
435 701800 CARLOS AUGUSTO GOMES DE MORAES SALLES ASSESSOR PROCURADOR JUSTICA BELO HORIZONTE - COMARCA; PROC JUST ATUACAO TRIBUNAIS SUPERIORES-GAB004 0,00 0,00 7.187,72 2.395,91 0,00 0,00 0,00 1.717,00 11.300,63 751,99 1.229,92 0,00 0,00 1.981,91 9.318,72 30/06/2021
436 505100 CARLOS CEZAR CARVALHO ANALISTA DO MP RIBEIRÃO DAS NEVES - COMARCA; RIBEIRAO DAS NEVES-PJ-04PJ 10.069,62 4.027,85 0,00 4.847,54 0,00 0,00 0,00 1.717,00 20.662,01 2.067,87 2.334,51 0,00 0,00 4.402,38 16.259,63 30/06/2021
437 195900 CARLOS DE SOUZA FERREIRA OFICIAL DO MP COROMANDEL - COMARCA; COROMANDEL-PJ-UNPJ 10.069,62 8.055,69 0,00 0,00 0,00 2.712,33 0,00 1.717,00 22.554,64 2.712,33 4.115,10 0,00 0,00 6.827,43 15.727,21 30/06/2021
438 196800 CARLOS EDUARDO DE OLIVEIRA MARINHO OFICIAL DO MP ALPINÓPOLIS - COMARCA; ALPINOPOLIS-PJ-UNPJ 15.272,02 10.690,41 0,00 12.981,22 0,00 0,00 0,00 1.717,00 40.660,65 3.966,27 5.127,45 0,00 0,00 9.093,72 31.566,93 30/06/2021
439 650800 CARLOS EDUARDO NIZA DA SILVA OFICIAL DO MP IGARAPÉ - COMARCA; IGARAPE-PJ-01PJ 4.376,03 262,56 0,00 2.319,30 0,00 0,00 0,00 1.717,00 8.674,89 570,31 198,57 0,00 0,00 768,88 7.906,01 30/06/2021
440 491800 CARLOS EDUARDO ROMAN OFICIAL DO MP BARBACENA - COMARCA; BARBACENA-PJ-09PJ 7.663,37 1.532,67 0,00 4.598,02 0,00 0,00 0,00 1.717,00 15.511,06 1.283,64 1.306,55 0,00 0,00 2.590,19 12.920,87 30/06/2021
441 299300 CARLOS HENRIQUE BICALHO ANALISTA DO MP BELO HORIZONTE - COMARCA; BH-17PJ PATRIMONIO PUBLICO-SECRETARIA 17.413,92 6.965,57 0,00 12.189,75 0,00 0,00 0,00 2.486,39 39.055,63 3.713,00 4.813,92 0,00 0,00 8.526,92 30.528,71 30/06/2021
442 205100 CARLOS HENRIQUE ESTEVES OFICIAL DO MP ITAMBACURI - COMARCA; ITAMBACURI-PJ-01PJ 15.272,02 6.108,81 0,00 10.690,42 0,00 0,00 0,00 1.717,00 33.788,25 3.233,21 4.069,10 0,00 0,00 7.302,31 26.485,94 30/06/2021
443 351600 CARLOS HENRIQUE FELICIO DA FONSECA OFICIAL DO MP JUIZ DE FORA - COMARCA; JUIZ DE FORA-PJ-21PJ 9.752,14 2.925,64 0,00 6.338,89 0,00 0,00 0,00 1.717,00 20.733,67 1.840,72 2.058,69 0,00 0,00 3.899,41 16.834,26 30/06/2021
444 85400 CARLOS JOSE VIEIRA OFICIAL DO MP BELO HORIZONTE - COMARCA; DIRETORIA DO COLEGIO E DA CAMARA DE PJ 23.757,25 19.005,81 0,00 17.731,11 0,00 0,00 520,11 7.390,96 68.405,24 5.486,23 7.374,04 7.300,84 0,00 20.161,11 48.244,13 30/06/2021
445 229100 CARLOS MERCES DE OLIVEIRA ANALISTA DO MP BELO HORIZONTE - COMARCA; CENTRAL DE APOIO TECN-SETOR DE MEIO AMBIENTE 18.820,14 7.528,06 0,00 13.174,10 0,00 0,00 0,00 1.717,00 41.239,30 4.027,99 4.124,54 0,00 0,00 8.152,53 33.086,77 30/06/2021
446 538300 CARLOS RANGEL SILVA DE MELO ANALISTA DO MP BELO HORIZONTE - COMARCA; DIVISAO DE CONTROLE IMOBILIARIO 9.146,93 2.744,08 0,00 4.123,54 0,00 0,00 0,00 2.486,39 18.500,94 1.714,84 1.929,09 0,00 0,00 3.643,93 14.857,01 30/06/2021
447 265100 CARLOS REIFF MIRANDA ANALISTA DO MP BELO HORIZONTE - COMARCA; BH-19PJ SAUDE-SECRETARIA 150PJ 18.820,14 5.646,04 0,00 12.233,09 0,00 0,00 0,00 1.717,00 38.416,27 3.726,87 4.833,95 0,00 0,00 8.560,82 29.855,45 30/06/2021
448 305400 CARLOS ROCHA DE SOUZA OFICIAL DO MP MONTALVÂNIA - COMARCA; MONTALVANIA-PJ-SECRETARIA 6.123,79 1.837,14 0,00 3.980,47 0,00 0,00 0,00 1.717,00 13.658,40 1.086,03 812,69 0,00 0,00 1.898,72 11.759,68 30/06/2021
449 365100 CARLOS WAGNER SANDER MORAIS COORDENADOR/OFICIAL BELO HORIZONTE - COMARCA; DIRETORIA DE ADMINISTRACAO FINANCEIRA 0,00 2.687,03 13.435,16 8.061,10 0,00 2.391,83 0,00 1.717,00 28.292,12 2.391,83 3.564,24 0,00 0,00 5.956,07 22.336,05 30/06/2021
450 399900 CARMELITA EVANGELISTA DE SOUZA OFICIAL DO MP JOÃO PINHEIRO - COMARCA; JOAO PINHEIRO-PJ-01PJ 7.912,85 1.582,57 0,00 0,00 0,00 0,00 0,00 1.717,00 11.212,42 1.331,54 1.375,71 0,00 0,00 2.707,25 8.505,17 30/06/2021
451 202000 CARMEN LUCIA MARIZ DE MACEDO OFICIAL DO MP BELO HORIZONTE - COMARCA; DIRETORIA GESTAO COMPRAS LICITACOES 14.790,66 10.353,47 0,00 12.572,07 0,00 0,00 460,98 6.745,83 44.923,01 3.835,34 4.886,28 0,00 0,00 8.721,62 36.201,39 30/06/2021
452 701900 CAROLINA CARVALHO COSTA ASSESSOR PROCURADOR JUSTICA BELO HORIZONTE - COMARCA; GABINETE DE PROCURADOR DE JUSTIÇA - SALA 811 0,00 0,00 7.187,72 2.395,91 0,00 0,00 0,00 1.717,00 11.300,63 751,99 1.229,92 0,00 0,00 1.981,91 9.318,72 30/06/2021
453 228500 CAROLINA CHIARELLA DOS SANTOS RIBEIRO COORDENADOR/OFICIAL BELO HORIZONTE - COMARCA; DIVISAO TRANSPORTES 0,00 3.545,75 11.819,15 7.682,45 0,00 0,00 0,00 1.717,00 24.764,35 1.567,08 2.820,77 0,00 0,00 4.387,85 20.376,50 30/06/2021
454 446500 CAROLINA COSTA VAL RODRIGUES ANALISTA DO MP CONTAGEM - COMARCA; CONTAGEM-PJ-10PJ 12.601,30 2.520,26 0,00 7.560,78 0,00 0,00 0,00 1.717,00 24.399,34 2.231,73 2.675,34 0,00 0,00 4.907,07 19.492,27 30/06/2021
455 603501 CAROLINA DOMINGOS BRANDAO RABELLO ANALISTA DO MP BARROSO - COMARCA; BARROSO-PJ-01PJ 9.146,93 914,69 0,00 3.566,49 0,00 0,00 0,00 1.717,00 15.345,11 1.422,14 1.506,50 0,00 0,00 2.928,64 12.416,47 30/06/2021
456 404300 CAROLINA DOS SANTOS VIEIRA ANALISTA DO MP BELO HORIZONTE - COMARCA; BH-08PJ JUIZADO ESPECIAL-SECRETARIA 14.324,23 2.864,85 0,00 8.594,54 0,00 0,00 0,00 1.717,00 27.500,62 2.562,53 3.048,67 0,00 0,00 5.611,20 21.889,42 30/06/2021
457 551200 CAROLINA LOPES ARANTES MASCARENHAS ANALISTA DO MP BELO HORIZONTE - COMARCA; COORD EST DEF DIR FAM PESSOAS DEFICI IDOSOS 9.146,93 914,69 0,00 0,00 0,00 0,00 0,00 2.486,39 12.548,01 1.422,14 1.402,22 0,00 0,00 2.824,36 9.723,65 30/06/2021
458 622600 CAROLINA LOREDO LOPES CATIZANI OFICIAL DO MP RIBEIRÃO DAS NEVES - COMARCA; RIBEIRAO DAS NEVES-PJ-12PJ 4.974,42 497,44 0,00 2.735,93 0,00 0,00 0,00 1.717,00 9.924,79 694,23 444,49 0,00 0,00 1.138,72 8.786,07 30/06/2021
459 382200 CAROLINA MENDES CHAVES LIN ANALISTA DO MP BELO HORIZONTE - COMARCA; BH-12PJ JUIZO CRIMINAL-GAB 088PJ 10.069,62 2.013,92 0,00 6.041,77 0,00 0,00 0,00 2.486,39 20.611,70 1.745,64 1.921,43 0,00 0,00 3.667,07 16.944,63 30/06/2021
460 461900 CAROLINA MURTA TEIXEIRA DIAS ANALISTA DO MP BELO HORIZONTE - COMARCA; PROCURADORIA-GERAL ADJ ADM- SECRETARIA 10.069,62 2.013,92 0,00 6.421,53 0,00 0,00 0,00 1.717,00 20.222,07 1.745,64 1.973,56 0,00 0,00 3.719,20 16.502,87 30/06/2021
461 509600 CAROLINA PINTO DE OLIVEIRA SOUZA ANALISTA DO MP MURIAÉ - COMARCA; MURIAE-PJ-01PJ 10.069,62 1.006,96 0,00 3.927,68 0,00 0,00 0,00 2.486,39 17.490,65 1.584,53 1.636,68 0,00 0,00 3.221,21 14.269,44 30/06/2021
462 629100 CAROLINA RODRIGUES AMARAL ANALISTA DO MP BELO HORIZONTE - COMARCA; PROC. JUSTICA DIR. DIFUSOS E COLETIVOS-SEC 8.436,53 843,65 0,00 4.640,09 0,00 0,00 0,00 1.717,00 15.637,27 1.297,11 1.325,98 0,00 0,00 2.623,09 13.014,18 30/06/2021
463 502600 CAROLINA RODRIGUES RUBEN ANALISTA DO MP BELO HORIZONTE - COMARCA; BH-18PJ VIOLENCIA DOMESTICA-SECRETARIA 10.069,62 1.006,96 0,00 5.538,29 0,00 0,00 0,00 3.255,78 19.870,65 1.584,53 1.636,68 0,00 0,00 3.221,21 16.649,44 30/06/2021
464 529600 CAROLINA VAZ DE MELO MAMBRINI ANALISTA DO MP BELO HORIZONTE - COMARCA; BH-14PJ DEFESA CONSUMIDOR-GAB 005PJ 9.146,93 914,69 0,00 5.030,81 0,00 0,00 0,00 1.717,00 16.809,43 1.422,14 1.506,50 0,00 0,00 2.928,64 13.880,79 30/06/2021
465 619100 CAROLINA ZAKHIA NARDELLI RODRIGUES ANALISTA DO MP NEPOMUCENO - COMARCA; NEPOMUCENO-PJ-UNPJ 8.436,53 843,65 0,00 4.640,09 3.093,39 0,00 0,00 2.486,39 19.500,05 1.297,11 2.176,67 0,00 0,00 3.473,78 16.026,27 30/06/2021
466 517600 CAROLINE ALVES DE OLIVEIRA MULLER ANALISTA DO MP VISCONDE DO RIO BRANCO - COMARCA; VISCONDE DO RIO BRANCO-PJ-01PJ 10.069,62 1.006,96 0,00 5.538,29 0,00 0,00 0,00 1.947,82 18.562,69 1.584,53 1.688,82 0,00 0,00 3.273,35 15.289,34 30/06/2021
467 373200 CAROLINE ANTUNES RIBEIRO OFICIAL DO MP JACUI - COMARCA; JACUI-PJ-UNPJ 8.858,43 1.771,69 0,00 5.315,06 0,00 0,00 0,00 1.717,00 17.662,18 1.513,10 1.481,41 0,00 0,00 2.994,51 14.667,67 30/06/2021
468 556800 CAROLINE DE SOUZA CARDOSO DOMINGUES OFICIAL DO MP BRASÍLIA DE MINAS - COMARCA; BRASILIA DE MINAS-PJ-02PJ 5.930,75 593,08 0,00 3.261,92 0,00 0,00 0,00 1.717,00 11.502,75 856,09 689,27 0,00 0,00 1.545,36 9.957,39 30/06/2021
469 499400 CAROLINE MARQUES DE LOURDES MARZULLO OFICIAL DO MP JUIZ DE FORA - COMARCA; JUIZ DE FORA-PJ-08PJ 7.663,37 766,34 0,00 4.214,86 0,00 0,00 0,00 2.870,54 15.515,11 1.161,03 1.129,53 0,00 0,00 2.290,56 13.224,55 30/06/2021
470 616800 CAROLINE MONTEIRO DE BARROS ANALISTA DO MP CONTAGEM - COMARCA; CONTAGEM-PJ-11PJ 8.436,53 843,65 0,00 4.640,09 0,00 0,00 0,00 1.717,00 15.637,27 1.297,11 1.325,98 0,00 0,00 2.623,09 13.014,18 30/06/2021
471 618100 CAROLINE VASCONCELOS COSTA LANZA ANALISTA DO MP PARAOPEBA - COMARCA; PARAOPEBA-PJ-UNPJ 8.436,53 843,65 0,00 3.328,54 0,00 0,00 0,00 4.025,17 16.633,89 1.297,11 1.325,98 0,00 0,00 2.623,09 14.010,80 30/06/2021
472 699000 CAROLLINA RODRIGUES SOUTO AMARAL ASSESSOR PROCURADOR JUSTICA BELO HORIZONTE - COMARCA; GABINETE DE PROCURADOR DE JUSTIÇA - SALA 405 0,00 0,00 7.187,72 3.593,86 0,00 0,00 0,00 1.717,00 12.498,58 751,99 1.229,92 0,00 0,00 1.981,91 10.516,67 30/06/2021
473 604000 CASSIA APARECIDA DA SILVA OFICIAL DO MP PARACATU - COMARCA; PARACATU-PJ-01PJ 5.930,75 593,08 0,00 3.261,92 0,00 0,00 0,00 1.717,00 11.502,75 856,09 689,27 0,00 0,00 1.545,36 9.957,39 30/06/2021
474 268800 CASSIA BEATRIZ TEIXEIRA OFICIAL DO MP BELO HORIZONTE - COMARCA; COMB CRIMES PRAT POR AG POL MUN-SECRETARIA 12.601,30 3.780,39 0,00 8.190,85 0,00 0,00 0,00 1.717,00 26.289,54 2.433,35 2.966,43 0,00 0,00 5.399,78 20.889,76 30/06/2021
475 500000 CASSIA DE OLIVEIRA COSTA VIANA ANALISTA DO MP SETE LAGOAS - COMARCA; SETE LAGOAS-PJ-09PJ 10.069,62 5.034,81 0,00 0,00 0,00 0,00 0,00 1.717,00 16.821,43 2.228,99 2.671,39 0,00 0,00 4.900,38 11.921,05 30/06/2021
476 368800 CASSIA LUISA BATISTA MENDONCA WEBER OFICIAL DO MP BELO HORIZONTE - COMARCA; DIVISÃO DE EDUCAÇÃO PARA O CONSUMO 7.663,37 1.532,67 0,00 4.598,02 0,00 0,00 1.994,77 1.717,00 17.505,83 1.283,64 1.855,11 0,00 0,00 3.138,75 14.367,08 30/06/2021
477 622200 CASSIA VAZ DE AZEVEDO LISBOA MARZANO ASSESSOR BELO HORIZONTE - COMARCA; CGMP-SECRETARIA DA CORREGEDORIA-GERAL DO MP 0,00 0,00 3.076,28 1.538,14 0,00 0,00 0,00 2.486,39 7.100,81 449,69 133,57 0,00 0,00 583,26 6.517,55 30/06/2021
478 121000 CASSIO HENRIQUE AFONSO DA SILVA OFICIAL DO MP BELO HORIZONTE - COMARCA; ASSESS TECNICA DA CORREGEDORIA-GERAL DO MP 18.820,14 13.174,10 0,00 15.997,12 0,00 0,00 469,25 6.836,08 55.296,69 4.931,36 6.468,66 0,00 0,00 11.400,02 43.896,67 30/06/2021
479 512001 CATARINA NATALINO CALIXTO COORDENADOR/ANALISTA BELO HORIZONTE - COMARCA; DIRETORIA GESTAO TRANSPORTES 0,00 1.343,52 13.435,16 7.389,34 0,00 0,00 0,00 1.717,00 23.885,02 1.297,11 2.838,07 0,00 0,00 4.135,18 19.749,84 30/06/2021
480 606200 CATARINE DE SIQUEIRA DE QUADROS ANALISTA DO MP RIBEIRÃO DAS NEVES - COMARCA; RIBEIRAO DAS NEVES-PJ-02PJ 9.146,93 914,69 0,00 3.618,63 0,00 0,00 0,00 1.717,00 15.397,25 1.422,14 1.402,22 0,00 0,00 2.824,36 12.572,89 30/06/2021
481 622300 CECILIA APARECIDA PEREIRA ASSUNCAO OFICIAL DO MP TRÊS PONTAS - COMARCA; TRES PONTAS-PJ-SECRETARIA 5.387,19 538,72 0,00 2.962,96 0,00 0,00 0,00 3.255,78 12.144,65 762,96 498,31 0,00 0,00 1.261,27 10.883,38 30/06/2021
482 538000 CECILIA FONTES DE MATOS PIMENTEL ANALISTA DO MP PALMA - COMARCA; PALMA-PJ-UNPJ 9.146,93 914,69 0,00 5.030,81 0,00 0,00 0,00 2.486,39 17.578,82 1.422,14 1.506,50 0,00 0,00 2.928,64 14.650,18 30/06/2021
483 261300 CECILIO ANTONIO CAMPOS DOS REIS ANALISTA DO MP BELO HORIZONTE - COMARCA; AUDITORIA INTERNA 18.103,37 5.431,01 0,00 11.767,19 0,00 0,00 0,00 1.717,00 37.018,57 3.577,78 4.618,71 0,00 0,00 8.196,49 28.822,08 30/06/2021
484 386400 CEFAS AMORELI DE FIGUEIREDO OFICIAL DO MP CABO VERDE - COMARCA; CABO VERDE-PJ-SECRETARIA 6.123,79 1.224,76 0,00 3.674,28 0,00 0,00 0,00 1.717,00 12.739,83 988,05 879,78 0,00 0,00 1.867,83 10.872,00 30/06/2021
485 149000 CELIA MAGALHAES CLAROS SOSSI OFICIAL DO MP GOVERNADOR VALADARES - COMARCA; GAECO REGIONAL DE GOVERNADOR VALADARES 16.750,82 11.725,57 0,00 14.238,20 0,00 4.368,50 0,00 1.717,00 48.800,09 4.368,50 6.961,65 0,00 0,00 11.330,15 37.469,94 30/06/2021
486 421000 CELINA BENEDITA DE SOUZA ALMEIDA OFICIAL DO MP CAMBUÍ - COMARCA; CAMBUI-PJ-01PJ 8.579,10 4.289,55 0,00 6.434,33 0,00 0,00 0,00 1.717,00 21.019,98 1.871,26 2.102,79 0,00 0,00 3.974,05 17.045,93 30/06/2021
487 252900 CELIO DE MELO CASTOR ANALISTA DO MP BELO HORIZONTE - COMARCA; BH-02PJ FAMILIA-SECRETARIA 18.103,37 5.431,01 0,00 11.767,19 0,00 0,00 0,00 1.717,00 37.018,57 3.577,78 4.618,71 0,00 0,00 8.196,49 28.822,08 30/06/2021
488 395700 CELIO FERREIRA LIMA OFICIAL DO MP CONTAGEM - COMARCA; CONTAGEM-PJ-SECRETARIA 8.579,10 1.715,82 0,00 5.147,46 0,00 0,00 0,00 2.486,39 17.928,77 1.459,46 1.508,25 0,00 0,00 2.967,71 14.961,06 30/06/2021
489 281300 CELMA REGINA PEREIRA SANTOS ANALISTA DO MP BELO HORIZONTE - COMARCA; PROMOT ESTADUAL DE DEF PATRI CULT E TUR DE MG 18.820,14 5.646,04 0,00 12.233,09 8.155,39 0,00 0,00 1.717,00 46.571,66 3.726,87 7.076,68 0,00 0,00 10.803,55 35.768,11 30/06/2021
490 535600 CELSO MEDEIROS DE PAIVA OFICIAL DO MP RIO PRETO - COMARCA; RIO PRETO-PJ-SECRETARIA 5.387,19 538,72 0,00 2.962,96 1.975,30 0,00 0,00 1.717,00 12.581,17 762,96 1.041,52 0,00 0,00 1.804,48 10.776,69 30/06/2021
491 367000 CESAR NARVAES DE AVELAR OFICIAL DO MP BELO HORIZONTE - COMARCA; DIVISAO DE MEMORIA INSTITUCIONAL 10.069,62 2.013,92 0,00 4.246,38 0,00 0,00 0,00 1.717,00 18.046,92 1.568,49 2.022,28 0,00 0,00 3.590,77 14.456,15 30/06/2021
492 226500 CESAR SILVEIRA BARROUIN OFICIAL DO MP BELO HORIZONTE - COMARCA; DIRETORIA DE ADMINISTRACAO FINANCEIRA 12.601,30 5.040,52 0,00 8.820,91 0,00 0,00 0,00 1.717,00 28.179,73 2.634,97 3.257,52 0,00 0,00 5.892,49 22.287,24 30/06/2021
493 121400 CEZAR MORENO CONCEICAO TAVARES OFICIAL DO MP BELO HORIZONTE - COMARCA; COORD DE INCLUSAO E MOBILIZACAO SOCIAIS 16.750,82 11.725,57 0,00 14.238,20 0,00 0,00 0,00 2.486,39 45.200,98 4.368,50 5.656,04 0,00 0,00 10.024,54 35.176,44 30/06/2021
494 243800 CHARLES MARTINS MUNIZ OFICIAL DO MP BELO HORIZONTE - COMARCA; LAB TECNOLOGIA CONTRA LAVAGEM DINHEIRO 12.601,30 5.040,52 0,00 8.820,91 0,00 0,00 0,00 1.198,00 27.660,73 2.634,97 3.257,52 0,00 0,00 5.892,49 21.768,24 30/06/2021
495 193500 CHARLIN CESAR KOURLY OFICIAL DO MP ARAGUARI - COMARCA; ARAGUARI-PJ-07PJ 15.272,02 6.108,81 0,00 10.690,42 0,00 0,00 0,00 1.717,00 33.788,25 3.233,21 4.121,24 0,00 0,00 7.354,45 26.433,80 30/06/2021
496 385500 CHILLEN PEIXOTO DE MOURA OFICIAL DO MP BELO HORIZONTE - COMARCA; DIVISÃO DE FISCALIZAÇÃO DAS RELAÇÕES DE CONSU 8.579,10 1.715,82 0,00 3.637,53 0,00 0,00 0,00 1.717,00 15.649,45 1.459,46 1.560,39 0,00 0,00 3.019,85 12.629,60 30/06/2021
497 534500 CHRISTIAN DOUGLAS BRITO RUAS OFICIAL DO MP SÃO JOÃO DA PONTE - COMARCA; SAO JOAO DA PONTE-PJ-SECRETARIA 5.930,75 593,08 0,00 2.489,23 2.174,61 0,00 0,00 1.717,00 12.904,67 856,09 1.287,29 0,00 0,00 2.143,38 10.761,29 30/06/2021
498 370600 CHRISTIAN KARINE FELIX PRATES ASSESSOR BELO HORIZONTE - COMARCA; SUPRIN DE PLANEJAMENTO E COORDENACAO 0,00 0,00 10.397,52 5.198,76 0,00 0,00 0,00 1.717,00 17.313,28 751,99 2.112,61 0,00 0,00 2.864,60 14.448,68 30/06/2021
499 435800 CHRISTIANA BAHIA ANDRADE PINA ANALISTA DO MP BELO HORIZONTE - COMARCA; LABORATORIO TECNOLOGIA INTELIGENCIA 13.011,52 2.602,30 0,00 7.806,91 0,00 0,00 0,00 2.486,39 25.907,12 2.310,49 2.789,06 0,00 0,00 5.099,55 20.807,57 30/06/2021
500 516800 CHRISTIANE FERREIRA DO NASCIMENTO ANALISTA DO MP POUSO ALEGRE - COMARCA; POUSO ALEGRE-PJ-08PJ 10.069,62 1.006,96 0,00 3.875,54 0,00 0,00 0,00 1.717,00 16.669,12 1.584,53 1.740,95 0,00 0,00 3.325,48 13.343,64 30/06/2021
501 176000 CHRISTIANE JUNQUEIRA PULITI ANDRADE DE BARROS ASSESSOR BELO HORIZONTE - COMARCA; PROCURADORIA-GERAL ADJUNTA INSTITUCIONAL 0,00 10.748,13 13.435,16 12.091,65 0,00 3.681,60 0,00 1.717,00 41.673,54 3.681,60 5.781,04 0,00 0,00 9.462,64 32.210,90 30/06/2021
502 319200 CHRISTIANE MARIA DE ASSIS RUSSO OFICIAL DO MP BELO HORIZONTE - COMARCA; CAO-ORDEM ECONOMICA E TRIBUTARIA-SECRETARIA 11.085,56 3.325,67 0,00 0,00 0,00 0,00 0,00 1.717,00 16.128,23 2.118,07 2.459,12 0,00 0,00 4.577,19 11.551,04 30/06/2021
503 510300 CHRISTIANE MARY DE CARVALHO FERREIRA ANALISTA DO MP BELO HORIZONTE - COMARCA; DIRETORIA DE SISTEMAS DE INFORMACAO 10.069,62 1.006,96 0,00 5.538,29 0,00 0,00 0,00 1.717,00 18.331,87 1.584,53 1.688,82 0,00 0,00 3.273,35 15.058,52 30/06/2021
504 424900 CHRISTIANE PEREIRA TURNER DE ARAUJO OFICIAL DO MP BELO HORIZONTE - COMARCA; CAO-PATRIMONIO PUBLICO 8.579,10 1.715,82 0,00 5.147,46 0,00 0,00 0,00 2.486,39 17.928,77 1.459,46 1.456,12 0,00 0,00 2.915,58 15.013,19 30/06/2021
505 513700 CHRISTIANE VIEIRA SOARES PEDERSOLI ASSESSOR/ANALISTA BELO HORIZONTE - COMARCA; ASSESSORIA JURIDICA DO PROCON-MG 0,00 1.144,65 11.446,46 6.295,56 0,00 0,00 0,00 2.486,39 21.373,06 1.584,53 2.157,45 0,00 0,00 3.741,98 17.631,08 30/06/2021
506 412300 CHRYSTIAN MACHADO RIBEIRO ANALISTA DO MP VARGINHA - COMARCA; VARGINHA-PJ-04PJ 13.011,52 2.602,30 0,00 5.257,13 0,00 0,00 0,00 1.717,00 22.587,95 2.310,49 2.789,06 0,00 0,00 5.099,55 17.488,40 30/06/2021
507 513800 CHRYSTIANE DO NASCIMENTO DE MAGALHAES OFICIAL DO MP UBERLÂNDIA - COMARCA; UBERLANDIA-PJ-10PJ 7.421,79 742,18 0,00 4.081,99 0,00 0,00 0,00 1.717,00 13.962,96 1.118,51 963,87 0,00 0,00 2.082,38 11.880,58 30/06/2021
508 497900 CIBELE DE FREITAS SANCHES DIAS ANALISTA DO MP SABARÁ - COMARCA; SABARA-PJ-03PJ 10.069,62 1.006,96 0,00 3.901,61 0,00 0,00 487,37 7.033,76 22.499,32 1.584,53 1.688,82 0,00 0,00 3.273,35 19.225,97 30/06/2021
509 500900 CIBELLE SILVA PRADO ALVARENGA ANALISTA DO MP ITANHANDU - COMARCA; ITANHANDU-PJ-UNPJ 10.069,62 1.006,96 0,00 0,00 0,00 0,00 0,00 3.255,78 14.332,36 1.584,53 1.740,95 0,00 0,00 3.325,48 11.006,88 30/06/2021
510 705300 CICERO HELENO PEREIRA SILVA ASSESSOR PROMOTOR JUSTICA CORINTO - COMARCA; CORINTO-PJ-UNPJ 0,00 0,00 7.187,72 598,98 0,00 0,00 293,59 2.290,45 10.370,74 751,99 1.325,63 0,00 0,00 2.077,62 8.293,12 30/06/2021
511 296400 CINTIA APARECIDA MOREIRA NAVES E RODRIGUES ANALISTA DO MP CAMPO BELO - COMARCA; CAMPO BELO-PJ-01PJ 17.413,92 5.224,18 0,00 11.319,05 0,00 0,00 0,00 1.717,00 35.674,15 3.434,37 4.411,67 0,00 0,00 7.846,04 27.828,11 30/06/2021
512 407900 CINTIA NETO COMELLI ANALISTA DO MP BELO HORIZONTE - COMARCA; CENTRAL DE APOIO TECNICO-SETOR CONTABIL 13.011,52 2.602,30 0,00 7.806,91 5.204,61 0,00 0,00 2.486,39 31.111,73 2.310,49 4.168,19 0,00 0,00 6.478,68 24.633,05 30/06/2021
513 304700 CINTIA QUEIROZ OFICIAL DO MP BELO HORIZONTE - COMARCA; OUVIDORIA DO MPMG 10.069,62 3.020,89 0,00 6.545,26 0,00 0,00 0,00 1.717,00 21.352,77 1.906,76 2.206,17 0,00 0,00 4.112,93 17.239,84 30/06/2021
514 286100 CIRO CANGUSSU CORDEIRO OFICIAL DO MP IPATINGA - COMARCA; IPATINGA-PJ-09PJ 7.663,37 2.299,01 0,00 4.981,19 0,00 0,00 547,93 7.694,43 23.185,93 1.406,26 1.379,30 0,00 0,00 2.785,56 20.400,37 30/06/2021
515 689900 CISSA NOGUEIRA NUNES ASSESSOR PROCURADOR JUSTICA BELO HORIZONTE - COMARCA; GABINETE DE PROCURADOR DE JUSTIÇA - SALA 608 0,00 0,00 7.187,72 0,00 0,00 0,00 0,00 1.717,00 8.904,72 751,99 1.229,92 0,00 0,00 1.981,91 6.922,81 30/06/2021
516 681700 CLARA FERREIRA ALKIMIM ASSESSOR PROMOTOR JUSTICA ARAÇUAÍ - COMARCA; ARACUAI-PJ-01PJ 0,00 0,00 7.187,72 3.593,86 0,00 0,00 0,00 1.717,00 12.498,58 751,99 1.229,92 0,00 0,00 1.981,91 10.516,67 30/06/2021
517 695500 CLARA RODRIGUES BLACH ASSESSOR PROCURADOR JUSTICA BELO HORIZONTE - COMARCA; GABINETE DE PROCURADOR DE JUSTIÇA - SALA 1003 0,00 0,00 7.187,72 2.767,62 0,00 0,00 0,00 1.717,00 11.672,34 751,99 1.229,92 0,00 0,00 1.981,91 9.690,43 30/06/2021
518 412500 CLARICE GOMES MAROTTA ANALISTA DO MP BELO HORIZONTE - COMARCA; COORD ESTADUAL DE DEFESA DOS ANIMAIS 13.011,52 3.903,46 0,00 8.457,49 0,00 0,00 0,00 1.717,00 27.089,47 2.518,67 3.089,63 0,00 0,00 5.608,30 21.481,17 30/06/2021
519 605300 CLARISSA AZEVEDO ROCHA OFICIAL DO MP BELO HORIZONTE - COMARCA; DIRET DE DESENV DE RECURSOS HUMANOS-DDRH 5.930,75 593,08 0,00 3.261,92 0,00 0,00 0,00 1.717,00 11.502,75 856,09 689,27 0,00 0,00 1.545,36 9.957,39 30/06/2021
520 308100 CLARISSA DUARTE BELLONI DIRETOR/ANALISTA BELO HORIZONTE - COMARCA; DIRETORIA-GERAL 0,00 7.409,35 24.697,83 16.053,59 0,00 0,00 470,91 9.161,23 57.792,91 3.434,37 6.963,53 0,00 0,00 10.397,90 47.395,01 30/06/2021
521 497100 CLARISSA ROCHA GUIDI ANALISTA DO MP BELO HORIZONTE - COMARCA; BH-02PJ FAMILIA-SECRETARIA 10.736,08 1.073,61 0,00 5.904,85 3.936,56 0,00 0,00 3.255,78 24.906,88 1.701,83 2.940,72 0,00 0,00 4.642,55 20.264,33 30/06/2021
522 641800 CLARISSE TAVARES GONCALVES OFICIAL DO MP BELO HORIZONTE - COMARCA; BH-07PJ 01 TRIBUNAL JURI-SECRETARIA 5.217,34 521,73 0,00 2.869,54 0,00 0,00 0,00 1.717,00 10.325,61 734,31 506,95 0,00 0,00 1.241,26 9.084,35 30/06/2021
523 463700 CLAUDIA ADRIANA FERRAO DIAS ANALISTA DO MP SETE LAGOAS - COMARCA; SETE LAGOAS-PJ-06PJ 10.069,62 2.013,92 0,00 0,00 0,00 0,00 0,00 1.717,00 13.800,54 1.745,64 1.973,56 0,00 0,00 3.719,20 10.081,34 30/06/2021
524 415400 CLAUDIA ALMEIDA DE VASCONCELLOS BARROS ASSESSOR/OFICIAL BELO HORIZONTE - COMARCA; DIVISAO DE SERVICOS 0,00 2.079,50 10.397,52 6.238,51 0,00 0,00 0,00 1.717,00 20.432,53 1.808,60 2.064,46 0,00 0,00 3.873,06 16.559,47 30/06/2021
525 207000 CLAUDIA APARECIDA VILELA MACHADO ANALISTA DO MP BELO HORIZONTE - COMARCA; CENTRAL DE APOIO TECNICO-SETOR CONTABIL 18.820,14 7.528,06 0,00 13.174,10 0,00 0,00 0,00 1.717,00 41.239,30 4.027,99 5.112,29 0,00 0,00 9.140,28 32.099,02 30/06/2021
526 365700 CLAUDIA BREGUEZ CUNHA ANALISTA DO MP VARGINHA - COMARCA; VARGINHA-PJ-07PJ 14.790,66 2.958,13 0,00 8.874,40 0,00 0,00 0,00 1.717,00 28.340,19 2.652,08 3.282,24 0,00 0,00 5.934,32 22.405,87 30/06/2021
527 430500 CLAUDIA CECILIA SANTANA VENCESLAU OFICIAL DO MP BELO HORIZONTE - COMARCA; DIR ANALISES TECNOLOGIA INTELIGENCIA 8.579,10 1.715,82 0,00 5.147,46 0,00 0,00 0,00 1.717,00 17.159,38 1.459,46 1.508,25 0,00 0,00 2.967,71 14.191,67 30/06/2021
528 112400 CLAUDIA CRISTINA FIUZA DE AVELAR AGENTE DO MP BELO HORIZONTE - COMARCA; SERVICO MEDICO-DEPTO PERIC MEDICA SAUDE OCUP 10.069,62 7.048,73 0,00 8.559,18 0,00 2.551,21 0,00 1.717,00 29.945,74 2.551,21 3.838,19 0,00 0,00 6.389,40 23.556,34 30/06/2021
529 480400 CLAUDIA GOULART DE SOUZA OFICIAL DO MP PASSOS - COMARCA; PASSOS-PJ-06PJ 7.663,37 1.532,67 0,00 4.598,02 0,00 0,00 0,00 1.717,00 15.511,06 1.283,64 1.306,55 0,00 0,00 2.590,19 12.920,87 30/06/2021
530 519800 CLAUDIA HELENA CORREA DE ALMEIDA ANALISTA DO MP BELO HORIZONTE - COMARCA; BH-12PJ JUIZO CRIMINAL-GAB 096PJ 10.069,62 1.006,96 0,00 3.875,54 0,00 0,00 0,00 1.717,00 16.669,12 1.584,53 1.740,95 0,00 0,00 3.325,48 13.343,64 30/06/2021
531 422100 CLAUDIA IACOMINI CABRAL ANALISTA DO MP BELO HORIZONTE - COMARCA; CENT DE APOIO TEC-SETOR DEF,IDOSO E INFANC 13.011,52 9.108,06 0,00 11.059,79 0,00 0,00 0,00 1.717,00 34.896,37 3.351,41 4.291,89 0,00 0,00 7.643,30 27.253,07 30/06/2021
532 258200 CLAUDIA LAGE MICHALAROS ANALISTA DO MP BELO HORIZONTE - COMARCA; CENTRAL DE APOIO TECN-SETOR DE MEIO AMBIENTE 18.103,37 12.672,36 0,00 11.616,95 0,00 4.736,39 0,00 1.717,00 48.846,07 4.736,39 7.541,83 0,00 0,00 12.278,22 36.567,85 30/06/2021
533 284600 CLAUDIA LENI DE FREITAS OFICIAL DO MP CONTAGEM - COMARCA; CONTAGEM-PJ-SECRETARIA 6.123,79 2.449,52 0,00 4.286,66 0,00 0,00 0,00 1.717,00 14.576,97 1.184,01 1.162,70 0,00 0,00 2.346,71 12.230,26 30/06/2021
534 433600 CLAUDIA LUIZA SANTIAGO FELICIO ANALISTA DO MP BELO HORIZONTE - COMARCA; CENT DE APOIO TEC-SETOR DEF,IDOSO E INFANC 13.011,52 2.602,30 0,00 0,00 0,00 0,00 0,00 1.717,00 17.330,82 2.310,49 2.684,78 0,00 0,00 4.995,27 12.335,55 30/06/2021
535 317000 CLAUDIA MACHADO ALVES ASSESSOR/OFICIAL BELO HORIZONTE - COMARCA; DIR GOVERNANCA TECNOLOGIA INFORMACAO 0,00 3.119,26 10.397,52 6.758,39 0,00 0,00 2.237,73 1.717,00 24.229,90 1.596,73 3.024,03 0,00 0,00 4.620,76 19.609,14 30/06/2021
536 155300 CLAUDIA MACIEL MIRANDA OFICIAL DO MP CONGONHAS - COMARCA; CONGONHAS-PJ-02PJ 16.750,82 8.375,41 0,00 8.205,80 0,00 0,00 0,00 1.717,00 35.049,03 3.832,47 4.882,15 0,00 0,00 8.714,62 26.334,41 30/06/2021
537 242200 CLAUDIA MICHELLE DIAS MUNIZ BALEEIRO OFICIAL DO MP MONTE AZUL - COMARCA; MONTE AZUL-PJ-SECRETARIA 12.601,30 5.040,52 0,00 8.820,91 0,00 0,00 0,00 1.717,00 28.179,73 2.634,97 3.205,39 0,00 0,00 5.840,36 22.339,37 30/06/2021
538 623000 CLAUDIA PATRICIA SILVA RODRIGUES RAPOSEIRAS OFICIAL DO MP PARÁ DE MINAS - COMARCA; PARA DE MINAS-PJ-02PJ 5.387,19 538,72 0,00 2.962,96 0,00 0,00 0,00 2.486,39 11.375,26 762,96 498,31 0,00 0,00 1.261,27 10.113,99 30/06/2021
539 418400 CLAUDIA REGINA MARTINS BONIFACIO OFICIAL DO MP ITUIUTABA - COMARCA; ITUIUTABA-PJ-06PJ 8.579,10 1.715,82 0,00 5.147,46 0,00 0,00 0,00 1.717,00 17.159,38 1.459,46 1.456,12 0,00 0,00 2.915,58 14.243,80 30/06/2021
540 498300 CLAUDIA SOUTO FARIAS BRAUN OFICIAL DO MP TEÓFILO OTONI - COMARCA; TEOFILO OTONI-PJ-SECRETARIA 6.123,79 612,38 0,00 2.606,03 0,00 0,00 0,00 1.717,00 11.059,20 890,06 634,05 0,00 0,00 1.524,11 9.535,09 30/06/2021
541 206500 CLAUDIA VALERIA FONSECA ANDRADE ANALISTA DO MP BELO HORIZONTE - COMARCA; BH-23PJ INF-FISC MED SOC FEC 18.820,14 9.410,07 0,00 14.115,11 0,00 4.329,11 517,55 7.363,04 54.555,02 4.329,11 6.893,95 0,00 0,00 11.223,06 43.331,96 30/06/2021
542 277500 CLAUDIO ANTONIO BORGES BRUNSWICK ALVARES OFICIAL DO MP BELO HORIZONTE - COMARCA; BH-15PJ M AMB 16PJ HAB URB-SECRETARIA 10.069,62 3.020,89 0,00 6.545,26 0,00 0,00 0,00 1.717,00 21.352,77 1.906,76 2.206,17 0,00 0,00 4.112,93 17.239,84 30/06/2021
543 444800 CLAUDIO ARESIO DO CARMO ANALISTA DO MP SETE LAGOAS - COMARCA; SETE LAGOAS-PJ-01PJ 10.069,62 4.027,85 0,00 7.048,74 0,00 0,00 0,00 1.717,00 22.863,21 2.067,87 2.386,64 0,00 0,00 4.454,51 18.408,70 30/06/2021
544 545100 CLAUDIO HENRIQUE MACEDO DE SOUZA FRANSOZO ANALISTA DO MP OURO PRETO - COMARCA; OURO PRETO-PJ-03PJ 9.146,93 914,69 0,00 0,00 3.353,87 0,00 0,00 2.486,39 15.901,88 1.422,14 2.428,81 0,00 0,00 3.850,95 12.050,93 30/06/2021
545 353500 CLAUDIO HENRIQUE PEDRO DA ROCHA OFICIAL DO MP BELO HORIZONTE - COMARCA; DIVISAO TRANSPORTES 9.752,14 1.950,43 0,00 5.851,29 0,00 0,00 0,00 1.717,00 19.270,86 1.684,69 1.781,28 0,00 0,00 3.465,97 15.804,89 30/06/2021
546 265800 CLAUDIO KUPIDLOWSKY FERNANDES OFICIAL DO MP BELO HORIZONTE - COMARCA; SECRETARIA DO PROCON-MG 10.069,62 3.020,89 0,00 6.545,26 0,00 0,00 0,00 1.717,00 21.352,77 1.906,76 1.409,08 0,00 0,00 3.315,84 18.036,93 30/06/2021
547 193600 CLAUDIO LEITE FONTES OFICIAL DO MP ITUIUTABA - COMARCA; ITUIUTABA-PJ-02PJ 9.146,93 3.658,77 0,00 6.402,85 0,00 0,00 0,00 1.717,00 20.925,55 1.861,19 1.837,88 0,00 0,00 3.699,07 17.226,48 30/06/2021
548 329400 CLAUDIO MARCIO BERNARDES OFICIAL DO MP ITAÚNA - COMARCA; ITAUNA-PJ-03PJ 10.069,62 7.048,73 0,00 5.741,33 0,00 0,00 0,00 2.486,39 25.346,07 2.551,21 3.084,47 0,00 0,00 5.635,68 19.710,39 30/06/2021
549 270200 CLAUDIO RABELO ALVES OFICIAL DO MP FORMIGA - COMARCA; FORMIGA-PJ-03PJ 10.736,08 3.220,82 0,00 6.978,45 0,00 0,00 0,00 1.717,00 22.652,35 2.045,38 2.249,90 0,00 0,00 4.295,28 18.357,07 30/06/2021
550 264700 CLAUDIO ROBERTO KFURI DE ARAUJO ANALISTA DO MP BELO HORIZONTE - COMARCA; CENTRAL DE APOIO TECNICO-SETOR DE INFORMATICA 18.103,37 5.431,01 0,00 11.767,19 0,00 0,00 0,00 1.717,00 37.018,57 3.577,78 4.514,43 0,00 0,00 8.092,21 28.926,36 30/06/2021
551 188600 CLAUDIO SALES OFICIAL DO MP NEPOMUCENO - COMARCA; NEPOMUCENO-PJ-SECRETARIA 14.790,66 11.832,53 0,00 13.311,60 0,00 0,00 0,00 1.717,00 41.651,79 4.071,99 5.332,22 0,00 0,00 9.404,21 32.247,58 30/06/2021
552 543300 CLAUDIO SILVA DE CARVALHO ANALISTA DO MP CAMPO BELO - COMARCA; CAMPO BELO-PJ-03PJ 8.436,53 843,65 0,00 4.640,09 0,00 0,00 0,00 1.717,00 15.637,27 1.297,11 1.273,85 0,00 0,00 2.570,96 13.066,31 30/06/2021
553 160700 CLAUDIO VICENTE HESS ASSESSOR BELO HORIZONTE - COMARCA; CENTRAL DE APOIO TECNICO-SETOR DE INFORMATICA 0,00 6.717,58 13.435,16 10.076,37 0,00 0,00 0,00 1.717,00 31.946,11 751,99 4.691,02 0,00 0,00 5.443,01 26.503,10 30/06/2021
554 312900 CLAUDIO VIEIRA FIRPE OFICIAL DO MP BELO HORIZONTE - COMARCA; CENTRO CERIMONIAL 10.069,62 3.020,89 0,00 6.545,26 0,00 0,00 0,00 1.717,00 21.352,77 1.906,76 2.206,17 0,00 0,00 4.112,93 17.239,84 30/06/2021
555 634100 CLEA CRISTINA GUERRA DE FREITAS COSTA OFICIAL DO MP BELO HORIZONTE - COMARCA; BH-18PJ VIOLENCIA DOMESTICA-SECRETARIA 5.217,34 521,73 0,00 0,00 0,00 0,00 0,00 2.486,39 8.225,46 734,31 454,81 0,00 0,00 1.189,12 7.036,34 30/06/2021
556 459200 CLEIA ZILLE PEREIRA ANALISTA DO MP BELO HORIZONTE - COMARCA; BH-07PJ 01 TRIBUNAL JURI-SECRETARIA 10.069,62 2.013,92 0,00 6.041,77 0,00 0,00 0,00 1.717,00 19.842,31 1.745,64 1.973,56 0,00 0,00 3.719,20 16.123,11 30/06/2021
557 481800 CLEIDE CARDOSO DA SILVA ANALISTA DO MP MANHUAÇU - COMARCA; MANHUACU-PJ-04PJ 10.069,62 2.013,92 0,00 6.041,77 0,00 0,00 0,00 1.717,00 19.842,31 1.745,64 1.869,29 0,00 0,00 3.614,93 16.227,38 30/06/2021
558 347600 CLEIDIMAR DE OLIVEIRA SILVA OFICIAL DO MP PATOS DE MINAS - COMARCA; PATOS DE MINAS-PJ-03PJ 9.444,70 2.833,41 0,00 6.139,06 0,00 0,00 0,00 1.717,00 20.134,17 1.776,77 1.809,96 0,00 0,00 3.586,73 16.547,44 30/06/2021
559 396500 CLEIDISON BATISTA DE ANDRADE OFICIAL DO MP RESPLENDOR - COMARCA; RESPLENDOR-PJ-UNPJ 8.170,49 1.634,10 0,00 4.902,30 0,00 0,00 0,00 2.486,39 17.193,28 1.381,01 1.342,85 0,00 0,00 2.723,86 14.469,42 30/06/2021
560 535100 CLEISON ALVES DA SILVA ANALISTA DO MP BOA ESPERANÇA - COMARCA; BOA ESPERANCA-PJ-01PJ 9.146,93 914,69 0,00 5.030,81 0,00 0,00 0,00 1.717,00 16.809,43 1.422,14 1.402,22 0,00 0,00 2.824,36 13.985,07 30/06/2021
561 298100 CLEONICE AUGUSTA BARROS DE OLIVEIRA ANALISTA DO MP JUIZ DE FORA - COMARCA; JUIZ DE FORA-PJ-08PJ 18.820,14 5.646,04 0,00 12.233,09 0,00 0,00 0,00 1.717,00 38.416,27 3.726,87 4.833,95 0,00 0,00 8.560,82 29.855,45 30/06/2021
562 264100 CLETO HENRIQUE ANDRADE SILVA ANALISTA DO MP BELO HORIZONTE - COMARCA; DIRETORIA DE SISTEMAS DE INFORMACAO 18.103,37 5.431,01 0,00 11.767,19 0,00 0,00 517,76 7.365,25 43.184,58 3.577,78 4.514,43 0,00 0,00 8.092,21 35.092,37 30/06/2021
563 334400 CLEUBA DE OLIVEIRA BARCELOS GONCALVES OFICIAL DO MP DIVINÓPOLIS - COMARCA; COORD REG SAUDE MACRORREGIAO SANITARIA OESTE 10.069,62 3.020,89 0,00 4.540,93 0,00 0,00 0,00 1.717,00 19.348,44 1.906,76 2.101,90 0,00 0,00 4.008,66 15.339,78 30/06/2021
564 347500 CLEUSA CORDEIRO DA MATA PIMENTA OFICIAL DO MP CAMPO BELO - COMARCA; CAMPO BELO-PJ-01PJ 10.069,62 8.055,69 0,00 9.062,66 0,00 2.712,33 0,00 1.717,00 31.617,30 2.712,33 4.010,83 0,00 0,00 6.723,16 24.894,14 30/06/2021
565 510200 CLEZIO SALES SILVA OFICIAL DO MP BRASÓPOLIS - COMARCA; BRASOPOLIS-PJ-UNPJ 6.123,79 612,38 0,00 2.553,90 0,00 0,00 0,00 3.911,61 13.201,68 890,06 738,32 0,00 0,00 1.628,38 11.573,30 30/06/2021
566 323000 CLOTILDE DE PADUA VIEIRA OFICIAL DO MP BELO HORIZONTE - COMARCA; BH-19PJ SAUDE-SECRETARIA 129PJ 7.421,79 2.226,54 0,00 4.824,17 0,00 0,00 0,00 1.717,00 16.189,50 1.356,01 1.411,03 0,00 0,00 2.767,04 13.422,46 30/06/2021
567 285200 CLOVIS ANDRE LUDTKE OFICIAL DO MP BELO HORIZONTE - COMARCA; DIVISAO DE MANUTENCAO PREDIAL 10.069,62 3.020,89 0,00 6.545,26 0,00 0,00 0,00 1.717,00 21.352,77 1.906,76 2.206,17 0,00 0,00 4.112,93 17.239,84 30/06/2021
568 381100 CONCEICAO APARECIDA TEIXEIRA ARANTES ANALISTA DO MP BELO HORIZONTE - COMARCA; BH-23PJ INFRACIONAL-ASS JURIDICA 13.872,60 2.774,52 0,00 8.323,56 0,00 0,00 0,00 1.845,23 26.815,91 2.475,82 2.975,61 0,00 0,00 5.451,43 21.364,48 30/06/2021
569 249900 CONSTANTINO CEZAR GOMES MOTA OFICIAL DO MP MONTES CLAROS - COMARCA; COORD REG BACIA RIOS VERDE GRANDE E PARDO 9.444,70 2.833,41 0,00 6.139,06 0,00 0,00 0,00 1.717,00 20.134,17 1.776,77 1.914,23 0,00 0,00 3.691,00 16.443,17 30/06/2021
570 481000 CRISHMA ANALIA LOMBELLO ANALISTA DO MP JUIZ DE FORA - COMARCA; JUIZ DE FORA-PJ-13PJ 10.069,62 2.013,92 0,00 6.041,77 0,00 0,00 44,31 2.200,34 20.369,96 1.745,64 1.921,43 0,00 0,00 3.667,07 16.702,89 30/06/2021
571 523900 CRISTHYANE BAZOLI COSTA GUEDES COUTO OFICIAL DO MP BELO HORIZONTE - COMARCA; BH-04PJ JUIZO REG PÚBLICOS-SECRETARIA 7.421,79 742,18 0,00 4.081,99 0,00 0,00 0,00 1.717,00 13.962,96 1.118,51 1.068,14 0,00 0,00 2.186,65 11.776,31 30/06/2021
572 187000 CRISTIAN DAYVSON EVANGELISTA OFICIAL DO MP JUIZ DE FORA - COMARCA; JUIZ DE FORA-PJ-13PJ 14.790,66 5.916,26 0,00 6.834,05 0,00 0,00 0,00 1.717,00 29.257,97 3.125,38 3.913,43 0,00 0,00 7.038,81 22.219,16 30/06/2021
573 682100 CRISTIAN TRISTAO DE ANDRADE ASSESSOR PROMOTOR JUSTICA TRÊS CORACOES - COMARCA; TRES CORACOES-PJ-04PJ 0,00 0,00 7.187,72 0,00 0,00 0,00 0,00 1.717,00 8.904,72 751,99 1.229,92 0,00 0,00 1.981,91 6.922,81 30/06/2021
574 319800 CRISTIANA GONCALVES DOS SANTOS GUSMAO OFICIAL DO MP PARAOPEBA - COMARCA; PARAOPEBA-PJ-UNPJ 10.069,62 3.020,89 0,00 6.545,26 0,00 0,00 0,00 1.717,00 21.352,77 1.906,76 2.206,17 0,00 0,00 4.112,93 17.239,84 30/06/2021
575 520600 CRISTIANA JANAINA BARBOZA JUVENCIO DOS SANTOS ANALISTA DO MP BELO HORIZONTE - COMARCA; BH-02PJ FAMILIA-SECRETARIA 10.069,62 1.006,96 0,00 5.538,29 0,00 0,00 0,00 1.717,00 18.331,87 1.584,53 1.740,95 0,00 0,00 3.325,48 15.006,39 30/06/2021
576 195600 CRISTIANA SOARES HALABI OFICIAL DO MP UBERABA - COMARCA; UBERABA-PJ-01PJ 15.499,20 6.199,68 0,00 10.849,44 0,00 0,00 0,00 1.717,00 34.265,32 3.284,10 4.194,70 0,00 0,00 7.478,80 26.786,52 30/06/2021
577 218900 CRISTIANE ALVES BELLES OFICIAL DO MP JUIZ DE FORA - COMARCA; JUIZ DE FORA-PJ-10PJ 6.123,79 1.837,14 0,00 3.980,47 0,00 0,00 0,00 2.870,54 14.811,94 1.086,03 916,96 0,00 0,00 2.002,99 12.808,95 30/06/2021
578 263600 CRISTIANE CARVALHO COUTINHO OFICIAL DO MP BELO HORIZONTE - COMARCA; BH-23PJ INFRACIONAL-SEC EXP 10.069,62 3.020,89 0,00 6.545,26 0,00 0,00 0,00 1.717,00 21.352,77 1.906,76 2.154,03 0,00 0,00 4.060,79 17.291,98 30/06/2021
579 541000 CRISTIANE COELHO ALVES OFICIAL DO MP ITABIRA - COMARCA; ITABIRA-PJ-03PJ 5.387,19 538,72 0,00 2.962,96 0,00 0,00 0,00 1.717,00 10.605,87 762,96 498,31 0,00 0,00 1.261,27 9.344,60 30/06/2021
580 441700 CRISTIANE CORRADO DE ANDRADE ANALISTA DO MP BELO HORIZONTE - COMARCA; DIRETORIA DE SISTEMAS DE INFORMACAO 13.011,52 2.602,30 0,00 7.806,91 0,00 0,00 0,00 1.717,00 25.137,73 2.310,49 2.789,06 0,00 0,00 5.099,55 20.038,18 30/06/2021
581 375100 CRISTIANE DAS DORES ERCIO DE LIMA OFICIAL DO MP GOVERNADOR VALADARES - COMARCA; COOR REG INCLUSAO MOBILIZ VALE DO RIO DOCE 8.436,53 1.687,31 0,00 5.061,92 0,00 0,00 0,00 1.717,00 16.902,76 1.432,09 1.520,87 0,00 0,00 2.952,96 13.949,80 30/06/2021
582 178800 CRISTIANE DE LIMA HOSKEN OFICIAL DO MP BELO HORIZONTE - COMARCA; BH-14PJ DEFESA CONSUMIDOR-GAB 110PJ 15.272,02 6.108,81 0,00 10.690,42 0,00 0,00 0,00 1.717,00 33.788,25 3.233,21 3.964,82 0,00 0,00 7.198,03 26.590,22 30/06/2021
583 494000 CRISTIANE DE MELO MARQUEZ OLIVEIRA ANALISTA DO MP UBERLÂNDIA - COMARCA; UBERLANDIA-PJ-06PJ 11.085,56 1.108,56 0,00 6.097,06 0,00 0,00 0,00 3.255,78 21.546,96 1.763,34 1.999,10 0,00 0,00 3.762,44 17.784,52 30/06/2021
584 266100 CRISTIANE DE OLIVEIRA CASTRO OFICIAL DO MP BELO HORIZONTE - COMARCA; BH-14PJ DEFESA CONSUMIDOR-SECRETARIA 12.601,30 3.780,39 0,00 8.913,48 0,00 0,00 1.445,27 1.717,00 28.457,44 2.433,35 3.259,61 0,00 0,00 5.692,96 22.764,48 30/06/2021
585 329500 CRISTIANE DOS REIS SILVA OFICIAL DO MP ARAXÁ - COMARCA; ARAXA-PJ-04PJ 9.444,70 2.833,41 0,00 6.139,06 0,00 0,00 0,00 1.717,00 20.134,17 1.776,77 1.966,37 0,00 0,00 3.743,14 16.391,03 30/06/2021
586 301600 CRISTIANE GODINHO PIRES ANALISTA DO MP BETIM - COMARCA; BETIM-PJ-07PJ 16.750,82 5.025,25 0,00 10.888,04 0,00 0,00 79,85 2.588,04 35.332,00 3.296,45 4.212,54 0,00 0,00 7.508,99 27.823,01 30/06/2021
587 406100 CRISTIANE GONCALVES CHAVES ANALISTA DO MP BELO HORIZONTE - COMARCA; BH-14PJ DEFESA CONSUMIDOR-GAB 112PJ 14.324,23 4.297,27 0,00 9.310,75 6.207,17 0,00 0,00 1.717,00 35.856,42 2.791,72 5.190,80 0,00 0,00 7.982,52 27.873,90 30/06/2021
588 487600 CRISTIANE LOPES DE OLIVEIRA OFICIAL DO MP DIVINÓPOLIS - COMARCA; DIVINOPOLIS-PJ-03PJ 6.123,79 612,38 0,00 0,00 0,00 0,00 0,00 1.717,00 8.453,17 890,06 738,32 0,00 0,00 1.628,38 6.824,79 30/06/2021
589 502500 CRISTIANE MACIEL DE OLIVEIRA GOMES ANALISTA DO MP JUIZ DE FORA - COMARCA; JUIZ DE FORA-PJ-05PJ 10.069,62 1.006,96 0,00 5.538,29 0,00 0,00 0,00 2.486,39 19.101,26 1.584,53 1.740,95 0,00 0,00 3.325,48 15.775,78 30/06/2021
590 285500 CRISTIANE MAGALHAES LOURENCO ANALISTA DO MP BELO HORIZONTE - COMARCA; CENTRAL DE APOIO TECNICO-SETOR CONTABIL 17.413,92 5.224,18 0,00 11.319,05 0,00 0,00 0,00 1.717,00 35.674,15 3.434,37 4.359,53 0,00 0,00 7.793,90 27.880,25 30/06/2021
591 536500 CRISTIANE MICHELE DE SOUZA ANALISTA DO MP BARÃO DE COCAIS - COMARCA; BARAO DE COCAIS-PJ-UNPJ 9.146,93 914,69 0,00 5.030,81 3.353,87 0,00 0,00 2.486,39 20.932,69 1.422,14 2.324,54 0,00 0,00 3.746,68 17.186,01 30/06/2021
592 346600 CRISTIANE NOGUEIRA ANDRADE ANALISTA DO MP BELO HORIZONTE - COMARCA; CENTRAL DE APOIO TECNICO-SETOR CONTABIL 15.272,02 4.581,61 0,00 9.926,82 0,00 0,00 0,00 1.717,00 31.497,45 2.988,86 3.768,45 0,00 0,00 6.757,31 24.740,14 30/06/2021
593 234000 CRISTIANE OLIVEIRA TOSTES OFICIAL DO MP JUIZ DE FORA - COMARCA; JUIZ DE FORA-PJ-08PJ 14.324,23 4.297,27 0,00 9.310,75 0,00 0,00 0,00 2.486,39 30.418,64 2.791,72 3.483,83 0,00 0,00 6.275,55 24.143,09 30/06/2021
594 445800 CRISTIANE ORZIL COSTA OFICIAL DO MP SANTA LUZIA - COMARCA; SANTA LUZIA-PJ-05PJ 6.123,79 1.224,76 0,00 0,00 0,00 0,00 0,00 2.486,39 9.834,94 988,05 879,78 0,00 0,00 1.867,83 7.967,11 30/06/2021
595 616100 CRISTIANE PAES RODRIGUES MARCICANO ANALISTA DO MP CATAGUASES - COMARCA; CATAGUASES-PJ-05PJ 7.663,37 766,34 0,00 4.214,86 0,00 0,00 0,00 3.255,78 15.900,35 1.161,03 1.129,53 0,00 0,00 2.290,56 13.609,79 30/06/2021
596 612300 CRISTIANE RIBEIRO DOS REIS ARCANJO OFICIAL DO MP BELO HORIZONTE - COMARCA; DIRETORIA DE PAGAMENTO DE PESSOAL-DPAG 5.387,19 538,72 0,00 2.962,96 0,00 0,00 0,00 0,00 8.888,87 762,96 446,18 0,00 0,00 1.209,14 7.679,73 30/06/2021
597 257700 CRISTIANE RODRIGUES PAES NUNES ANALISTA DO MP BELO HORIZONTE - COMARCA; BH-22PJ PES COM DEF E IDOSOS-ORIENTACAO PSIC 18.820,14 5.646,04 0,00 12.233,09 0,00 0,00 0,00 2.486,39 39.185,66 3.726,87 4.781,81 0,00 0,00 8.508,68 30.676,98 30/06/2021
598 510800 CRISTIANE SANTOS FERNANDES ORNELES ANALISTA DO MP BELO HORIZONTE - COMARCA; COORD ESTADUAL DAS PJS DE HAB. E URBANISMO 10.069,62 1.006,96 0,00 5.538,29 0,00 0,00 0,00 1.717,00 18.331,87 1.584,53 1.740,95 0,00 0,00 3.325,48 15.006,39 30/06/2021
599 535701 CRISTIANE SANTOS MIRANDA ANALISTA DO MP BETIM - COMARCA; BETIM-PJ-12PJ 7.421,79 445,31 0,00 3.933,55 0,00 0,00 0,00 1.717,00 13.517,65 1.071,01 999,56 0,00 0,00 2.070,57 11.447,08 30/06/2021
600 536200 CRISTIANO DE OLIVEIRA ANALISTA DO MP CONCEIÇÃO DO MATO DENTRO - COMARCA; CONCEICAO DO MATO DENTRO-PJ-UNPJ 10.069,62 1.006,96 0,00 5.538,29 0,00 0,00 0,00 2.486,39 19.101,26 1.584,53 1.688,82 0,00 0,00 3.273,35 15.827,91 30/06/2021
601 477400 CRISTIANO SOARES ELEUTERIO ANALISTA DO MP BELO HORIZONTE - COMARCA; BH-17PJ PATRIMONIO PUBLICO-SECRETARIA 11.085,56 2.217,11 0,00 6.651,34 0,00 0,00 0,00 1.717,00 21.671,01 1.940,70 2.255,18 0,00 0,00 4.195,88 17.475,13 30/06/2021
602 449400 CRISTIANO TEIXEIRA RODRIGUES LANA ANALISTA DO MP BELO HORIZONTE - COMARCA; COORD EST DEF DIR FAM PESSOAS DEFICI IDOSOS 10.069,62 2.013,92 0,00 6.041,77 0,00 0,00 0,00 1.717,00 19.842,31 1.745,64 1.973,56 0,00 0,00 3.719,20 16.123,11 30/06/2021
603 239400 CRISTINA DE FATIMA CRUZ E SILVA OFICIAL DO MP MONTE SANTO DE MINAS - COMARCA; MONTE SANTO DE MINAS-PJ-SECRETARIA 12.601,30 3.780,39 0,00 8.190,85 0,00 0,00 0,00 1.717,00 26.289,54 2.433,35 2.966,43 0,00 0,00 5.399,78 20.889,76 30/06/2021
604 544000 CRISTINA DE OLIVEIRA TERRA ANALISTA DO MP SANTA LUZIA - COMARCA; SANTA LUZIA-PJ-07PJ 9.146,93 914,69 0,00 0,00 0,00 0,00 0,00 1.717,00 11.778,62 1.422,14 1.506,50 0,00 0,00 2.928,64 8.849,98 30/06/2021
605 356800 CRISTINA DE PINHO BARROSO OFICIAL DO MP SABINÓPOLIS - COMARCA; SABINOPOLIS-PJ-UNPJ 8.170,49 2.451,15 0,00 5.310,82 0,00 0,00 0,00 1.717,00 17.649,46 1.511,74 1.531,59 0,00 0,00 3.043,33 14.606,13 30/06/2021
606 649500 CRISTINA DO DIVINO ESPIRITO SANTOS OFICIAL DO MP DIVINÓPOLIS - COMARCA; DIVINOPOLIS-PJ-12PJ 4.817,57 289,05 0,00 2.070,42 0,00 0,00 0,00 1.717,00 8.894,04 639,44 326,33 0,00 0,00 965,77 7.928,27 30/06/2021
607 348201 CRISTINA MARIA DA SILVA ANALISTA DO MP ARAXÁ - COMARCA; ARAXA-PJ-06PJ 10.069,62 2.013,92 0,00 6.041,77 4.027,85 0,00 0,00 1.717,00 23.870,16 1.745,64 3.081,22 0,00 0,00 4.826,86 19.043,30 30/06/2021
608 434900 CRISTINA MELO DE MADUREIRA ANALISTA DO MP BELO HORIZONTE - COMARCA; BH-07PJ 01 TRIBUNAL JURI-SECRETARIA 13.011,52 2.602,30 0,00 7.806,91 0,00 0,00 0,00 1.717,00 25.137,73 2.310,49 2.789,06 0,00 0,00 5.099,55 20.038,18 30/06/2021
609 307700 CRISTINA TEIXEIRA MARQUES OFICIAL DO MP BELO HORIZONTE - COMARCA; CENTRAL DE APOIO TECNICO-SETOR CONTABIL 8.858,43 2.657,53 0,00 5.757,98 0,00 0,00 0,00 1.717,00 18.990,94 1.654,83 1.842,45 0,00 0,00 3.497,28 15.493,66 30/06/2021
610 265300 CRISTOVAO SANCHES DE MEDEIROS ANALISTA DO MP BELO HORIZONTE - COMARCA; DIRETORIA DE CONTABILIDADE 16.750,82 5.025,25 0,00 10.888,04 0,00 0,00 0,00 1.717,00 34.381,11 3.296,45 4.212,54 0,00 0,00 7.508,99 26.872,12 30/06/2021
611 349800 CROZEIR LUIZ DA SILVA OFICIAL DO MP UNAÍ - COMARCA; UNAI-PJ-SECRETARIA 9.444,70 1.888,94 0,00 5.666,82 0,00 0,00 0,00 1.717,00 18.717,46 1.625,66 1.748,20 0,00 0,00 3.373,86 15.343,60 30/06/2021
612 490500 CYNTHIA CRISTINA DE SOUZA OLIVEIRA VALENTE ANALISTA DO MP BELO HORIZONTE - COMARCA; BH-09PJ AUDITORIA MILITAR-SECRETARIA 10.069,62 1.006,96 0,00 3.875,54 0,00 0,00 0,00 1.717,00 16.669,12 1.584,53 1.740,95 0,00 0,00 3.325,48 13.343,64 30/06/2021
613 389800 CYNTHIA GARIGLIO DOS SANTOS OFICIAL DO MP PERDIZES - COMARCA; PERDIZES-PJ-SECRETARIA 6.529,10 1.305,82 0,00 3.917,46 0,00 0,00 0,00 2.486,39 14.238,77 1.065,86 835,72 0,00 0,00 1.901,58 12.337,19 30/06/2021
614 335101 CYNTHIA GONTIJO D ASSUNCAO ANALISTA DO MP BELO HORIZONTE - COMARCA; FEPDC-SECRETARIA EXECUTIVA 10.069,62 2.013,92 0,00 6.041,77 0,00 0,00 0,00 2.486,39 20.611,70 1.745,64 1.973,56 0,00 0,00 3.719,20 16.892,50 30/06/2021
615 269700 CYNTIA ROCHA CAVALCANTI OFICIAL DO MP UBERLÂNDIA - COMARCA; UBERLANDIA-PJ-06PJ 12.601,30 3.780,39 0,00 8.190,85 0,00 0,00 0,00 2.486,39 27.058,93 2.433,35 2.966,43 0,00 0,00 5.399,78 21.659,15 30/06/2021
616 278000 DAIRTON LOPES MARTINS FILHO COORDENADOR/ANALISTA BELO HORIZONTE - COMARCA; DIRETORIA DE SISTEMAS DE INFORMACAO 0,00 4.030,55 13.435,16 8.732,86 0,00 0,00 0,00 1.717,00 27.915,57 1.906,76 3.409,35 0,00 0,00 5.316,11 22.599,46 30/06/2021
617 392700 DALIANA CHAVES IBRAIM MARINHO OFICIAL DO MP ITAÚNA - COMARCA; ITAUNA-PJ-04PJ 7.187,72 1.437,54 0,00 4.312,63 0,00 0,00 0,00 1.717,00 14.654,89 1.192,32 1.174,70 0,00 0,00 2.367,02 12.287,87 30/06/2021
618 558101 DALLEY TASSIA SILVA ANALISTA DO MP MORADA NOVA DE MINAS - COMARCA; MORADA NOVA DE MINAS-PJ-UNPJ 8.436,53 843,65 0,00 0,00 0,00 0,00 0,00 3.255,78 12.535,96 1.297,11 1.221,71 0,00 0,00 2.518,82 10.017,14 30/06/2021
619 476700 DALTON DAUD ANALISTA DO MP ARAGUARI - COMARCA; ARAGUARI-PJ-05PJ 10.069,62 2.013,92 0,00 6.041,77 0,00 0,00 0,00 1.717,00 19.842,31 1.745,64 1.869,29 0,00 0,00 3.614,93 16.227,38 30/06/2021
620 426900 DANIEL ALVES DA SILVA OFICIAL DO MP BELO HORIZONTE - COMARCA; DIVISAO TRANSPORTES 6.123,79 1.224,76 0,00 0,00 0,00 0,00 0,00 1.717,00 9.065,55 988,05 775,50 0,00 0,00 1.763,55 7.302,00 30/06/2021
621 122000 DANIEL ANTONIO VIEIRA OFICIAL DO MP ENTRE-RIOS DE MINAS - COMARCA; ENTRE RIOS DE MINAS-PJ-SECRETARIA 10.069,62 8.055,69 0,00 0,00 6.041,77 0,00 0,00 1.717,00 25.884,08 2.712,33 4.822,15 0,00 0,00 7.534,48 18.349,60 30/06/2021
622 411000 DANIEL FERREIRA DA SILVA ANALISTA DO MP GOVERNADOR VALADARES - COMARCA; GOVERNADOR VALADARES-PJ-15PJ 12.601,30 3.780,39 0,00 8.190,85 0,00 0,00 0,00 3.255,78 27.828,32 2.433,35 2.757,88 0,00 0,00 5.191,23 22.637,09 30/06/2021
623 703500 DANIEL FILIPE DE DEUS SOARES ASSESSOR PROMOTOR JUSTICA ITABIRITO - COMARCA; ITABIRITO-PJ-02PJ 0,00 0,00 7.187,72 1.197,95 0,00 0,00 0,00 1.717,00 10.102,67 751,99 1.229,92 0,00 0,00 1.981,91 8.120,76 30/06/2021
624 309000 DANIEL GOMES DOS SANTOS ANALISTA DO MP POÇOS DE CALDAS - COMARCA; POCOS DE CALDAS-PJ-03PJ 17.413,92 5.224,18 0,00 11.319,05 0,00 0,00 0,00 1.717,00 35.674,15 3.434,37 4.411,67 0,00 0,00 7.846,04 27.828,11 30/06/2021
625 554500 DANIEL GOMES PEREIRA OFICIAL DO MP NANUQUE - COMARCA; NANUQUE-PJ-02PJ 5.930,75 593,08 0,00 3.261,92 0,00 0,00 0,00 1.717,00 11.502,75 856,09 689,27 0,00 0,00 1.545,36 9.957,39 30/06/2021
626 453000 DANIEL GONCALVES PEREIRA ANALISTA DO MP UNAÍ - COMARCA; UNAI-PJ-02PJ 10.069,62 2.013,92 0,00 6.041,77 0,00 0,00 0,00 3.639,93 21.765,24 1.745,64 1.973,56 0,00 0,00 3.719,20 18.046,04 30/06/2021
627 495500 DANIEL GUIMARAES CABRAL OFICIAL DO MP BELO HORIZONTE - COMARCA; BH-17PJ PATRIMONIO PUBLICO-SECRETARIA 6.123,79 612,38 0,00 3.368,09 0,00 0,00 0,00 1.717,00 11.821,26 890,06 738,32 0,00 0,00 1.628,38 10.192,88 30/06/2021
628 442900 DANIEL GUIMARAES GONCALVES ANALISTA DO MP UBERLÂNDIA - COMARCA; UBERLANDIA-PJ-03PJ 12.601,30 2.520,26 0,00 7.560,78 0,00 0,00 0,00 1.717,00 24.399,34 2.231,73 2.675,34 0,00 0,00 4.907,07 19.492,27 30/06/2021
629 655900 DANIEL LUIZ DA SILVA ASSESSOR BELO HORIZONTE - COMARCA; DIV FISCAL ADM CONT TERCEIRIZACAO 0,00 0,00 5.136,32 2.568,16 0,00 0,00 0,00 1.717,00 9.421,48 738,09 669,60 0,00 0,00 1.407,69 8.013,79 30/06/2021
630 464600 DANIEL PIACENTINI STIVANIN ANALISTA DO MP ANDRADAS - COMARCA; ANDRADAS-PJ-02PJ 10.069,62 2.013,92 0,00 6.041,77 0,00 0,00 0,00 1.717,00 19.842,31 1.745,64 1.973,56 0,00 0,00 3.719,20 16.123,11 30/06/2021
631 417000 DANIEL QUEIROZ FERREIRA ANALISTA DO MP SÃO SEBASTIÃO DO PARAÍSO - COMARCA; SAO SEBASTIAO DO PARAISO-PJ-05PJ 12.601,30 2.520,26 0,00 7.560,78 0,00 0,00 0,00 1.717,00 24.399,34 2.231,73 2.675,34 0,00 0,00 4.907,07 19.492,27 30/06/2021
632 396700 DANIEL SILVA CARNEVALLI DIRETOR/ANALISTA BELO HORIZONTE - COMARCA; SUPERINTENDENCIA DE TECNOLOGIA DA INFORMACAO 0,00 3.482,78 17.413,92 10.448,35 0,00 0,00 0,00 2.486,39 33.831,44 2.562,53 4.172,54 0,00 0,00 6.735,07 27.096,37 30/06/2021
633 489300 DANIEL TABOZA ROCHA ANALISTA DO MP IPATINGA - COMARCA; IPATINGA-PJ-08PJ 10.069,62 1.006,96 0,00 5.538,29 0,00 0,00 0,00 2.486,39 19.101,26 1.584,53 1.740,95 0,00 0,00 3.325,48 15.775,78 30/06/2021
634 414100 DANIEL TARDELI VALADAO ANALISTA DO MP TRÊS CORACOES - COMARCA; TRES CORACOES-PJ-02PJ 12.601,30 2.520,26 0,00 7.560,78 0,00 0,00 0,00 3.255,78 25.938,12 2.231,73 2.466,79 0,00 0,00 4.698,52 21.239,60 30/06/2021
635 446601 DANIEL VIEIRA BUENO ANALISTA DO MP SÃO DOMINGOS DO PRATA - COMARCA; SAO DOMINGOS DO PRATA-PJ-UNPJ 8.858,43 885,84 0,00 4.872,14 3.248,09 0,00 0,00 2.486,39 20.350,89 1.371,36 2.274,28 0,00 0,00 3.645,64 16.705,25 30/06/2021
636 253200 DANIELA BATISTA LIMA BARBOSA ASSESSOR BELO HORIZONTE - COMARCA; CENTRAL DE APOIO TECN-SETOR DE MEIO AMBIENTE 0,00 1.540,90 5.136,32 3.338,61 0,00 0,00 0,00 1.717,00 11.732,83 751,99 1.089,53 0,00 0,00 1.841,52 9.891,31 30/06/2021
637 505800 DANIELA BORGES DE MATTOS RESENDE ANALISTA DO MP JUIZ DE FORA - COMARCA; JUIZ DE FORA-PJ-20PJ 10.069,62 1.006,96 0,00 3.875,54 0,00 0,00 0,00 2.486,39 17.438,51 1.584,53 1.740,95 0,00 0,00 3.325,48 14.113,03 30/06/2021
638 478000 DANIELA CARVALHO SOARES ANALISTA DO MP SÃO JOÃO DEL REI - COMARCA; SAO JOAO DEL REI-PJ-01PJ 10.069,62 2.013,92 0,00 4.182,17 0,00 0,00 0,00 1.717,00 17.982,71 1.745,64 1.973,56 0,00 0,00 3.719,20 14.263,51 30/06/2021
639 275900 DANIELA CHAGAS SODRE ANALISTA DO MP BELO HORIZONTE - COMARCA; CENTRAL DE APOIO TECNICO-SETOR CONTABIL 17.413,92 5.224,18 0,00 11.319,05 0,00 0,00 0,00 1.717,00 35.674,15 3.434,37 4.359,53 0,00 0,00 7.793,90 27.880,25 30/06/2021
640 234301 DANIELA CRUZ SOARES ANALISTA DO MP BELO HORIZONTE - COMARCA; LABORATORIO TECNOLOGIA INTELIGENCIA 18.103,37 5.431,01 0,00 11.767,19 0,00 0,00 86,29 2.658,38 38.046,24 3.577,78 4.618,71 0,00 0,00 8.196,49 29.849,75 30/06/2021
641 638000 DANIELA DE ALMEIDA BATISTA ANALISTA DO MP ANDRELÂNDIA - COMARCA; ANDRELANDIA-PJ-UNPJ 8.170,49 817,05 0,00 4.493,77 0,00 0,00 0,00 2.486,39 15.967,70 841,65 1.370,76 0,00 0,00 2.212,41 13.755,29 30/06/2021
642 301000 DANIELA DE ALMEIDA E OLIVEIRA ANALISTA DO MP BELO HORIZONTE - COMARCA; DIRETORIA DE SISTEMAS DE INFORMACAO 17.413,92 5.224,18 0,00 11.319,05 0,00 0,00 0,00 1.717,00 35.674,15 3.434,37 4.411,67 0,00 0,00 7.846,04 27.828,11 30/06/2021
643 296000 DANIELA DE AZEVEDO SILVA ANALISTA DO MP BRASÓPOLIS - COMARCA; BRASOPOLIS-PJ-UNPJ 16.750,82 5.025,25 0,00 10.888,04 0,00 0,00 0,00 1.717,00 34.381,11 3.296,45 4.212,54 0,00 0,00 7.508,99 26.872,12 30/06/2021
644 453500 DANIELA DE CASTRO SOUSA BARBOSA ANALISTA DO MP BELO HORIZONTE - COMARCA; BH-08PJ JUIZADO ESPECIAL-SECRETARIA 10.069,62 2.013,92 0,00 6.041,77 0,00 0,00 0,00 1.717,00 19.842,31 1.745,64 1.973,56 0,00 0,00 3.719,20 16.123,11 30/06/2021
645 506000 DANIELA DE OLIVEIRA CAVALIERI ANALISTA DO MP BELO HORIZONTE - COMARCA; BH-14PJ DEFESA CONSUMIDOR-GAB 005PJ 10.069,62 1.006,96 0,00 5.538,29 0,00 0,00 0,00 1.717,00 18.331,87 1.584,53 1.740,95 0,00 0,00 3.325,48 15.006,39 30/06/2021
646 546200 DANIELA DE VILHENA LEMES GONCALVES OFICIAL DO MP TRÊS CORACOES - COMARCA; TRES CORACOES-PJ-05PJ 5.387,19 538,72 0,00 2.358,39 0,00 0,00 0,00 1.717,00 10.001,30 762,96 446,18 0,00 0,00 1.209,14 8.792,16 30/06/2021
647 356400 DANIELA LEAL FERRAZ ANALISTA DO MP MONTES CLAROS - COMARCA; COORD REG PJ DEF EDUC DIR CRIANCA ADOL NORTE 14.790,66 2.958,13 0,00 8.874,40 0,00 0,00 0,00 1.717,00 28.340,19 2.652,08 3.282,24 0,00 0,00 5.934,32 22.405,87 30/06/2021
648 501000 DANIELA LOURENCO SANTOS DA SILVA GUIMARAES ANALISTA DO MP BELO HORIZONTE - COMARCA; BH-12PJ JUIZO CRIMINAL-GAB 095PJ 10.069,62 1.006,96 0,00 5.538,29 0,00 0,00 0,00 1.717,00 18.331,87 1.584,53 1.688,82 0,00 0,00 3.273,35 15.058,52 30/06/2021
649 195801 DANIELA MARIA DE OLIVEIRA QUEIROZ ANALISTA DO MP ARAGUARI - COMARCA; ARAGUARI-PJ-06PJ 13.011,52 5.204,61 0,00 9.108,07 0,00 0,00 0,00 1.717,00 29.041,20 2.726,86 3.390,19 0,00 0,00 6.117,05 22.924,15 30/06/2021
650 511400 DANIELA MARIA LARA DE OLIVEIRA ANALISTA DO MP BOA ESPERANÇA - COMARCA; BOA ESPERANCA-PJ-02PJ 10.069,62 1.006,96 0,00 3.901,61 0,00 0,00 0,00 2.486,39 17.464,58 1.584,53 1.688,82 0,00 0,00 3.273,35 14.191,23 30/06/2021
651 252101 DANIELA PAULA ALVES PENA ANALISTA DO MP CONTAGEM - COMARCA; CONTAGEM-PJ-APO TECNICO 14.324,23 5.729,69 0,00 10.026,96 0,00 0,00 0,00 1.717,00 31.797,88 3.020,90 3.814,72 0,00 0,00 6.835,62 24.962,26 30/06/2021
652 604700 DANIELA PEIXOTO NOGUEIRA COORDENADOR/OFICIAL BELO HORIZONTE - COMARCA; DIRET DE FORMACAO, APERFEIC. E POS-GRADUACAO 0,00 1.181,92 11.819,15 4.837,23 4.333,69 0,00 0,00 2.486,39 24.658,38 856,09 3.662,27 0,00 0,00 4.518,36 20.140,02 30/06/2021
653 662000 DANIELA RIBAS DE AVILA ASSESSOR BELO HORIZONTE - COMARCA; PROCURADORIA-GERAL ADJ ADM- SECRETARIA 0,00 0,00 8.170,49 4.085,25 0,00 0,00 0,00 1.717,00 13.972,74 751,99 1.500,18 0,00 0,00 2.252,17 11.720,57 30/06/2021
654 462000 DANIELA SOUSA GOMES DO AMARAL ANALISTA DO MP BETIM - COMARCA; BETIM-PJ-04PJ 10.069,62 2.013,92 0,00 4.182,17 0,00 0,00 0,00 1.717,00 17.982,71 1.745,64 1.973,56 0,00 0,00 3.719,20 14.263,51 30/06/2021
655 427000 DANIELA TEIXEIRA DINIZ ANDRADE ANALISTA DO MP BELO HORIZONTE - COMARCA; DIRETORIA DE PROJETOS DE EDIFICACOES 10.069,62 2.013,92 0,00 6.041,77 4.027,85 0,00 0,00 1.717,00 23.870,16 1.745,64 3.029,08 0,00 0,00 4.774,72 19.095,44 30/06/2021
656 337200 DANIELA TOLEDO SENIUK ANALISTA DO MP BELO HORIZONTE - COMARCA; GABINETE DE PROCURADOR DE JUSTIÇA - SALA 412 13.435,16 4.030,55 0,00 5.821,04 0,00 0,00 0,00 1.717,00 25.003,75 2.606,79 3.216,84 0,00 0,00 5.823,63 19.180,12 30/06/2021
657 605600 DANIELE ALZIRA SILVA CABRAL MOREIRA OFICIAL DO MP BELO HORIZONTE - COMARCA; BH-10PJ EXECUÇÃO PENAL-SECRETARIA 5.930,75 593,08 0,00 3.261,92 0,00 0,00 0,00 2.486,39 12.272,14 856,09 689,27 0,00 0,00 1.545,36 10.726,78 30/06/2021
658 195500 DANIELE CHAVES FONSECA OFICIAL DO MP BELO HORIZONTE - COMARCA; ASSESSORIA ESPECIAL DO PGJ 15.499,20 6.199,68 0,00 10.849,44 0,00 0,00 0,00 1.717,00 34.265,32 3.284,10 4.194,70 0,00 0,00 7.478,80 26.786,52 30/06/2021
659 323400 DANIELE MEGALE SANTINI OFICIAL DO MP BELO HORIZONTE - COMARCA; CGMP-DIVIS DE APOIO FISC ORIENTACAO FUNCIONAL 10.069,62 3.020,89 0,00 6.545,26 0,00 0,00 0,00 1.717,00 21.352,77 1.906,76 2.154,03 0,00 0,00 4.060,79 17.291,98 30/06/2021
660 357900 DANIELE REJANE PINTO VERSIEUX OFICIAL DO MP PEDRO LEOPOLDO - COMARCA; PEDRO LEOPOLDO-PJ-03PJ 9.146,93 1.829,39 0,00 5.488,16 0,00 0,00 0,00 1.717,00 18.181,48 1.568,49 1.717,79 0,00 0,00 3.286,28 14.895,20 30/06/2021
661 389500 DANIELE VASCONCELOS AMORIM PRADO OFICIAL DO MP SÃO SEBASTIÃO DO PARAÍSO - COMARCA; SAO SEBASTIAO DO PARAISO-PJ-04PJ 8.858,43 1.771,69 0,00 5.315,06 0,00 0,00 0,00 1.717,00 17.662,18 1.513,10 1.637,82 0,00 0,00 3.150,92 14.511,26 30/06/2021
662 629700 DANIELLA BASTOS MARTINS BICALHO OFICIAL DO MP GOVERNADOR VALADARES - COMARCA; GOVERNADOR VALADARES-PJ-16PJ 5.387,19 538,72 0,00 0,00 0,00 0,00 0,00 1.717,00 7.642,91 762,96 550,45 0,00 0,00 1.313,41 6.329,50 30/06/2021
663 265000 DANIELLE CASTANHEIRA SCALABRINI OFICIAL DO MP BELO HORIZONTE - COMARCA; JUNTA RECURSAL DO PROCON ESTADUAL 10.069,62 3.020,89 0,00 6.545,26 0,00 0,00 0,00 1.717,00 21.352,77 1.906,76 2.101,90 0,00 0,00 4.008,66 17.344,11 30/06/2021
664 490100 DANIELLE DE AVILA SILVA LOPES ANALISTA DO MP BELO HORIZONTE - COMARCA; PROC. JUSTICA DIR. DIFUSOS E COLETIVOS-SEC 10.069,62 3.020,89 0,00 6.545,26 0,00 0,00 0,00 2.486,39 22.122,16 1.906,76 2.206,17 0,00 0,00 4.112,93 18.009,23 30/06/2021
665 549600 DANIELLE GOMES LOPES RODRIGUES OFICIAL DO MP VESPASIANO - COMARCA; VESPASIANO-PJ-02PJ 5.930,75 593,08 0,00 0,00 0,00 0,00 0,00 1.717,00 8.240,83 856,09 689,27 0,00 0,00 1.545,36 6.695,47 30/06/2021
666 613000 DANIELLE SILVA OLIVEIRA FRANKLIN ASSESSOR/OFICIAL BELO HORIZONTE - COMARCA; DIRETORIA DE ORCAMENTO-DIOR/SPC 0,00 1.039,75 10.397,52 0,00 0,00 0,00 0,00 3.255,78 14.693,05 762,96 2.066,08 0,00 0,00 2.829,04 11.864,01 30/06/2021
667 380800 DANILLO RIBEIRO ANTUNES ANALISTA DO MP MONTES CLAROS - COMARCA; MONTES CLAROS-PJ-SECRETARIA 14.324,23 2.864,85 0,00 8.594,54 0,00 0,00 0,00 1.717,00 27.500,62 2.562,53 3.100,80 0,00 0,00 5.663,33 21.837,29 30/06/2021
668 453700 DANILO BOTELHO DE CARVALHO DIRETOR/ANALISTA BELO HORIZONTE - COMARCA; SUPERINTENDENCIA DE FINANCAS 0,00 3.482,78 17.413,92 11.905,14 0,00 0,00 0,00 2.486,39 35.288,23 2.231,73 4.263,51 0,00 0,00 6.495,24 28.792,99 30/06/2021
669 391200 DANILO D'AVILA MENDES ANALISTA DO MP MONTES CLAROS - COMARCA; GAECO REGIONAL DE MONTES CLAROS 14.324,23 2.864,85 0,00 8.594,54 0,00 0,00 0,00 2.486,39 28.270,01 2.562,53 3.152,94 0,00 0,00 5.715,47 22.554,54 30/06/2021
670 494900 DANILO GAVIAO AVELINO DE MELLO ANALISTA DO MP POUSO ALEGRE - COMARCA; GAECO REGIONAL DE POUSO ALEGRE 10.069,62 1.006,96 0,00 3.875,54 0,00 0,00 0,00 2.486,39 17.438,51 1.584,53 1.740,95 0,00 0,00 3.325,48 14.113,03 30/06/2021
671 604300 DANILO NASCIMENTO SALGADO ANALISTA DO MP JANAÚBA - COMARCA; JANAUBA-PJ-01PJ 9.146,93 914,69 0,00 5.030,81 0,00 0,00 0,00 1.717,00 16.809,43 1.422,14 1.506,50 0,00 0,00 2.928,64 13.880,79 30/06/2021
672 298300 DANUZA MONICA DE SOUZA DINIZ ANALISTA DO MP BELO HORIZONTE - COMARCA; CAO-FUNDACOES 13.872,60 4.161,78 0,00 9.017,19 0,00 0,00 0,00 1.717,00 28.768,57 2.697,78 3.296,07 0,00 0,00 5.993,85 22.774,72 30/06/2021
673 398700 DARCY LUIZ MILEO GREGATTI OFICIAL DO MP LAMBARI - COMARCA; LAMBARI-PJ-SECRETARIA 8.579,10 1.715,82 0,00 3.637,53 0,00 0,00 0,00 1.717,00 15.649,45 1.459,46 1.560,39 0,00 0,00 3.019,85 12.629,60 30/06/2021
674 406200 DARIANA AUGUSTA DE TOLEDO PATROCINIO RUIZ COORDENADOR/OFICIAL BELO HORIZONTE - COMARCA; DIRETORIA GESTAO COMPRAS LICITACOES 0,00 2.687,03 13.435,16 8.061,10 0,00 0,00 0,00 1.717,00 25.900,29 1.513,10 3.148,14 0,00 0,00 4.661,24 21.239,05 30/06/2021
675 586901 DARIO VITORINO DE CARVALHO SILVA ASSESSOR BELO HORIZONTE - COMARCA; DIRETORIA DE SEGURANCA 0,00 0,00 17.413,92 8.706,96 0,00 0,00 0,00 1.717,00 27.837,88 751,99 3.989,98 0,00 0,00 4.741,97 23.095,91 30/06/2021
676 305000 DARLI LEITE DE OLIVEIRA OFICIAL DO MP ARAÇUAÍ - COMARCA; ARACUAI-PJ-01PJ 6.123,79 1.837,14 0,00 3.980,47 0,00 0,00 0,00 1.717,00 13.658,40 1.086,03 864,83 0,00 0,00 1.950,86 11.707,54 30/06/2021
677 703700 DAVID ALVES DOS SANTOS ASSESSOR PROMOTOR JUSTICA BELO HORIZONTE - COMARCA; PROCURADORIA-GERAL ADJ ADM- SECRETARIA 0,00 0,00 7.187,72 1.197,95 85,45 0,00 708,74 1.973,36 11.153,22 751,99 1.441,86 0,00 0,00 2.193,85 8.959,37 30/06/2021
678 122200 DAVID RIBEIRO DOS SANTOS ANALISTA DO MP BORDA DA MATA - COMARCA; BORDA DA MATA-PJ-UNPJ 18.820,14 15.056,11 0,00 16.938,13 0,00 5.232,48 496,85 7.137,20 63.680,91 5.232,48 8.446,61 0,00 0,00 13.679,09 50.001,82 30/06/2021
679 389400 DAWSON CANEDO MARQUES OFICIAL DO MP TRÊS CORACOES - COMARCA; TRES CORACOES-PJ-01PJ 8.858,43 1.771,69 0,00 5.315,06 0,00 0,00 0,00 1.717,00 17.662,18 1.513,10 911,82 0,00 0,00 2.424,92 15.237,26 30/06/2021
680 537200 DAYANE TEIXEIRA DE OLIVEIRA CASELLI ANALISTA DO MP BELO HORIZONTE - COMARCA; GABINETE DE PROCURADOR DE JUSTIÇA - SALA 705 7.421,79 742,18 0,00 4.081,99 0,00 0,00 0,00 1.717,00 13.962,96 1.118,51 1.068,14 0,00 0,00 2.186,65 11.776,31 30/06/2021
681 256100 DAYSE ROSALY PEREIRA BATISTA OFICIAL DO MP BELO HORIZONTE - COMARCA; BH-08PJ JUIZADO ESPECIAL-SECRETARIA 10.069,62 3.020,89 0,00 6.545,26 0,00 0,00 0,00 1.717,00 21.352,77 1.906,76 2.206,17 0,00 0,00 4.112,93 17.239,84 30/06/2021
682 311901 DEBORA APARECIDA DA SILVA ASSESSOR BELO HORIZONTE - COMARCA; BH-23PJ CIVEL-SETOR ATEND PUB 0,00 0,00 3.076,28 1.538,14 0,00 0,00 0,00 1.717,00 6.331,42 449,69 224,40 0,00 0,00 674,09 5.657,33 30/06/2021
683 194301 DEBORA APARECIDA DOS SANTOS ANALISTA DO MP UBERLÂNDIA - COMARCA; UBERLANDIA-PJ-SEC FAMILIA 18.820,14 7.528,06 0,00 13.174,10 0,00 0,00 0,00 1.717,00 41.239,30 4.027,99 5.216,56 0,00 0,00 9.244,55 31.994,75 30/06/2021
684 518800 DEBORA CARVALHO FIORATTO COORDENADOR/OFICIAL BELO HORIZONTE - COMARCA; DIRETORIA MATERIAIS E SERVICOS 0,00 1.343,52 13.435,16 7.389,34 0,00 0,00 0,00 1.717,00 23.885,02 1.118,51 2.887,19 0,00 0,00 4.005,70 19.879,32 30/06/2021
685 444900 DEBORA CLAUDIA PEREIRA ALVES ANALISTA DO MP BELO HORIZONTE - COMARCA; BH-08PJ JUIZADO ESPECIAL-SECRETARIA 10.069,62 2.013,92 0,00 4.182,17 0,00 0,00 0,00 1.717,00 17.982,71 1.745,64 1.973,56 0,00 0,00 3.719,20 14.263,51 30/06/2021
686 617700 DEBORA COMANDUCI SCHREIDER ANALISTA DO MP BICAS - COMARCA; BICAS-PJ-UNPJ 8.436,53 843,65 0,00 4.640,09 0,00 0,00 0,00 1.717,00 15.637,27 1.297,11 1.273,85 0,00 0,00 2.570,96 13.066,31 30/06/2021
687 555700 DEBORA CRISTINA BUITRAGO PEREIRA ANALISTA DO MP BELO HORIZONTE - COMARCA; DIRETORIA GESTAO CONTRATOS CONVENIOS 9.146,93 914,69 0,00 5.030,81 0,00 0,00 0,00 3.255,78 18.348,21 1.422,14 1.506,50 0,00 0,00 2.928,64 15.419,57 30/06/2021
688 513100 DEBORA CRISTINA PEREIRA DE OLIVEIRA ANALISTA DO MP BELO HORIZONTE - COMARCA; BH-23PJ CIVEL-SETOR JURIDICO 10.069,62 1.006,96 0,00 5.538,29 0,00 0,00 0,00 1.717,00 18.331,87 1.584,53 1.740,95 0,00 0,00 3.325,48 15.006,39 30/06/2021
689 612100 DEBORA DUARTE SILVA DE SOUZA OFICIAL DO MP RIBEIRÃO DAS NEVES - COMARCA; RIBEIRAO DAS NEVES-PJ-06PJ 5.387,19 1.616,16 0,00 3.501,68 0,00 0,00 0,00 1.717,00 12.222,03 932,81 695,76 0,00 0,00 1.628,57 10.593,46 30/06/2021
690 539700 DEBORA SALES CARVALHO ANALISTA DO MP PATOS DE MINAS - COMARCA; COORD REG PJ DEF EDU DIR CRI ADO AL PAR NOROE 9.146,93 914,69 0,00 5.030,81 0,00 0,00 0,00 1.717,00 16.809,43 1.422,14 1.506,50 0,00 0,00 2.928,64 13.880,79 30/06/2021
691 424100 DEBORA SANTOS E ALVES ANALISTA DO MP JANUÁRIA - COMARCA; JANUARIA-PJ-01PJ 13.011,52 2.602,30 0,00 7.806,91 0,00 0,00 0,00 3.255,78 26.676,51 2.310,49 2.789,06 0,00 0,00 5.099,55 21.576,96 30/06/2021
692 426301 DEBORA SCUCATO MACHADO SOARES OFICIAL DO MP ITABIRITO - COMARCA; ITABIRITO-PJ-01PJ 5.930,75 1.186,15 0,00 0,00 0,00 0,00 0,00 2.486,39 9.603,29 950,98 826,27 0,00 0,00 1.777,25 7.826,04 30/06/2021
693 678100 DEBORA SOUZA COSTA ASSESSOR PROMOTOR JUSTICA BOTELHOS - COMARCA; BOTELHOS-PJ-UNPJ 0,00 0,00 7.187,72 0,00 0,00 0,00 0,00 2.486,39 9.674,11 751,99 1.177,78 0,00 0,00 1.929,77 7.744,34 30/06/2021
694 550200 DEBORA TRINDADE LEITE ANALISTA DO MP MANHUAÇU - COMARCA; MANHUACU-PJ-05PJ 9.146,93 914,69 0,00 5.030,81 0,00 0,00 0,00 1.717,00 16.809,43 1.422,14 1.402,22 0,00 0,00 2.824,36 13.985,07 30/06/2021
695 438000 DEBORAH COSTA LAGE ANALISTA DO MP BELO HORIZONTE - COMARCA; PROC JUST ATUACAO TRIBUNAIS SUPERIORES-GAB004 13.011,52 2.602,30 0,00 7.806,91 0,00 0,00 0,00 1.717,00 25.137,73 2.310,49 2.789,06 0,00 0,00 5.099,55 20.038,18 30/06/2021
696 475700 DEBORAH LOBAO LACERDA ASSESSOR/OFICIAL BELO HORIZONTE - COMARCA; BH-17PJ PATRIMONIO PUBLICO-SECRETARIA 0,00 1.634,10 8.170,49 4.902,30 0,00 0,00 0,00 1.717,00 16.423,89 988,05 1.555,19 0,00 0,00 2.543,24 13.880,65 30/06/2021
697 678500 DEBORAH PESSOA DA SILVA GUEDES ASSESSOR PROCURADOR JUSTICA BELO HORIZONTE - COMARCA; GABINETE DE PROCURADOR DE JUSTIÇA - SALA 703 0,00 0,00 7.187,72 3.593,86 0,00 0,00 0,00 1.717,00 12.498,58 751,99 1.229,92 0,00 0,00 1.981,91 10.516,67 30/06/2021
698 613700 DEISER MARIA FERREIRA ROSCOE OFICIAL DO MP BELO HORIZONTE - COMARCA; DIVISÃO DE EDUCAÇÃO PARA O CONSUMO 5.387,19 538,72 0,00 2.962,96 0,00 0,00 0,00 1.717,00 10.605,87 762,96 550,45 0,00 0,00 1.313,41 9.292,46 30/06/2021
699 551900 DEISY ROCHA DA SILVA ANALISTA DO MP CARMO DO PARANAÍBA - COMARCA; CARMO DO PARANAIBA-PJ-01PJ 9.146,93 914,69 0,00 5.030,81 0,00 0,00 0,00 1.717,00 16.809,43 1.422,14 1.506,50 0,00 0,00 2.928,64 13.880,79 30/06/2021
700 501900 DELI RAQUEL RODRIGUES ANALISTA DO MP ITUIUTABA - COMARCA; ITUIUTABA-PJ-04PJ 10.069,62 1.006,96 0,00 0,00 0,00 0,00 0,00 1.717,00 12.793,58 1.584,53 1.740,95 0,00 0,00 3.325,48 9.468,10 30/06/2021
701 378600 DELIANE LOPES VIEIRA BREIJAO ANALISTA DO MP JUIZ DE FORA - COMARCA; JUIZ DE FORA-PJ-12PJ 14.324,23 2.864,85 0,00 8.594,54 0,00 0,00 0,00 1.717,00 27.500,62 2.562,53 3.100,80 0,00 0,00 5.663,33 21.837,29 30/06/2021
702 487700 DENIA FERREIRA MAIA SILVA OFICIAL DO MP TRÊS CORACOES - COMARCA; TRES CORACOES-PJ-04PJ 6.123,79 612,38 0,00 2.606,03 0,00 0,00 0,00 2.486,39 11.828,59 890,06 634,05 0,00 0,00 1.524,11 10.304,48 30/06/2021
703 424800 DENIS APARECIDO CAMPOS DELFINO ANALISTA DO MP LUZ - COMARCA; LUZ-PJ-UNPJ 12.601,30 2.520,26 0,00 7.560,78 0,00 0,00 0,00 2.486,39 25.168,73 2.231,73 2.466,79 0,00 0,00 4.698,52 20.470,21 30/06/2021
704 381400 DENISE ANGELICA MELLO DE PAULA OFICIAL DO MP BELO HORIZONTE - COMARCA; BH-18PJ DIREITOS HUMANOS-SECRETARIA 8.858,43 1.771,69 0,00 5.315,06 0,00 0,00 0,00 2.486,39 18.431,57 1.513,10 1.637,82 0,00 0,00 3.150,92 15.280,65 30/06/2021
705 702100 DENISE CANDIDO LIMA MACEDO KATOPODIS ASSESSOR PROCURADOR JUSTICA BELO HORIZONTE - COMARCA; COORD DE CONTROLE DA CONSTITUCIONALIDADE 0,00 0,00 7.187,72 2.395,91 0,00 0,00 0,00 1.717,00 11.300,63 751,99 1.229,92 0,00 0,00 1.981,91 9.318,72 30/06/2021
706 196300 DENISE DE ALMEIDA VILELA FURTADO OFICIAL DO MP BELO HORIZONTE - COMARCA; CENTRAL DE APOIO TECNICO-SECRETARIA 12.204,02 4.881,61 0,00 8.542,82 0,00 0,00 0,00 2.870,54 28.498,99 2.545,98 3.129,04 0,00 0,00 5.675,02 22.823,97 30/06/2021
707 271100 DENISE ELOY PEIXOTO OFICIAL DO MP BELO HORIZONTE - COMARCA; DIRETORIA DE INTELIGENCIA 12.601,30 3.780,39 0,00 8.190,85 0,00 0,00 0,00 1.717,00 26.289,54 2.433,35 2.966,43 0,00 0,00 5.399,78 20.889,76 30/06/2021
708 385400 DENISE FREITAS DE ASSIS ASSESSOR/OFICIAL CARATINGA - COMARCA; CARATINGA-PJ-SECRETARIA 0,00 2.079,50 10.397,52 6.238,51 0,00 0,00 0,00 1.717,00 20.432,53 1.459,46 2.160,47 0,00 0,00 3.619,93 16.812,60 30/06/2021
709 437100 DENISE NOGUEIRA MAGRI MENDES ANALISTA DO MP BELO HORIZONTE - COMARCA; LAB TECNOLOGIA CONTRA LAVAGEM DINHEIRO 13.011,52 3.903,46 0,00 0,00 0,00 0,00 0,00 1.717,00 18.631,98 2.518,67 2.933,21 0,00 0,00 5.451,88 13.180,10 30/06/2021
710 524700 DENISE RAMOS GUIMARAES OFICIAL DO MP BELO HORIZONTE - COMARCA; BH-07PJ 01 TRIBUNAL JURI-SECRETARIA 6.123,79 612,38 0,00 3.368,09 0,00 0,00 0,00 1.717,00 11.821,26 890,06 738,32 0,00 0,00 1.628,38 10.192,88 30/06/2021
711 239100 DENISE RIBEIRO DOS SANTOS CAETANO OFICIAL DO MP ITANHANDU - COMARCA; ITANHANDU-PJ-SECRETARIA 12.601,30 3.780,39 0,00 8.190,85 0,00 0,00 0,00 1.717,00 26.289,54 2.433,35 2.914,30 0,00 0,00 5.347,65 20.941,89 30/06/2021
712 325500 DENISE ROSA TORRES OFICIAL DO MP BELO HORIZONTE - COMARCA; DIRETORIA DE PESSOAL ADMINISTRATIVO - DPAD 10.069,62 3.020,89 0,00 6.545,26 0,00 0,00 0,00 1.717,00 21.352,77 1.906,76 2.206,17 0,00 0,00 4.112,93 17.239,84 30/06/2021
713 437200 DENISE VIVIANE DOS SANTOS ANALISTA DO MP BELO HORIZONTE - COMARCA; ASSESS TECNICA DA CORREGEDORIA-GERAL DO MP 11.085,56 2.217,11 0,00 6.651,34 4.434,22 0,00 0,00 2.870,54 27.258,77 1.940,70 3.370,32 0,00 0,00 5.311,02 21.947,75 30/06/2021
714 267900 DENISIA DE ALMEIDA SALES OFICIAL DO MP BELO HORIZONTE - COMARCA; BH-18PJ DIREITOS HUMANOS-SECRETARIA 9.444,70 2.833,41 0,00 6.139,06 0,00 0,00 0,00 1.717,00 20.134,17 1.776,77 1.966,37 0,00 0,00 3.743,14 16.391,03 30/06/2021
715 480300 DESIREE ARANTES FERREIRA GOUVEA OFICIAL DO MP PRATÁPOLIS - COMARCA; PRATAPOLIS-PJ-UNPJ 6.123,79 1.224,76 0,00 2.740,36 0,00 0,00 0,00 1.717,00 11.805,91 988,05 879,78 0,00 0,00 1.867,83 9.938,08 30/06/2021
716 355300 DEYSE CRISTINA MORAIS OFICIAL DO MP PASSOS - COMARCA; PASSOS-PJ-02PJ 9.444,70 1.888,94 0,00 5.666,82 0,00 0,00 0,00 1.717,00 18.717,46 1.625,66 1.800,33 0,00 0,00 3.425,99 15.291,47 30/06/2021
717 523700 DIANA CAMPOS RESENDE OFICIAL DO MP SÃO JOÃO DEL REI - COMARCA; SAO JOAO DEL REI-PJ-04PJ 7.421,79 3.710,90 0,00 5.566,35 0,00 0,00 0,00 1.717,00 18.416,04 1.593,51 1.701,78 0,00 0,00 3.295,29 15.120,75 30/06/2021
718 241900 DIANA CARDOSO MARTINS OFICIAL DO MP BELO HORIZONTE - COMARCA; CAO-CRIMINAL 9.146,93 2.744,08 0,00 5.945,51 0,00 0,00 0,00 1.717,00 19.553,52 1.714,84 1.929,09 0,00 0,00 3.643,93 15.909,59 30/06/2021
719 410100 DIANA GORDILHO SILVEIRA SENA ANALISTA DO MP BELO HORIZONTE - COMARCA; BH-06PJ JUIZO CIVEL-SECRETARIA 13.011,52 2.602,30 0,00 7.806,91 0,00 0,00 0,00 1.717,00 25.137,73 2.310,49 2.789,06 0,00 0,00 5.099,55 20.038,18 30/06/2021
720 553000 DIANA MARIA MARQUES ANALISTA DO MP BETIM - COMARCA; BETIM-PJ-13PJ 9.146,93 914,69 0,00 5.030,81 0,00 0,00 0,00 1.717,00 16.809,43 1.422,14 1.454,36 0,00 0,00 2.876,50 13.932,93 30/06/2021
721 520000 DIARLE TOSTE DOS SANTOS ANALISTA DO MP RIO POMBA - COMARCA; RIO POMBA-PJ-UNPJ 10.069,62 1.006,96 0,00 5.538,29 0,00 0,00 0,00 1.717,00 18.331,87 1.584,53 1.083,82 0,00 0,00 2.668,35 15.663,52 30/06/2021
722 539800 DIEGO CAMARGOS RODRIGUES OFICIAL DO MP CONTAGEM - COMARCA; CONTAGEM-PJ-05PJ 5.930,75 593,08 0,00 3.261,92 0,00 0,00 0,00 1.717,00 11.502,75 856,09 689,27 0,00 0,00 1.545,36 9.957,39 30/06/2021
723 607300 DIEGO CERVEIRA DE SOUZA ANALISTA DO MP PATOS DE MINAS - COMARCA; COORD REG BACIAS PARACATU,URUCUIA E ABAETE 10.069,62 1.006,96 0,00 5.538,29 0,00 0,00 0,00 1.717,00 18.331,87 1.584,53 1.740,95 0,00 0,00 3.325,48 15.006,39 30/06/2021
724 446900 DIEGO DE FREITAS OFICIAL DO MP UBERABA - COMARCA; UBERABA-PJ-06PJ 8.170,49 1.634,10 0,00 4.902,30 0,00 0,00 0,00 1.717,00 16.423,89 1.381,01 1.447,12 0,00 0,00 2.828,13 13.595,76 30/06/2021
725 288800 DILENE NEPOMUCENO ALVES OFICIAL DO MP BELO HORIZONTE - COMARCA; DIRETORIA DE PESSOAL ADMINISTRATIVO - DPAD 10.069,62 3.020,89 0,00 4.488,79 0,00 0,00 0,00 1.717,00 19.296,30 1.906,76 2.206,17 0,00 0,00 4.112,93 15.183,37 30/06/2021
726 681200 DILLIANY PAULA LOPES SERRANO ASSESSOR PROMOTOR JUSTICA RESPLENDOR - COMARCA; RESPLENDOR-PJ-UNPJ 0,00 0,00 7.187,72 0,00 0,00 0,00 0,00 1.717,00 8.904,72 751,99 1.229,92 0,00 0,00 1.981,91 6.922,81 30/06/2021
727 270101 DILSON DO AMARAL ANALISTA DO MP RIO CASCA - COMARCA; RIO CASCA-PJ-UNPJ 9.146,93 914,69 0,00 5.030,81 0,00 0,00 0,00 1.717,00 16.809,43 1.422,14 1.506,50 0,00 0,00 2.928,64 13.880,79 30/06/2021
728 466000 DIMITRI GUDE MARCIAL ANALISTA DO MP NANUQUE - COMARCA; NANUQUE-PJ-02PJ 10.069,62 1.006,96 0,00 5.538,29 0,00 0,00 0,00 2.486,39 19.101,26 1.584,53 1.636,68 0,00 0,00 3.221,21 15.880,05 30/06/2021
729 516300 DINORA APARECIDA MACEDO BRANDAO ANALISTA DO MP BELO HORIZONTE - COMARCA; BH-19PJ SAUDE-SECRETARIA 150PJ 9.444,70 944,47 0,00 5.194,59 0,00 0,00 0,00 1.717,00 17.300,76 1.474,54 1.582,16 0,00 0,00 3.056,70 14.244,06 30/06/2021
730 511700 DIOGENES HENRIQUES PEREIRA LOURENCO ANALISTA DO MP CONTAGEM - COMARCA; CONTAGEM-PJ-25PJ 10.069,62 1.006,96 0,00 5.538,29 0,00 0,00 0,00 1.717,00 18.331,87 1.584,53 1.740,95 0,00 0,00 3.325,48 15.006,39 30/06/2021
731 604100 DIOGO CESAR DE OLIVEIRA HONORIO ASSESSOR PIUMHI - COMARCA; PIUMHI-PJ-02PJ 0,00 0,00 5.136,32 0,00 0,00 0,00 0,00 1.717,00 6.853,32 738,09 669,60 0,00 0,00 1.407,69 5.445,63 30/06/2021
732 387800 DIOGO FELIX DA SILVA OFICIAL DO MP CONSELHEIRO PENA - COMARCA; CONSELHEIRO PENA-PJ-01PJ 8.170,49 1.634,10 0,00 3.488,23 0,00 0,00 0,00 2.442,76 15.735,58 1.381,01 1.447,12 0,00 0,00 2.828,13 12.907,45 30/06/2021
733 259600 DIOGO MESQUITA MAIA ANALISTA DO MP BELO HORIZONTE - COMARCA; DIRET DE APOIO AS PROCURADORIAS DE JUSTICA 16.750,82 13.400,66 0,00 15.075,74 0,00 4.636,51 442,22 6.541,24 56.847,19 4.636,51 7.370,16 0,00 0,00 12.006,67 44.840,52 30/06/2021
734 386700 DIRCIMAR FERNANDES CARNEIRO OFICIAL DO MP VISCONDE DO RIO BRANCO - COMARCA; VISCONDE DO RIO BRANCO-PJ-03PJ 8.858,43 6.200,90 0,00 7.529,67 0,00 0,00 0,00 1.747,90 24.336,90 2.221,77 2.660,97 0,00 0,00 4.882,74 19.454,16 30/06/2021
735 113800 DIRSON APARECIDO GUIMARAES ASSESSOR BELO HORIZONTE - COMARCA; DIVISAO DE MANUTENCAO PREDIAL 0,00 4.622,69 5.136,32 4.879,51 0,00 0,00 0,00 1.717,00 16.355,52 751,99 1.937,02 0,00 0,00 2.689,01 13.666,51 30/06/2021
736 216700 DOMICIO VALDETE PEREIRA OFICIAL DO MP TEÓFILO OTONI - COMARCA; COORD REG PJ DEF EDU DIR CRIAN ADOL JEQUI MUC 14.790,66 5.916,26 0,00 10.353,46 0,00 0,00 0,00 1.717,00 32.777,38 3.125,38 3.861,29 0,00 0,00 6.986,67 25.790,71 30/06/2021
737 192701 DONIZETTI APARECIDO AMORIM ANALISTA DO MP PRATÁPOLIS - COMARCA; PRATAPOLIS-PJ-UNPJ 9.752,14 3.900,86 0,00 6.826,50 0,00 0,00 0,00 1.717,00 22.196,50 1.996,76 2.283,97 0,00 0,00 4.280,73 17.915,77 30/06/2021
738 558700 DORCILIA FATIMA DE OLIVEIRA OFICIAL DO MP DIVINÓPOLIS - COMARCA; DIVINOPOLIS-PJ-02PJ 5.930,75 593,08 0,00 3.261,92 0,00 1.341,21 0,00 1.717,00 12.843,96 856,09 1.005,96 0,00 0,00 1.862,05 10.981,91 30/06/2021
739 555300 DOUGLAS CUNHA DE SOUZA ANALISTA DO MP VARZEA DA PALMA - COMARCA; VARZEA DA PALMA-PJ-01PJ 9.146,93 914,69 0,00 3.566,49 0,00 0,00 0,00 1.717,00 15.345,11 1.422,14 1.506,50 0,00 0,00 2.928,64 12.416,47 30/06/2021
740 265900 DOUGLAS GOMES MOREIRA ANALISTA DO MP BELO HORIZONTE - COMARCA; CENTRAL DE APOIO TECNICO-SETOR DE ENGENHARIA 18.820,14 5.646,04 0,00 12.233,09 0,00 0,00 0,00 1.717,00 38.416,27 3.726,87 4.833,95 0,00 0,00 8.560,82 29.855,45 30/06/2021
741 241000 DOUGLAS MEIRELLES DE CASTRO OFICIAL DO MP CONCEIÇÃO DO RIO VERDE - COMARCA; CONCEICAO DO RIO VERDE-PJ-UNPJ 12.601,30 5.040,52 0,00 8.820,91 0,00 0,00 0,00 1.717,00 28.179,73 2.634,97 3.153,25 0,00 0,00 5.788,22 22.391,51 30/06/2021
742 534900 DOUGLAS SILVA E SOUZA ANALISTA DO MP CAMPOS GERAIS - COMARCA; CAMPOS GERAIS-PJ-UNPJ 9.146,93 914,69 0,00 5.030,81 0,00 0,00 0,00 1.717,00 16.809,43 1.422,14 1.454,36 0,00 0,00 2.876,50 13.932,93 30/06/2021
743 638900 DOUGLAS WALLAS CONCEICAO NEVES OFICIAL DO MP RIBEIRÃO DAS NEVES - COMARCA; RIBEIRAO DAS NEVES-PJ-SEC CIVEL 4.817,57 481,76 0,00 2.649,67 0,00 0,00 0,00 1.717,00 9.666,00 668,35 405,84 0,00 0,00 1.074,19 8.591,81 30/06/2021
744 146800 DUCINALVA AMARAL LOPES REIS OFICIAL DO MP PARAISÓPOLIS - COMARCA; PARAISOPOLIS-PJ-UNPJ 18.820,14 13.174,10 0,00 15.997,12 0,00 4.931,36 0,00 1.717,00 54.639,72 4.931,36 7.824,78 0,00 0,00 12.756,14 41.883,58 30/06/2021
745 122500 DUILIO CARLOS FERREIRA UTSCH OFICIAL DO MP CONCEIÇÃO DO MATO DENTRO - COMARCA; CONCEICAO DO MATO DENTRO-PJ-UNPJ 14.790,66 11.832,53 0,00 10.085,59 0,00 4.071,99 488,09 7.041,64 48.310,50 4.071,99 6.452,02 0,00 0,00 10.524,01 37.786,49 30/06/2021
746 201800 DULCINEIA ANDRE DE SOUZA OFICIAL DO MP JEQUITINHONHA - COMARCA; JEQUITINHONHA-PJ-SECRETARIA 14.790,66 5.916,26 0,00 10.353,46 0,00 0,00 0,00 1.717,00 32.777,38 3.125,38 3.757,01 0,00 0,00 6.882,39 25.894,99 30/06/2021
747 395800 DUVIDIER MEDIRCIO JUNIOR ANALISTA DO MP BELO HORIZONTE - COMARCA; CENTRAL DE APOIO TECNICO-SETOR DE ENGENHARIA 14.324,23 2.864,85 0,00 8.594,54 0,00 0,00 0,00 1.717,00 27.500,62 2.562,53 3.152,94 0,00 0,00 5.715,47 21.785,15 30/06/2021
748 604800 ECIA RAMILIS ISSA DE ABREU ANALISTA DO MP BRASÍLIA DE MINAS - COMARCA; BRASILIA DE MINAS-PJ-01PJ 9.146,93 914,69 0,00 3.566,49 0,00 0,00 0,00 1.717,00 15.345,11 1.422,14 1.506,50 0,00 0,00 2.928,64 12.416,47 30/06/2021
749 273000 EDELFINA APARECIDA GUIMARAES OFICIAL DO MP CACHOEIRA DE MINAS - COMARCA; CACHOEIRA DE MINAS-PJ-UNPJ 10.069,62 7.048,73 0,00 8.559,18 0,00 0,00 0,00 1.717,00 27.394,53 2.551,21 3.084,47 0,00 0,00 5.635,68 21.758,85 30/06/2021
750 523300 EDER DOS SANTOS PATRICIO ANALISTA DO MP NOVA SERRANA - COMARCA; NOVA SERRANA-PJ-03PJ 10.069,62 1.006,96 0,00 5.538,29 0,00 0,00 0,00 2.486,39 19.101,26 1.584,53 1.740,95 0,00 0,00 3.325,48 15.775,78 30/06/2021
751 356700 EDER JOSE PACHECO OFICIAL DO MP CAMPO BELO - COMARCA; CAMPO BELO-PJ-SECRETARIA 9.146,93 1.829,39 0,00 3.897,15 0,00 0,00 0,00 2.714,13 17.587,60 1.568,49 1.613,52 0,00 0,00 3.182,01 14.405,59 30/06/2021
752 507900 EDERSON SILVA LOPES OFICIAL DO MP BELO HORIZONTE - COMARCA; LABORATORIO TECNOLOGIA INTELIGENCIA 6.123,79 612,38 0,00 2.606,03 0,00 0,00 0,00 1.717,00 11.059,20 890,06 634,05 0,00 0,00 1.524,11 9.535,09 30/06/2021
753 296200 EDGARD GOULART MATOSINHO DE LAET JR ANALISTA DO MP GOVERNADOR VALADARES - COMARCA; GAECO REGIONAL DE GOVERNADOR VALADARES 16.750,82 5.025,25 0,00 10.888,04 0,00 0,00 0,00 1.717,00 34.381,11 3.296,45 4.108,26 0,00 0,00 7.404,71 26.976,40 30/06/2021
754 295000 EDILA MARIA DA SILVEIRA OFICIAL DO MP FORMIGA - COMARCA; FORMIGA-PJ-01PJ 8.858,43 2.657,53 0,00 4.009,33 0,00 0,00 0,00 1.717,00 17.242,29 1.654,83 1.842,45 0,00 0,00 3.497,28 13.745,01 30/06/2021
755 332300 EDILA MARILAC MIRANDA PRADO OFICIAL DO MP DIAMANTINA - COMARCA; DIAMANTINA-PJ-01PJ 10.069,62 5.034,81 0,00 7.552,22 0,00 0,00 0,00 3.255,78 25.912,43 2.228,99 2.567,11 0,00 0,00 4.796,10 21.116,33 30/06/2021
756 376600 EDILANE CONSOLACAO ROSA NAZARETH ANALISTA DO MP BETIM - COMARCA; BETIM-PJ-10PJ 14.324,23 2.864,85 0,00 5.736,80 0,00 0,00 0,00 1.717,00 24.642,88 2.562,53 3.152,94 0,00 0,00 5.715,47 18.927,41 30/06/2021
757 309800 EDILZA DOS REIS OFICIAL DO MP UBERLÂNDIA - COMARCA; UBERLANDIA-PJ-03PJ 10.069,62 3.020,89 0,00 6.545,26 0,00 0,00 0,00 1.717,00 21.352,77 1.906,76 2.206,17 0,00 0,00 4.112,93 17.239,84 30/06/2021
758 200500 EDINEIA MARIA DE OLIVEIRA ANTUNES OFICIAL DO MP MONTES CLAROS - COMARCA; MONTES CLAROS-PJ-10PJ 14.790,66 5.916,26 0,00 10.353,46 0,00 0,00 0,00 1.717,00 32.777,38 3.125,38 3.965,56 0,00 0,00 7.090,94 25.686,44 30/06/2021
759 427700 EDISANGELA SOARES LOPES OFICIAL DO MP PIRAPORA - COMARCA; PIRAPORA-PJ-02PJ 6.123,79 1.224,76 0,00 2.740,36 0,00 0,00 0,00 1.717,00 11.805,91 988,05 879,78 0,00 0,00 1.867,83 9.938,08 30/06/2021
760 555400 EDISON MONTEIRO SAMPAIO NETO ANALISTA DO MP BELO HORIZONTE - COMARCA; BH-12PJ JUIZO CRIMINAL-GAB 094PJ 9.146,93 914,69 0,00 5.030,81 0,00 0,00 0,00 1.717,00 16.809,43 1.422,14 1.506,50 0,00 0,00 2.928,64 13.880,79 30/06/2021
761 517700 EDMILSON TADEU FERNANDES OFICIAL DO MP POUSO ALEGRE - COMARCA; GAECO REGIONAL DE POUSO ALEGRE 6.741,63 674,16 0,00 3.707,90 0,00 0,00 0,00 1.717,00 12.840,69 998,80 895,31 0,00 0,00 1.894,11 10.946,58 30/06/2021
762 358400 EDNA APARECIDA SILVA FERREIRA OFICIAL DO MP CORONEL FABRICIANO - COMARCA; CORONEL FABRICIANO-PJ-02PJ 9.146,93 1.829,39 0,00 5.488,16 0,00 0,00 0,00 1.717,00 18.181,48 1.568,49 1.613,52 0,00 0,00 3.182,01 14.999,47 30/06/2021
763 331800 EDNA MARCIA CAMILO DA SILVA OFICIAL DO MP SETE LAGOAS - COMARCA; SETE LAGOAS-PJ-SEC CRIMINAIS 10.069,62 3.020,89 0,00 6.545,26 0,00 0,00 527,98 7.476,82 27.640,57 1.906,76 2.154,03 0,00 0,00 4.060,79 23.579,78 30/06/2021
764 327900 EDRIEL SANTANA PEREIRA OFICIAL DO MP TUPACIGUARA - COMARCA; TUPACIGUARA-PJ-UNPJ 10.069,62 3.020,89 0,00 6.545,26 0,00 0,00 0,00 2.534,39 22.170,16 1.906,76 2.206,17 0,00 0,00 4.112,93 18.057,23 30/06/2021
765 482400 EDSON GARCIA OFICIAL DO MP MACHADO - COMARCA; MACHADO-PJ-02PJ 5.562,64 556,26 0,00 3.059,45 0,00 0,00 0,00 1.717,00 10.895,35 792,88 491,02 0,00 0,00 1.283,90 9.611,45 30/06/2021
766 225601 EDSON LABRE FILHO ANALISTA DO MP VARGINHA - COMARCA; VARGINHA-PJ-01PJ 16.750,82 5.025,25 0,00 10.888,04 0,00 0,00 0,00 1.717,00 34.381,11 3.296,45 4.160,40 0,00 0,00 7.456,85 26.924,26 30/06/2021
767 602700 EDSON NOGUEIRA BUENO OFICIAL DO MP PITANGUI - COMARCA; PITANGUI-PJ-02PJ 5.387,19 538,72 0,00 2.962,96 0,00 0,00 0,00 1.717,00 10.605,87 762,96 550,45 0,00 0,00 1.313,41 9.292,46 30/06/2021
768 414400 EDUARDO ABRANTES CAMPOS ANALISTA DO MP SÃO JOÃO DEL REI - COMARCA; SAO JOAO DEL REI-PJ-02PJ 13.011,52 2.602,30 0,00 7.806,91 0,00 0,00 0,00 1.717,00 25.137,73 2.310,49 2.789,06 0,00 0,00 5.099,55 20.038,18 30/06/2021
769 476800 EDUARDO ALVES DE MOURA ANALISTA DO MP UBERLÂNDIA - COMARCA; UBERLANDIA-PJ-02PJ 10.069,62 2.013,92 0,00 6.041,77 0,00 0,00 0,00 2.486,39 20.611,70 1.745,64 1.817,15 0,00 0,00 3.562,79 17.048,91 30/06/2021
770 390800 EDUARDO AMORIM PETTERSEN OFICIAL DO MP CARANGOLA - COMARCA; CARANGOLA-PJ-SECRETARIA 8.579,10 1.715,82 0,00 5.147,46 0,00 0,00 0,00 2.486,39 17.928,77 1.459,46 1.560,39 0,00 0,00 3.019,85 14.908,92 30/06/2021
771 461600 EDUARDO ANTONIO DE ASSIS FARIA ASSESSOR BELO HORIZONTE - COMARCA; ASSESS EXECUTIVA DO CONSELHO SUPERIOR DO MP 0,00 0,00 8.170,49 3.176,02 0,00 0,00 0,00 2.486,39 13.832,90 751,99 1.395,90 0,00 0,00 2.147,89 11.685,01 30/06/2021
772 248800 EDUARDO DE CASTRO AMORIM ANALISTA DO MP BELO HORIZONTE - COMARCA; SUPERINTENDENCIA DE RECURSOS HUMANOS 18.820,14 5.646,04 0,00 12.233,09 0,00 0,00 0,00 1.717,00 38.416,27 3.726,87 4.833,95 0,00 0,00 8.560,82 29.855,45 30/06/2021
773 209100 EDUARDO DE SOUZA MAIA ANALISTA DO MP BELO HORIZONTE - COMARCA; SUPERINTENDENCIA DE RECURSOS HUMANOS 18.820,14 7.528,06 0,00 13.174,10 0,00 0,00 0,00 1.717,00 41.239,30 4.027,99 5.112,29 0,00 0,00 9.140,28 32.099,02 30/06/2021
774 633900 EDUARDO GONCALVES PIRES OFICIAL DO MP BELO HORIZONTE - COMARCA; DIRETORIA DE PAGAMENTO DE PESSOAL-DPAG 5.743,70 1.723,11 0,00 3.733,41 0,00 0,00 0,00 1.717,00 12.917,22 1.006,97 907,10 0,00 0,00 1.914,07 11.003,15 30/06/2021
775 350500 EDUARDO GONCALVES RIBEIRO OFICIAL DO MP VESPASIANO - COMARCA; VESPASIANO-PJ-04PJ 8.858,43 1.771,69 0,00 0,00 0,00 0,00 0,00 1.717,00 12.347,12 1.513,10 1.637,82 0,00 0,00 3.150,92 9.196,20 30/06/2021
776 115800 EDUARDO HENRIQUE DE CAMPOS MAIA OFICIAL DO MP BELO HORIZONTE - COMARCA; DIV FISCAL ADM CONT TERCEIRIZACAO 16.750,82 8.375,41 0,00 12.563,12 0,00 0,00 0,00 1.717,00 39.406,35 3.832,47 4.830,01 0,00 0,00 8.662,48 30.743,87 30/06/2021
777 392600 EDUARDO HENRIQUE DOS SANTOS COSTA ELIAZAR OFICIAL DO MP MATOZINHOS - COMARCA; MATOZINHOS-PJ-01PJ 7.912,85 1.582,57 0,00 0,00 0,00 0,00 0,00 1.717,00 11.212,42 1.331,54 1.219,30 0,00 0,00 2.550,84 8.661,58 30/06/2021
778 99101 EDUARDO JOSE DE FREITAS NUNES ASSESSOR PROCURADOR JUSTICA BELO HORIZONTE - COMARCA; PROC JUST RECURSOS ESP E EXTRAORD CRIMINAIS 0,00 0,00 7.187,72 0,00 0,00 0,00 0,00 1.717,00 8.904,72 751,99 1.229,92 0,00 0,00 1.981,91 6.922,81 30/06/2021
779 407500 EDUARDO MASCARENHAS CURI AZEVEDO COORDENADOR/ANALISTA BELO HORIZONTE - COMARCA; CENTRO JORNALISMO 0,00 2.687,03 13.435,16 8.061,10 0,00 0,00 0,00 2.486,39 26.669,68 1.745,64 3.084,19 0,00 0,00 4.829,83 21.839,85 30/06/2021
780 601300 EDUARDO TRAD VIEIRA OFICIAL DO MP SILVIANÓPOLIS - COMARCA; SILVIANOPOLIS-PJ-UNPJ 5.387,19 538,72 0,00 2.306,25 0,00 0,00 0,00 1.717,00 9.949,16 762,96 550,45 0,00 0,00 1.313,41 8.635,75 30/06/2021
781 257600 EDUARDO VALADARES CABRAL ANALISTA DO MP BELO HORIZONTE - COMARCA; COORD DE INCLUSAO E MOBILIZACAO SOCIAIS 14.790,66 4.437,20 0,00 0,00 0,00 0,00 0,00 1.717,00 20.944,86 2.888,73 3.623,90 0,00 0,00 6.512,63 14.432,23 30/06/2021
782 545700 EDVAIR FERREIRA DE CARVALHO OFICIAL DO MP ARAGUARI - COMARCA; ARAGUARI-PJ-06PJ 5.387,19 538,72 0,00 2.962,96 0,00 0,00 0,00 1.717,00 10.605,87 762,96 498,31 0,00 0,00 1.261,27 9.344,60 30/06/2021
783 401700 EDWANIA AMORIM DO CARMO OFICIAL DO MP RIBEIRÃO DAS NEVES - COMARCA; RIBEIRAO DAS NEVES-PJ-03PJ 8.858,43 1.771,69 0,00 3.739,60 0,00 0,00 0,00 1.717,00 16.086,72 1.513,10 1.637,82 0,00 0,00 3.150,92 12.935,80 30/06/2021
784 303600 EFIGENIO SARAIVA LOPES ANALISTA DO MP BELO HORIZONTE - COMARCA; DIRETORIA DE PAGAMENTO DE PESSOAL-DPAG 18.820,14 5.646,04 0,00 12.233,09 0,00 0,00 0,00 1.717,00 38.416,27 3.726,87 4.729,68 0,00 0,00 8.456,55 29.959,72 30/06/2021
785 286000 ELAINE APARECIDA SILVA BERZOINI OFICIAL DO MP JUIZ DE FORA - COMARCA; JUIZ DE FORA-PJ-14PJ 10.069,62 3.020,89 0,00 6.545,26 0,00 0,00 0,00 1.717,00 21.352,77 1.906,76 2.206,17 0,00 0,00 4.112,93 17.239,84 30/06/2021
786 509000 ELAINE CANDIDA PONTES OFICIAL DO MP BELO HORIZONTE - COMARCA; BH-02PJ FAMILIA-SECRETARIA 7.421,79 742,18 0,00 4.081,99 0,00 0,00 0,00 1.717,00 13.962,96 1.118,51 1.068,14 0,00 0,00 2.186,65 11.776,31 30/06/2021
787 283601 ELAINE CRISTINA MEQUELINO DUARTE ANALISTA DO MP ALFENAS - COMARCA; ALFENAS-PJ-02PJ 14.324,23 2.864,85 0,00 8.594,54 0,00 0,00 0,00 1.717,00 27.500,62 2.562,53 3.048,67 0,00 0,00 5.611,20 21.889,42 30/06/2021
788 535500 ELAINE DE OLIVEIRA CAMPOS REIS OFICIAL DO MP RIBEIRÃO DAS NEVES - COMARCA; RIBEIRAO NEVES-SEC PJ EXECUCAO PENAL 5.930,75 593,08 0,00 3.261,92 0,00 0,00 0,00 1.717,00 11.502,75 856,09 689,27 0,00 0,00 1.545,36 9.957,39 30/06/2021
789 455700 ELAINE DE OLIVEIRA CASTRO ANALISTA DO MP POMPÉU - COMARCA; POMPEU-PJ-UNPJ 10.069,62 2.013,92 0,00 6.041,77 0,00 0,00 0,00 1.717,00 19.842,31 1.745,64 1.921,43 0,00 0,00 3.667,07 16.175,24 30/06/2021
790 367200 ELAINE MUNIZ BARBOSA ANALISTA DO MP BELO HORIZONTE - COMARCA; DIRETORIA DE SISTEMAS DE INFORMACAO 14.790,66 2.958,13 0,00 8.874,40 0,00 0,00 0,00 2.486,39 29.109,58 2.652,08 3.230,10 0,00 0,00 5.882,18 23.227,40 30/06/2021
791 679200 ELAINE RIBEIRO CHAVES ASSESSOR PROCURADOR JUSTICA BELO HORIZONTE - COMARCA; GABINETE DE PROCURADOR DE JUSTIÇA - SALA 614 0,00 0,00 7.187,72 3.593,86 0,00 0,00 0,00 1.717,00 12.498,58 751,99 1.229,92 0,00 0,00 1.981,91 10.516,67 30/06/2021
792 176900 ELAINE RIBEIRO TAVEIRA OFICIAL DO MP BELO HORIZONTE - COMARCA; DIRETORIA DE PESSOAL ADMINISTRATIVO - DPAD 13.011,52 5.204,61 0,00 9.108,07 0,00 0,00 0,00 1.717,00 29.041,20 2.726,86 3.390,19 0,00 0,00 6.117,05 22.924,15 30/06/2021
793 496200 ELAINE SABRINA MOREIRA SCHUWARTEN ANALISTA DO MP IPATINGA - COMARCA; GAECO REGIONAL DE IPATINGA 10.069,62 1.006,96 0,00 5.538,29 0,00 0,00 0,00 1.717,00 18.331,87 1.584,53 1.740,95 0,00 0,00 3.325,48 15.006,39 30/06/2021
794 489200 ELAINE VICENTINO GARCIA ANALISTA DO MP BELO HORIZONTE - COMARCA; CENTRAL DE APOIO TECNICO-SETOR CONTABIL 10.069,62 3.020,89 0,00 6.545,26 0,00 0,00 0,00 1.717,00 21.352,77 1.906,76 2.101,90 0,00 0,00 4.008,66 17.344,11 30/06/2021
795 244500 ELCI ALVES DE SOUZA ASSESSOR BELO HORIZONTE - COMARCA; CAO-CONFLITOS AGRARIOS-SECRETARIA 0,00 1.540,90 5.136,32 3.338,61 0,00 0,00 0,00 1.717,00 11.732,83 751,99 1.037,39 0,00 0,00 1.789,38 9.943,45 30/06/2021
796 472500 ELCI VAZ DE OLIVEIRA FILHO ANALISTA DO MP PIUMHI - COMARCA; PIUMHI-PJ-02PJ 10.069,62 5.034,81 0,00 7.552,22 0,00 0,00 0,00 1.717,00 24.373,65 2.228,99 2.671,39 0,00 0,00 4.900,38 19.473,27 30/06/2021
797 385200 ELCI VIANA REIS OFICIAL DO MP RIO PARDO DE MINAS - COMARCA; RIO PARDO DE MINAS-PJ-SECRETARIA 8.858,43 3.543,37 0,00 6.200,90 0,00 0,00 0,00 1.717,00 20.319,70 1.796,57 2.047,08 0,00 0,00 3.843,65 16.476,05 30/06/2021
798 289801 ELCIO JOSE DOS SANTOS ASSESSOR/ANALISTA BELO HORIZONTE - COMARCA; DIVISAO DE SERVICOS 0,00 2.520,26 12.601,30 5.283,45 0,00 0,00 0,00 1.717,00 22.122,01 1.745,64 2.809,02 0,00 0,00 4.554,66 17.567,35 30/06/2021
799 319600 ELEN TULER DE ALBERGARIA ANALISTA DO MP BELO HORIZONTE - COMARCA; BH-19PJ SAUDE-SECRETARIA 130PJ 13.872,60 5.549,04 0,00 9.710,82 0,00 0,00 0,00 1.717,00 30.849,46 2.919,74 3.668,66 0,00 0,00 6.588,40 24.261,06 30/06/2021
800 151000 ELI LOURENCO RIBEIRO AGENTE DO MP BELO HORIZONTE - COMARCA; BH-19PJ SAUDE-SECRETARIA 130PJ 11.085,56 5.542,78 0,00 8.314,17 0,00 0,00 0,00 1.717,00 26.659,51 2.472,81 2.411,15 0,00 0,00 4.883,96 21.775,55 30/06/2021
801 205500 ELIANA ALVES DE SOUSA OFICIAL DO MP GOVERNADOR VALADARES - COMARCA; GOVERNADOR VALADARES-PJ-07PJ 10.069,62 4.027,85 0,00 7.048,74 0,00 0,00 0,00 1.717,00 22.863,21 2.067,87 2.438,78 0,00 0,00 4.506,65 18.356,56 30/06/2021
802 628800 ELIANA APARECIDA PEREIRA ANALISTA DO MP CAMBUÍ - COMARCA; CAMBUI-PJ-02PJ 7.663,37 766,34 0,00 4.214,86 0,00 0,00 0,00 1.717,00 14.361,57 1.161,03 1.077,39 0,00 0,00 2.238,42 12.123,15 30/06/2021
803 301700 ELIANA DA SILVEIRA ANALISTA DO MP BELO HORIZONTE - COMARCA; BH-13ª PJ JUÍZO DE TÓXICOS-SECRETARIA 15.272,02 4.581,61 0,00 9.926,82 0,00 0,00 0,00 1.717,00 31.497,45 2.988,86 3.768,45 0,00 0,00 6.757,31 24.740,14 30/06/2021
804 251500 ELIANA DE LIMA MILAGRES FONSECA ANALISTA DO MP CONTAGEM - COMARCA; CONTAGEM-PJ-16PJ 15.272,02 4.581,61 0,00 9.926,82 0,00 0,00 0,00 1.717,00 31.497,45 2.988,86 3.664,18 0,00 0,00 6.653,04 24.844,41 30/06/2021
805 503900 ELIANA DIAS DUTRA FERREIRA OFICIAL DO MP GOVERNADOR VALADARES - COMARCA; GOVERNADOR VALADARES-PJ-10PJ 7.663,37 766,34 0,00 4.214,86 0,00 0,00 0,00 0,00 12.644,57 1.161,03 1.025,25 0,00 0,00 2.186,28 10.458,29 30/06/2021
806 413900 ELIANA PINTO DE OLIVEIRA NEVES ANALISTA DO MP CAMPO BELO - COMARCA; CAMPO BELO-PJ-04PJ 12.601,30 2.520,26 0,00 7.560,78 0,00 0,00 0,00 1.717,00 24.399,34 2.231,73 2.675,34 0,00 0,00 4.907,07 19.492,27 30/06/2021
807 228200 ELIANA RODRIGUES DA CUNHA PINHEIRO OFICIAL DO MP BELO HORIZONTE - COMARCA; DIRETORIA DE PROJETOS DE EDIFICACOES 12.601,30 3.780,39 0,00 8.190,85 0,00 2.433,35 0,00 1.717,00 28.722,89 2.433,35 3.635,60 0,00 0,00 6.068,95 22.653,94 30/06/2021
808 386600 ELIANA SABINO CHAVES PESSOA ANALISTA DO MP CARATINGA - COMARCA; CARATINGA-PJ-06PJ 13.011,52 9.108,06 0,00 11.059,79 0,00 0,00 0,00 1.717,00 34.896,37 3.351,41 4.239,75 0,00 0,00 7.591,16 27.305,21 30/06/2021
809 677500 ELIANA SILVA ANDRADE ASSESSOR PROMOTOR JUSTICA TRÊS CORACOES - COMARCA; TRES CORACOES-PJ-06PJ 0,00 0,00 7.187,72 3.593,86 0,00 0,00 0,00 1.717,00 12.498,58 751,99 1.229,92 0,00 0,00 1.981,91 10.516,67 30/06/2021
810 297400 ELIANE AUGUSTA RIBEIRO COSTA ANALISTA DO MP CONSELHEIRO LAFAIETE - COMARCA; CONSELHEIRO LAFAIETE-PJ-05PJ 17.413,92 5.224,18 0,00 11.319,05 0,00 0,00 0,00 1.717,00 35.674,15 3.434,37 4.307,39 0,00 0,00 7.741,76 27.932,39 30/06/2021
811 510600 ELIANE CAROLINA MAIA ANALISTA DO MP IGARAPÉ - COMARCA; IGARAPE-PJ-03PJ 10.069,62 1.006,96 0,00 5.538,29 0,00 0,00 0,00 1.717,00 18.331,87 1.584,53 1.584,54 0,00 0,00 3.169,07 15.162,80 30/06/2021
812 262600 ELIANE FERREIRA SOARES ASSESSOR BELO HORIZONTE - COMARCA; BH-18PJ DIREITOS HUMANOS-SECRETARIA 0,00 1.230,51 3.076,28 2.072,53 0,00 0,00 0,00 1.717,00 8.096,32 621,96 421,28 0,00 0,00 1.043,24 7.053,08 30/06/2021
813 204400 ELIANE GLAUCE DE QUEIROS MAIA OFICIAL DO MP GUANHÃES - COMARCA; GUANHAES-PJ-02PJ 14.790,66 5.916,26 0,00 0,00 0,00 0,00 0,00 1.717,00 22.423,92 3.125,38 3.965,56 0,00 0,00 7.090,94 15.332,98 30/06/2021
814 91800 ELIANE KAPLER ALVES OFICIAL DO MP BELO HORIZONTE - COMARCA; DIVISAO DE CONTROLE IMOBILIARIO 18.820,14 9.410,07 0,00 9.150,96 0,00 0,00 0,00 1.717,00 39.098,17 4.329,11 5.599,17 0,00 0,00 9.928,28 29.169,89 30/06/2021
815 334200 ELIANE MARCIA DE OLIVEIRA BRITO OFICIAL DO MP BELO HORIZONTE - COMARCA; BH-08PJ JUIZADO ESPECIAL-SECRETARIA 6.123,79 1.837,14 0,00 2.926,83 0,00 0,00 0,00 1.717,00 12.604,76 1.086,03 1.021,24 0,00 0,00 2.107,27 10.497,49 30/06/2021
816 365900 ELIANE MARIA DE OLIVEIRA FERREIRA OFICIAL DO MP SETE LAGOAS - COMARCA; SETE LAGOAS-PJ-SEC CRIMINAIS 10.069,62 5.034,81 0,00 7.552,22 0,00 0,00 0,00 1.717,00 24.373,65 2.228,99 2.671,39 0,00 0,00 4.900,38 19.473,27 30/06/2021
817 320600 ELIANE STADLER DE SOUZA OFICIAL DO MP FRANCISCO SÁ - COMARCA; FRANCISCO SA-PJ-SECRETARIA 9.146,93 2.744,08 0,00 5.945,51 0,00 0,00 0,00 1.717,00 19.553,52 1.714,84 1.876,95 0,00 0,00 3.591,79 15.961,73 30/06/2021
818 448900 ELIAS PEREIRA OTONI ASSESSOR BELO HORIZONTE - COMARCA; BH-18PJ DIREITOS HUMANOS-SECRETARIA 0,00 0,00 3.076,28 0,00 0,00 0,00 0,00 1.717,00 4.793,28 449,69 162,01 0,00 0,00 611,70 4.181,58 30/06/2021
819 495400 ELICA SOUZA GASPARONI MATTOS OFICIAL DO MP UBÁ - COMARCA; UBA-PJ-06PJ 7.663,37 766,34 0,00 3.069,57 0,00 0,00 0,00 1.717,00 13.216,28 1.161,03 1.129,53 0,00 0,00 2.290,56 10.925,72 30/06/2021
820 86600 ELIENE FERREIRA DA SILVA OFICIAL DO MP BELO HORIZONTE - COMARCA; BH-22PJ PES COM DEF E IDOSOS-SECRETARIA 21.145,12 14.801,58 0,00 17.731,11 0,00 5.486,23 520,11 7.390,95 67.075,10 5.486,23 8.726,34 484,48 0,00 14.697,05 52.378,05 30/06/2021
821 183800 ELIENE MARIA CUNHA OFICIAL DO MP BELO HORIZONTE - COMARCA; DIRETORIA DE PESSOAL ADMINISTRATIVO - DPAD 15.272,02 6.108,81 0,00 0,00 0,00 0,00 0,00 1.717,00 23.097,83 3.233,21 4.069,10 0,00 0,00 7.302,31 15.795,52 30/06/2021
822 172300 ELINA APARECIDA SILVA ASSESSOR BELO HORIZONTE - COMARCA; BH-19PJ SAUDE-SECRETARIA 130PJ 0,00 1.230,51 3.076,28 2.153,40 0,00 0,00 0,00 1.717,00 8.177,19 621,96 377,19 0,00 0,00 999,15 7.178,04 30/06/2021
823 492501 ELINE CAMPOS DA FONSECA CUNHA ANALISTA DO MP PONTE NOVA - COMARCA; PONTE NOVA-PJ-02PJ 9.146,93 914,69 0,00 3.566,49 0,00 0,00 0,00 1.717,00 15.345,11 1.422,14 1.506,50 0,00 0,00 2.928,64 12.416,47 30/06/2021
824 618900 ELISA MOURA VIEIRA MARCATTI OFICIAL DO MP BELO HORIZONTE - COMARCA; BH-23PJ CIVEL-SEC EXP CIVEIS 5.387,19 538,72 0,00 2.962,96 0,00 0,00 0,00 2.486,39 11.375,26 762,96 550,45 0,00 0,00 1.313,41 10.061,85 30/06/2021
825 256500 ELISABETE NOGUEIRA ANALISTA DO MP RIBEIRÃO DAS NEVES - COMARCA; RIBEIRAO NEVES-SEC PJ EXECUCAO PENAL 14.790,66 7.395,33 0,00 7.336,57 0,00 0,00 0,00 1.717,00 31.239,56 3.362,04 4.150,81 0,00 0,00 7.512,85 23.726,71 30/06/2021
826 355000 ELISANGELA DARLANTONI RIBEIRO OFICIAL DO MP ARAXÁ - COMARCA; ARAXA-PJ-05PJ 8.579,10 1.715,82 0,00 5.147,46 0,00 0,00 0,00 1.717,00 17.159,38 1.459,46 1.508,25 0,00 0,00 2.967,71 14.191,67 30/06/2021
827 604400 ELISANGELA DEMASI FERREIRA MOREIRA ANALISTA DO MP CABO VERDE - COMARCA; CABO VERDE-PJ-UNPJ 9.146,93 914,69 0,00 5.030,81 0,00 0,00 0,00 1.717,00 16.809,43 1.422,14 1.506,50 0,00 0,00 2.928,64 13.880,79 30/06/2021
828 323800 ELISANGELA GONCALVES DE JESUS OFICIAL DO MP BELO HORIZONTE - COMARCA; DIVISAO FROTA 9.444,70 2.833,41 0,00 6.139,06 0,00 0,00 0,00 1.717,00 20.134,17 1.776,77 1.966,37 0,00 0,00 3.743,14 16.391,03 30/06/2021
829 507400 ELISANGELA MIGUEL DA ROCHA SILVA ASSESSOR BELO HORIZONTE - COMARCA; CGMP-DIVIS DE APOIO FISC ORIENTACAO FUNCIONAL 0,00 0,00 3.076,28 1.538,14 0,00 0,00 0,00 2.486,39 7.100,81 449,69 190,45 0,00 0,00 640,14 6.460,67 30/06/2021
830 261400 ELISANGELA REZENDE MENDES OFICIAL DO MP POUSO ALEGRE - COMARCA; POUSO ALEGRE-PJ-05PJ 10.069,62 3.020,89 0,00 6.545,26 0,00 0,00 0,00 1.717,00 21.352,77 1.906,76 2.206,17 0,00 0,00 4.112,93 17.239,84 30/06/2021
831 534100 ELISANGELA ROSINE SILVA OFICIAL DO MP UBERABA - COMARCA; UBERABA-PJ-06PJ 5.387,19 538,72 0,00 2.962,96 0,00 0,00 0,00 1.717,00 10.605,87 762,96 550,45 0,00 0,00 1.313,41 9.292,46 30/06/2021
832 634300 ELIUDE GRACA DAMASIO ROSARIO FRANCELINO OFICIAL DO MP BELO HORIZONTE - COMARCA; BH-18PJ VIOLENCIA DOMESTICA-SECRETARIA 4.817,57 481,76 0,00 2.112,57 0,00 0,00 0,00 1.717,00 9.128,90 668,35 405,84 0,00 0,00 1.074,19 8.054,71 30/06/2021
833 461700 ELIZABETH ALEIXO DA PAZ ANALISTA DO MP JUIZ DE FORA - COMARCA; JUIZ DE FORA-PJ-18PJ 10.069,62 2.013,92 0,00 6.041,77 0,00 0,00 0,00 1.717,00 19.842,31 1.745,64 1.973,56 0,00 0,00 3.719,20 16.123,11 30/06/2021
834 227300 ELIZABETH COIMBRA FELIX OFICIAL DO MP BELO HORIZONTE - COMARCA; DIRETORIA DE PAGAMENTO DE PESSOAL-DPAG 13.011,52 5.204,61 0,00 9.528,11 0,00 0,00 0,00 1.717,00 29.461,24 2.726,86 3.285,91 0,00 0,00 6.012,77 23.448,47 30/06/2021
835 354800 ELIZABETH DOS REIS OFICIAL DO MP BELO HORIZONTE - COMARCA; DIVISAO DE MATERIAIS 10.069,62 2.013,92 0,00 6.041,77 0,00 0,00 0,00 1.717,00 19.842,31 1.745,64 1.921,43 0,00 0,00 3.667,07 16.175,24 30/06/2021
836 612000 ELIZABETH MARIA DE QUEIROZ TANIGUCHI OFICIAL DO MP BELO HORIZONTE - COMARCA; SUPERINTENDENCIA DE RECURSOS HUMANOS 4.974,42 497,44 0,00 2.166,56 0,00 0,00 0,00 1.717,00 9.355,42 694,23 444,49 0,00 0,00 1.138,72 8.216,70 30/06/2021
837 452800 ELIZANGELA MARIA DAVI OFICIAL DO MP ARCOS - COMARCA; ARCOS-PJ-01PJ 6.123,79 1.224,76 0,00 2.766,43 0,00 0,00 0,00 1.717,00 11.831,98 988,05 827,64 0,00 0,00 1.815,69 10.016,29 30/06/2021
838 496300 ELIZANGELA MARQUES PINTO COELHO OFICIAL DO MP BELO HORIZONTE - COMARCA; DIRETORIA DE PESSOAL ADMINISTRATIVO - DPAD 7.663,37 766,34 0,00 4.214,86 0,00 0,00 0,00 1.717,00 14.361,57 1.161,03 1.129,53 0,00 0,00 2.290,56 12.071,01 30/06/2021
839 422500 ELIZETE FORTES DA CUNHA ANALISTA DO MP RIBEIRÃO DAS NEVES - COMARCA; RIBEIRAO DAS NEVES-PJ-07PJ 13.011,52 2.602,30 0,00 7.806,91 0,00 0,00 0,00 1.717,00 25.137,73 2.310,49 2.736,92 0,00 0,00 5.047,41 20.090,32 30/06/2021
840 506100 ELLEM CRISTINA ROCHA FONSECA BOWEN ANALISTA DO MP GOVERNADOR VALADARES - COMARCA; COORD REG PJ DEF EDU DIR CRIANCA ADOL RIODOCE 10.069,62 1.006,96 0,00 0,00 0,00 0,00 0,00 1.717,00 12.793,58 1.584,53 1.740,95 0,00 0,00 3.325,48 9.468,10 30/06/2021
841 468200 ELLEN CRISTINA BERNARDES DARE ANALISTA DO MP TRÊS PONTAS - COMARCA; TRES PONTAS-PJ-02PJ 10.069,62 2.013,92 0,00 6.041,77 0,00 0,00 0,00 2.486,39 20.611,70 1.745,64 1.921,43 0,00 0,00 3.667,07 16.944,63 30/06/2021
842 418800 ELLEN CRISTINA DE QUEIROZ FERREIRA ANALISTA DO MP BELO HORIZONTE - COMARCA; CENTRAL DE APOIO TECNICO-SETOR CONTABIL 12.601,30 2.520,26 0,00 5.107,24 0,00 0,00 0,00 2.870,54 23.099,34 2.231,73 2.675,34 0,00 0,00 4.907,07 18.192,27 30/06/2021
843 328401 ELLEN CRISTINA FERREIRA MORAIS MONTEIRO ANALISTA DO MP CAMANDUCAIA - COMARCA; CAMANDUCAIA-PJ-UNPJ 12.601,30 2.520,26 0,00 5.159,37 0,00 0,00 0,00 1.717,00 21.997,93 2.231,73 2.571,07 0,00 0,00 4.802,80 17.195,13 30/06/2021
844 556100 ELLEN CRISTINE BIANCHIN DA SILVA OFICIAL DO MP SÃO GONÇALO DO SAPUCAÍ - COMARCA; SAO GONCALO DO SAPUCAI-PJ-02PJ 5.387,19 538,72 0,00 0,00 0,00 0,00 0,00 1.717,00 7.642,91 762,96 498,31 0,00 0,00 1.261,27 6.381,64 30/06/2021
845 447100 ELLEN ROSANA DE MACEDO BORGES OFICIAL DO MP UBERLÂNDIA - COMARCA; UBERLANDIA-PJ-17PJ 7.912,85 1.582,57 0,00 4.747,71 0,00 0,00 0,00 1.717,00 15.960,13 1.331,54 1.375,71 0,00 0,00 2.707,25 13.252,88 30/06/2021
846 477700 ELMA JACOB OFICIAL DO MP BELO HORIZONTE - COMARCA; COORD DE GABINETE DO PGJ 7.663,37 5.364,36 0,00 6.513,87 0,00 1.896,71 0,00 1.717,00 23.155,31 1.896,71 2.713,27 0,00 0,00 4.609,98 18.545,33 30/06/2021
847 123300 ELMA PAULA DOS SANTOS COELHO OFICIAL DO MP BELO HORIZONTE - COMARCA; BH-19PJ SAUDE-SECRETARIA 130PJ 18.820,14 16.938,13 0,00 17.731,11 0,00 5.486,23 0,00 1.717,00 60.692,61 5.486,23 8.882,75 296,05 0,00 14.665,03 46.027,58 30/06/2021
848 356500 ELOISA CARDOSO SILVA FRANCA OFICIAL DO MP PEÇANHA - COMARCA; PECANHA-PJ-SECRETARIA 6.123,79 1.224,76 0,00 0,00 0,00 0,00 0,00 1.717,00 9.065,55 988,05 775,50 0,00 0,00 1.763,55 7.302,00 30/06/2021
849 251901 ELOISA COSTA E SILVA ANALISTA DO MP SANTOS DUMONT - COMARCA; SANTOS DUMONT-PJ-02PJ 10.069,62 3.020,89 0,00 6.545,26 0,00 0,00 0,00 2.486,39 22.122,16 1.906,76 2.154,03 0,00 0,00 4.060,79 18.061,37 30/06/2021
850 400400 ELOIZA MARIA FERRI PIRES DA SILVA OFICIAL DO MP BELO HORIZONTE - COMARCA; ASSESSORIA TECNICA DO PROCON-MG 7.912,85 1.582,57 0,00 4.747,71 0,00 0,00 0,00 1.717,00 15.960,13 1.331,54 1.323,57 0,00 0,00 2.655,11 13.305,02 30/06/2021
851 258000 ELSO CECIANO PALMEIRA COORDENADOR/OFICIAL BELO HORIZONTE - COMARCA; DIRET DE PESSOAL DO MINISTERIO PUBLICO - DPMP 12.204,02 8.542,81 2.836,60 11.799,54 0,00 0,00 0,00 1.717,00 37.099,97 3.131,77 4.754,85 0,00 0,00 7.886,62 29.213,35 30/06/2021
852 206900 ELVIRA RITA DOS SANTOS ANALISTA DO MP BELO HORIZONTE - COMARCA; CENTRAL DE APOIO TECNICO-SETOR CONTABIL 18.820,14 7.528,06 0,00 13.174,10 0,00 4.027,99 0,00 1.717,00 45.267,29 4.027,99 6.376,40 0,00 0,00 10.404,39 34.862,90 30/06/2021
853 506800 ELVIS FERREIRA DA SILVA ANALISTA DO MP BELO HORIZONTE - COMARCA; DIRETORIA DE SISTEMAS DE INFORMACAO 10.069,62 1.006,96 0,00 5.538,29 0,00 0,00 0,00 2.486,39 19.101,26 1.584,53 1.584,54 0,00 0,00 3.169,07 15.932,19 30/06/2021
854 602400 ELZA MARIA MOREIRA MUNIZ ANALISTA DO MP RIO PARANAÍBA - COMARCA; RIO PARANAIBA-PJ-UNPJ 9.146,93 914,69 0,00 5.030,81 0,00 0,00 0,00 1.717,00 16.809,43 1.422,14 1.454,36 0,00 0,00 2.876,50 13.932,93 30/06/2021
855 368401 ELZIRA SIMOES DOS SANTOS ASSESSOR BELO HORIZONTE - COMARCA; ASSESSORIA DE COMUNICACAO INTEGRADA 0,00 3.433,94 11.446,46 7.440,20 0,00 0,00 0,00 1.717,00 24.037,60 751,99 3.345,40 0,00 0,00 4.097,39 19.940,21 30/06/2021
856 437400 EMANOELLE DA SILVA RODRIGUES OFICIAL DO MP UNAÍ - COMARCA; UNAI-PJ-03PJ 7.187,72 1.437,54 0,00 4.312,63 0,00 0,00 0,00 3.255,78 16.193,67 1.192,32 1.122,56 0,00 0,00 2.314,88 13.878,79 30/06/2021
857 458900 EMANUELLE CONRAD SILVA FREDERICO NAVES ANALISTA DO MP ALFENAS - COMARCA; ALFENAS-PJ-05PJ 12.601,30 2.520,26 0,00 7.560,78 0,00 0,00 0,00 2.486,39 25.168,73 2.231,73 2.623,21 0,00 0,00 4.854,94 20.313,79 30/06/2021
858 284100 EMERSON MAGNO ALMEIDA PEDROSA DA FONSECA ANALISTA DO MP BELO HORIZONTE - COMARCA; CENTRAL DE APOIO TECNICO-SETOR CONTABIL 17.413,92 5.224,18 0,00 0,00 0,00 0,00 83,01 2.622,52 25.343,63 3.434,37 3.191,32 0,00 0,00 6.625,69 18.717,94 30/06/2021
859 179900 EMERSON MORAIS DIAS OFICIAL DO MP BELO HORIZONTE - COMARCA; SUPERINTENDÊNCIA DE ENGENHARIA E ARQUITETURA 15.272,02 6.108,81 0,00 10.690,42 0,00 0,00 0,00 1.717,00 33.788,25 3.233,21 4.121,24 0,00 0,00 7.354,45 26.433,80 30/06/2021
860 488700 EMERSON SIQUEIRA DE SOUSA TEIXEIRA ANALISTA DO MP TARUMIRIM - COMARCA; TARUMIRIM-PJ-UNPJ 10.069,62 1.006,96 0,00 5.538,29 0,00 0,00 0,00 1.717,00 18.331,87 1.584,53 1.584,54 0,00 0,00 3.169,07 15.162,80 30/06/2021
861 194200 EMILIA ALVES FERREIRA RAMOS OFICIAL DO MP UBERLÂNDIA - COMARCA; UBERLANDIA-PJ-SEC FAMILIA 9.444,70 3.777,88 0,00 6.611,29 0,00 0,00 0,00 1.717,00 21.550,87 1.927,89 2.236,68 0,00 0,00 4.164,57 17.386,30 30/06/2021
862 679500 EMILY DIAS LEMOS E SILVA ASSESSOR PROCURADOR JUSTICA BELO HORIZONTE - COMARCA; GABINETE DE PROCURADOR DE JUSTIÇA - SALA 515 0,00 0,00 7.187,72 3.593,86 0,00 0,00 0,00 2.486,39 13.267,97 751,99 1.125,64 0,00 0,00 1.877,63 11.390,34 30/06/2021
863 620700 EMILY FONTANA DE SIQUEIRA ANALISTA DO MP BELO HORIZONTE - COMARCA; BH-18PJ VIOLENCIA DOMESTICA-SECRETARIA 8.436,53 843,65 0,00 3.354,60 0,00 0,00 0,00 2.486,39 15.121,17 1.297,11 1.273,85 0,00 0,00 2.570,96 12.550,21 30/06/2021
864 297000 ENEIDA SOARES COSTA MELO ANALISTA DO MP PIUMHI - COMARCA; PIUMHI-PJ-01PJ 17.413,92 5.224,18 0,00 11.319,05 0,00 0,00 0,00 1.717,00 35.674,15 3.434,37 4.411,67 0,00 0,00 7.846,04 27.828,11 30/06/2021
865 276000 ENEZIO RODRIGUES DE SOUZA FILHO OFICIAL DO MP UBERLÂNDIA - COMARCA; UBERLANDIA-PJ-10PJ 10.069,62 3.020,89 0,00 6.545,26 0,00 0,00 0,00 1.717,00 21.352,77 1.906,76 2.206,17 0,00 0,00 4.112,93 17.239,84 30/06/2021
866 387700 ENI MARIA DOS REIS OFICIAL DO MP POUSO ALEGRE - COMARCA; POUSO ALEGRE-PJ-07PJ 8.858,43 1.771,69 0,00 3.739,60 0,00 0,00 0,00 1.717,00 16.086,72 1.513,10 1.637,82 0,00 0,00 3.150,92 12.935,80 30/06/2021
867 605100 ENIA MAIA ASSESSOR/OFICIAL BELO HORIZONTE - COMARCA; DIRETORIA DE ORCAMENTO-DIOR/SPC 0,00 1.039,75 10.397,52 5.718,64 0,00 0,00 4.455,20 1.717,00 23.328,11 856,09 3.265,64 0,00 0,00 4.121,73 19.206,38 30/06/2021
868 612200 ENILDO GOMES MEIRA FILHO ANALISTA DO MP MATOZINHOS - COMARCA; MATOZINHOS-PJ-02PJ 8.436,53 843,65 0,00 4.640,09 0,00 0,00 0,00 2.486,39 16.406,66 1.297,11 1.169,57 0,00 0,00 2.466,68 13.939,98 30/06/2021
869 553700 ENIVALDO NOVATO PUBLIO ANALISTA DO MP DIVINÓPOLIS - COMARCA; DIVINOPOLIS-PJ-09PJ 9.146,93 914,69 0,00 5.030,81 0,00 0,00 0,00 1.717,00 16.809,43 1.422,14 1.454,36 0,00 0,00 2.876,50 13.932,93 30/06/2021
870 680600 ENZO JOSE FERES SOUZA JABER ASSESSOR PROMOTOR JUSTICA NOVO CRUZEIRO - COMARCA; NOVO CRUZEIRO-PJ-SECRETARIA 0,00 0,00 7.187,72 3.593,86 0,00 0,00 0,00 1.717,00 12.498,58 751,99 1.229,92 0,00 0,00 1.981,91 10.516,67 30/06/2021
871 417300 ERIC BARATTI DA SILVA ANALISTA DO MP FRUTAL - COMARCA; FRUTAL-PJ-05PJ 10.069,62 2.013,92 0,00 6.041,77 0,00 0,00 0,00 1.717,00 19.842,31 1.745,64 1.973,56 0,00 0,00 3.719,20 16.123,11 30/06/2021
872 637600 ERIC DA ROCHA CHEHUEN ANALISTA DO MP LIMA DUARTE - COMARCA; LIMA DUARTE-PJ-UNPJ 8.170,49 817,05 0,00 0,00 0,00 0,00 0,00 1.717,00 10.704,54 841,65 1.370,76 0,00 0,00 2.212,41 8.492,13 30/06/2021
873 398900 ERIC TEIXEIRA SILVA OFICIAL DO MP UBERLÂNDIA - COMARCA; UBERLANDIA-PJ-SEC CIVEIS CRIMINAIS 8.579,10 1.715,82 0,00 5.147,46 0,00 0,00 0,00 1.717,00 17.159,38 1.459,46 1.560,39 0,00 0,00 3.019,85 14.139,53 30/06/2021
874 703600 ERICA CORDEIRO SANTOS ASSESSOR PROMOTOR JUSTICA MINAS NOVAS - COMARCA; MINAS NOVAS-PJ-UNPJ 0,00 0,00 7.187,72 1.197,95 0,00 0,00 0,00 1.717,00 10.102,67 751,99 1.229,92 0,00 0,00 1.981,91 8.120,76 30/06/2021
875 274200 ERICA DE SOUZA ANDRADE OFICIAL DO MP CURVELO - COMARCA; CURVELO-PJ-03PJ 10.069,62 3.020,89 0,00 6.545,26 0,00 0,00 0,00 1.717,00 21.352,77 1.906,76 2.154,03 0,00 0,00 4.060,79 17.291,98 30/06/2021
876 225700 ERICA GOMES DO COUTO OFICIAL DO MP BELO HORIZONTE - COMARCA; BH-21PJ TUTELA FUNDACOES-SECRETARIA 14.324,23 4.297,27 0,00 9.310,75 0,00 0,00 0,00 2.486,39 30.418,64 2.791,72 3.483,83 0,00 0,00 6.275,55 24.143,09 30/06/2021
877 632600 ERICA LEONOR MARTINS OFICIAL DO MP RESENDE COSTA - COMARCA; RESENDE COSTA-PJ-UNPJ 5.217,34 521,73 0,00 2.869,54 0,00 0,00 0,00 1.717,00 10.325,61 734,31 506,95 0,00 0,00 1.241,26 9.084,35 30/06/2021
878 524800 ERICA MACHADO DA COSTA E SOUZA ANALISTA DO MP BELO HORIZONTE - COMARCA; ASSESS TECNICO-JUR JUNTO AS PROC. DE JUST 10.069,62 1.006,96 0,00 5.538,29 0,00 0,00 0,00 1.717,00 18.331,87 1.584,53 1.740,95 0,00 0,00 3.325,48 15.006,39 30/06/2021
879 249500 ERICA RODRIGUES ANDRADE OFICIAL DO MP SÃO FRANCISCO - COMARCA; SAO FRANCISCO-PJ-02PJ 9.146,93 2.744,08 0,00 5.945,51 0,00 0,00 0,00 1.717,00 19.553,52 1.714,84 1.876,95 0,00 0,00 3.591,79 15.961,73 30/06/2021
880 260800 ERICA VIANA GIARDINI DE OLIVEIRA OFICIAL DO MP BELO HORIZONTE - COMARCA; DIRETORIA GESTAO COMPRAS LICITACOES 10.069,62 3.020,89 0,00 6.545,26 0,00 0,00 0,00 1.717,00 21.352,77 1.906,76 2.206,17 0,00 0,00 4.112,93 17.239,84 30/06/2021
881 299800 ERICH DOUGLAS RIBEIRO GARCIA ANALISTA DO MP BELO HORIZONTE - COMARCA; CENTRAL DE APOIO TECNICO-SETOR CONTABIL 16.750,82 5.025,25 0,00 10.888,04 0,00 0,00 79,85 2.588,04 35.332,00 3.296,45 4.212,54 0,00 0,00 7.508,99 27.823,01 30/06/2021
882 365000 ERICK EDUARDO JOSE DA SILVA OFICIAL DO MP SANTOS DUMONT - COMARCA; SANTOS DUMONT-PJ-02PJ 6.123,79 1.224,76 0,00 3.674,28 0,00 0,00 0,00 1.717,00 12.739,83 988,05 879,78 0,00 0,00 1.867,83 10.872,00 30/06/2021
883 688900 ERICK FERDINANN SANTOS GOMES ASSESSOR PROMOTOR JUSTICA OURO PRETO - COMARCA; OURO PRETO-PJ-04PJ 0,00 0,00 7.187,72 2.767,62 0,00 0,00 0,00 1.717,00 11.672,34 751,99 1.229,92 0,00 0,00 1.981,91 9.690,43 30/06/2021
884 227400 ERIKA DE LAET GOULART BOECHAT ASSESSOR/OFICIAL BELO HORIZONTE - COMARCA; ASSESSORIA ESPECIAL DO PGJ 14.324,23 4.297,27 2.520,26 10.570,88 0,00 0,00 310,08 5.099,68 37.122,40 2.791,72 4.124,76 0,00 0,00 6.916,48 30.205,92 30/06/2021
885 285100 ERIKA FERREIRA DA SILVA OFICIAL DO MP JUIZ DE FORA - COMARCA; JUIZ DE FORA-PJ-11PJ 10.069,62 3.020,89 0,00 6.545,26 0,00 0,00 0,00 1.717,00 21.352,77 1.906,76 2.206,17 0,00 0,00 4.112,93 17.239,84 30/06/2021
886 420100 ERIKA JEANINE VERSIANI DE CASTRO ANALISTA DO MP BELO HORIZONTE - COMARCA; COORD ESTADUAL DE DEFESA DA EDUCACAO 13.011,52 2.602,30 0,00 7.806,91 0,00 0,00 0,00 1.717,00 25.137,73 2.310,49 2.789,06 0,00 0,00 5.099,55 20.038,18 30/06/2021
887 677100 ERIKA LAYS CARDOSO FERNANDES ASSESSOR PROMOTOR JUSTICA GRAO MOGOL - COMARCA; GRAO MOGOL-PJ-UNPJ 0,00 0,00 7.187,72 3.593,86 0,00 0,00 0,00 1.717,00 12.498,58 751,99 1.229,92 0,00 0,00 1.981,91 10.516,67 30/06/2021
888 606900 ERIKA MARIA BARBOSA ANALISTA DO MP BELO HORIZONTE - COMARCA; CAO-SAUDE 8.436,53 843,65 0,00 4.640,09 0,00 0,00 0,00 1.717,00 15.637,27 1.297,11 1.273,85 0,00 0,00 2.570,96 13.066,31 30/06/2021
889 491000 ERIKA ROCHA PEREIRA E SILVA COORDENADOR/ANALISTA BELO HORIZONTE - COMARCA; DIR GOVERNANCA TECNOLOGIA INFORMACAO 0,00 1.343,52 13.435,16 7.389,34 0,00 0,00 0,00 1.717,00 23.885,02 1.584,53 2.759,03 0,00 0,00 4.343,56 19.541,46 30/06/2021
890 283201 ERIKA STEHLING COORDENADOR/ANALISTA BELO HORIZONTE - COMARCA; CENTRAL DE APOIO TECNICO-SETOR DE ENGENHARIA 10.069,62 1.006,96 2.363,83 4.732,43 0,00 0,00 0,00 1.717,00 19.889,84 1.584,53 2.391,01 0,00 0,00 3.975,54 15.914,30 30/06/2021
891 254000 ERLANDIA DA SILVA MENDES OFICIAL DO MP IPATINGA - COMARCA; IPATINGA-PJ-03PJ 12.601,30 5.040,52 0,00 8.820,91 0,00 0,00 0,00 1.717,00 28.179,73 2.634,97 3.101,11 0,00 0,00 5.736,08 22.443,65 30/06/2021
892 208600 ERNANE JOSE DA COSTA ANALISTA DO MP BELO HORIZONTE - COMARCA; CENTRAL DE APOIO TECNICO-SETOR MEDICO 18.820,14 15.056,11 0,00 16.938,13 0,00 0,00 0,00 1.717,00 52.531,38 5.232,48 7.007,68 0,00 0,00 12.240,16 40.291,22 30/06/2021
893 260600 ERNANI CALDEIRA DE ANDRADE ANALISTA DO MP BELO HORIZONTE - COMARCA; CENTRAL DE APOIO TECNICO-SETOR CONTABIL 18.820,14 5.646,04 0,00 12.233,09 0,00 0,00 0,00 1.717,00 38.416,27 3.726,87 4.833,95 0,00 0,00 8.560,82 29.855,45 30/06/2021
894 348500 ERNILANDIA DE OLIVEIRA DIAS OFICIAL DO MP MONTES CLAROS - COMARCA; MONTES CLAROS-PJ-16PJ 8.858,43 2.657,53 0,00 5.757,98 0,00 0,00 0,00 1.717,00 18.990,94 1.654,83 1.842,45 0,00 0,00 3.497,28 15.493,66 30/06/2021
895 199300 ERTON PORTINARI DE ANDRADE OFICIAL DO MP SETE LAGOAS - COMARCA; SETE LAGOAS-PJ-05PJ 14.790,66 5.916,26 0,00 10.353,46 0,00 0,00 0,00 1.717,00 32.777,38 3.125,38 3.861,29 0,00 0,00 6.986,67 25.790,71 30/06/2021
896 618800 ESLY DE CARLA AYALLA BARBOSA MENDES OFICIAL DO MP NOVA LIMA - COMARCA; NOVA LIMA-PJ-SECRETARIA 4.974,42 497,44 0,00 2.735,93 0,00 0,00 0,00 1.717,00 9.924,79 694,23 444,49 0,00 0,00 1.138,72 8.786,07 30/06/2021
897 537000 ESTANISLAU CORREIA ALMEIDA JUNIOR OFICIAL DO MP UBERLÂNDIA - COMARCA; UBERLANDIA-PJ-25PJ 5.930,75 593,08 0,00 3.261,92 0,00 0,00 0,00 1.717,00 11.502,75 856,09 689,27 0,00 0,00 1.545,36 9.957,39 30/06/2021
898 692100 ESTEFANIA FARIA FERREIRA ASSESSOR PROCURADOR JUSTICA BELO HORIZONTE - COMARCA; GABINETE DE PROCURADOR DE JUSTIÇA - SALA 814 0,00 0,00 7.187,72 0,00 0,00 0,00 0,00 1.717,00 8.904,72 751,99 1.229,92 0,00 0,00 1.981,91 6.922,81 30/06/2021
899 326900 ESTER ALICE PIMENTA OFICIAL DO MP BELO HORIZONTE - COMARCA; COORD DE INCLUSAO E MOBILIZACAO SOCIAIS 10.069,62 3.020,89 0,00 6.545,26 0,00 0,00 0,00 1.717,00 21.352,77 1.906,76 2.206,17 0,00 0,00 4.112,93 17.239,84 30/06/2021
900 503700 ESTHER GONCALVES FONSECA ANALISTA DO MP BELO HORIZONTE - COMARCA; CENTRO PUBLICIDADE E DESIGN GRAFICO 9.444,70 944,47 0,00 5.194,59 0,00 0,00 0,00 1.717,00 17.300,76 1.474,54 1.582,16 0,00 0,00 3.056,70 14.244,06 30/06/2021
901 475600 ETIENE DE FATIMA OLIVEIRA PEREIRA ANALISTA DO MP PATROCÍNIO - COMARCA; PATROCINIO-PJ-04PJ 10.069,62 2.013,92 0,00 6.041,77 0,00 0,00 0,00 1.717,00 19.842,31 1.745,64 1.869,29 0,00 0,00 3.614,93 16.227,38 30/06/2021
902 428800 EUGENIA RODRIGUES TRAJANO BORGES ANALISTA DO MP UBERABA - COMARCA; UBERABA-PJ-08PJ 12.601,30 2.520,26 0,00 7.560,78 0,00 0,00 0,00 2.486,39 25.168,73 2.231,73 2.675,34 0,00 0,00 4.907,07 20.261,66 30/06/2021
903 272700 EUGENIO DE BARCELOS FILHO OFICIAL DO MP FRUTAL - COMARCA; FRUTAL-PJ-03PJ 8.858,43 2.657,53 0,00 4.035,40 0,00 0,00 0,00 1.717,00 17.268,36 1.654,83 1.790,31 0,00 0,00 3.445,14 13.823,22 30/06/2021
904 254100 EULALIA ALVES MIRANDA LUCAS OFICIAL DO MP ALMENARA - COMARCA; ALMENARA-PJ-02PJ 12.204,02 3.661,21 0,00 7.932,62 0,00 0,00 0,00 1.717,00 25.514,85 2.350,71 2.742,86 0,00 0,00 5.093,57 20.421,28 30/06/2021
905 615500 EUNICE BARBOSA PINTO OFICIAL DO MP OURO PRETO - COMARCA; OURO PRETO-PJ-03PJ 5.387,19 1.077,44 0,00 3.232,32 0,00 0,00 0,00 1.717,00 11.413,95 846,62 675,59 0,00 0,00 1.522,21 9.891,74 30/06/2021
906 641200 EUNICE ELVIRA DA SILVA MATOS OFICIAL DO MP BELO HORIZONTE - COMARCA; BH-14PJ DEFESA CONSUMIDOR-SECRETARIA 4.817,57 481,76 0,00 2.649,67 0,00 0,00 0,00 1.717,00 9.666,00 668,35 405,84 0,00 0,00 1.074,19 8.591,81 30/06/2021
907 557900 EURIPEDES JOSUE PERES OFICIAL DO MP IBIÁ - COMARCA; IBIA-PJ-UNPJ 5.387,19 538,72 0,00 0,00 0,00 0,00 0,00 1.717,00 7.642,91 762,96 550,45 0,00 0,00 1.313,41 6.329,50 30/06/2021
908 225800 EURO CESAR VIEIRA BARBOSA ANALISTA DO MP BELO HORIZONTE - COMARCA; BH-17PJ PATRIMONIO PUBLICO-SECRETARIA 18.820,14 7.528,06 0,00 13.174,10 0,00 0,00 0,00 1.717,00 41.239,30 4.027,99 5.164,42 0,00 0,00 9.192,41 32.046,89 30/06/2021
909 199400 EUSTAQUIO ADAILTON LIMA E SILVA OFICIAL DO MP MANGA - COMARCA; MANGA-PJ-01PJ 14.790,66 10.353,47 0,00 8.263,39 0,00 0,00 0,00 1.717,00 35.124,52 3.835,34 4.782,01 0,00 0,00 8.617,35 26.507,17 30/06/2021
910 548000 EVA VILMA LEAO REIS JULIO OFICIAL DO MP BELO HORIZONTE - COMARCA; BH-07PJ 01 TRIBUNAL JURI-SECRETARIA 5.930,75 1.779,23 0,00 3.854,99 0,00 0,00 0,00 1.717,00 13.281,97 1.045,87 963,27 0,00 0,00 2.009,14 11.272,83 30/06/2021
911 517000 EVALDO SENA COSTA FILHO ANALISTA DO MP CONTAGEM - COMARCA; CONTAGEM-PJ-15PJ 10.069,62 3.020,89 0,00 6.545,26 0,00 0,00 0,00 1.717,00 21.352,77 1.906,76 2.049,76 0,00 0,00 3.956,52 17.396,25 30/06/2021
912 217500 EVELANGE LEAO RABELO ASSESSOR BELO HORIZONTE - COMARCA; CAO-IDOSOS E PESSOAS COM DEFICIENCIA 0,00 2.054,53 5.136,32 3.595,43 0,00 0,00 0,00 1.717,00 12.503,28 751,99 1.230,78 0,00 0,00 1.982,77 10.520,51 30/06/2021
913 679600 EVERTON BARBOSA DA SILVA ASSESSOR PROCURADOR JUSTICA BELO HORIZONTE - COMARCA; GABINETE DE PROCURADOR DE JUSTIÇA - SALA 510 0,00 0,00 7.187,72 3.593,86 0,00 0,00 0,00 1.717,00 12.498,58 751,99 1.229,92 0,00 0,00 1.981,91 10.516,67 30/06/2021
914 540400 EVIE SARAMELLA DE RESENDE OFICIAL DO MP BARBACENA - COMARCA; BARBACENA-PJ-05PJ 5.930,75 593,08 0,00 3.261,92 0,00 0,00 0,00 1.717,00 11.502,75 856,09 689,27 0,00 0,00 1.545,36 9.957,39 30/06/2021
915 469000 EWERTON CARDOSO DE SA RODRIGUES ANALISTA DO MP CAMPO BELO - COMARCA; CAMPO BELO-PJ-02PJ 10.069,62 2.013,92 0,00 6.041,77 0,00 0,00 0,00 2.486,39 20.611,70 1.745,64 1.869,29 0,00 0,00 3.614,93 16.996,77 30/06/2021
916 368900 FABIANA BARBOSA SIQUEIRA OFICIAL DO MP BELO HORIZONTE - COMARCA; CAO-ORDEM ECONOMICA E TRIBUTARIA-SECRETARIA 9.146,93 1.829,39 0,00 0,00 0,00 0,00 0,00 1.717,00 12.693,32 1.568,49 1.665,66 0,00 0,00 3.234,15 9.459,17 30/06/2021
917 273800 FABIANA CARNEIRO AMORIM COORDENADOR/OFICIAL BELO HORIZONTE - COMARCA; BH-23PJ CIVEL-COORD ADM CIVEL 11.085,56 3.325,67 2.363,83 8.387,53 0,00 0,00 0,00 1.717,00 26.879,59 2.118,07 3.057,04 0,00 0,00 5.175,11 21.704,48 30/06/2021
918 519300 FABIANA DE OLIVEIRA LOUREIRO ANALISTA DO MP BELO HORIZONTE - COMARCA; BH-09PJ AUDITORIA MILITAR-SECRETARIA 10.069,62 1.006,96 0,00 5.538,29 0,00 0,00 0,00 1.717,00 18.331,87 1.584,53 1.740,95 0,00 0,00 3.325,48 15.006,39 30/06/2021
919 363400 FABIANA DOURADO DUPIN VIEGAS ANALISTA DO MP BELO HORIZONTE - COMARCA; GABINETE DE PROCURADOR DE JUSTIÇA - SALA 705 15.272,02 3.054,40 0,00 6.109,19 0,00 0,00 0,00 1.717,00 26.152,61 2.744,50 3.363,53 0,00 0,00 6.108,03 20.044,58 30/06/2021
920 410800 FABIANA DUARTE QUITITE ANALISTA DO MP BELO HORIZONTE - COMARCA; BH-15PJ M AMB PAT HIST CULT-GAB 116PJ 13.011,52 2.602,30 0,00 7.806,91 0,00 0,00 0,00 1.717,00 25.137,73 2.310,49 2.789,06 0,00 0,00 5.099,55 20.038,18 30/06/2021
921 419500 FABIANA EULALIA DOS SANTOS ANALISTA DO MP SÃO JOÃO DEL REI - COMARCA; SAO JOAO DEL REI-PJ-01PJ 13.011,52 2.602,30 0,00 5.257,13 0,00 0,00 0,00 1.717,00 22.587,95 2.310,49 2.789,06 0,00 0,00 5.099,55 17.488,40 30/06/2021
922 700300 FABIANA MARCIA DE SOUZA ASSESSOR BELO HORIZONTE - COMARCA; DIRET DE CONTROLE E DE MANUTENCAO DE IMOVEIS 0,00 0,00 3.076,28 1.361,64 0,00 0,00 0,00 1.717,00 6.154,92 449,69 224,40 0,00 0,00 674,09 5.480,83 30/06/2021
923 376300 FABIANA MATTOSO LEMOS ANALISTA DO MP BELO HORIZONTE - COMARCA; BH-21PJ TUTELA FUNDACOES-SECRETARIA 14.324,23 2.864,85 0,00 8.594,54 0,00 0,00 0,00 1.717,00 27.500,62 2.562,53 3.152,94 0,00 0,00 5.715,47 21.785,15 30/06/2021
924 331500 FABIANA PACHECO OFICIAL DO MP GUAXUPÉ - COMARCA; GUAXUPE-PJ-01PJ 10.069,62 3.020,89 0,00 6.545,26 4.363,50 0,00 0,00 2.486,39 26.485,66 1.906,76 3.301,86 0,00 0,00 5.208,62 21.277,04 30/06/2021
925 510700 FABIANA PEREIRA SANTOS BORGES ANALISTA DO MP BELO HORIZONTE - COMARCA; DIRETORIA DE SISTEMAS DE INFORMACAO 10.069,62 1.006,96 0,00 5.538,29 0,00 0,00 0,00 1.717,00 18.331,87 1.584,53 1.688,82 0,00 0,00 3.273,35 15.058,52 30/06/2021
926 181700 FABIANA SOUZA FERREIRA OFICIAL DO MP BELO HORIZONTE - COMARCA; BH-19PJ SAUDE-SECRETARIA 150PJ 6.123,79 2.449,52 0,00 4.286,66 0,00 0,00 0,00 1.717,00 14.576,97 1.184,01 1.058,42 0,00 0,00 2.242,43 12.334,54 30/06/2021
927 272900 FABIANA STOCKLER LEITE OFICIAL DO MP LAJINHA - COMARCA; LAJINHA-PJ-SECRETARIA 10.069,62 5.034,81 0,00 7.552,22 0,00 0,00 0,00 1.717,00 24.373,65 2.228,99 2.619,25 0,00 0,00 4.848,24 19.525,41 30/06/2021
928 225500 FABIANE DE FATIMA PORTELLA ANALISTA DO MP BELO HORIZONTE - COMARCA; BH-18PJ DIREITOS HUMANOS-SECRETARIA 18.820,14 5.646,04 0,00 12.233,09 0,00 0,00 0,00 1.717,00 38.416,27 3.726,87 4.833,95 0,00 0,00 8.560,82 29.855,45 30/06/2021
929 433800 FABIANE DINIZ MATTOS ANALISTA DO MP BELO HORIZONTE - COMARCA; BH-23PJ INFRACIONAL-ASS JURIDICA 13.011,52 2.602,30 0,00 7.806,91 0,00 0,00 2.408,94 1.717,00 27.546,67 2.695,92 3.345,52 0,00 0,00 6.041,44 21.505,23 30/06/2021
930 455000 FABIANO CARVALHO DA SILVA ANALISTA DO MP LAVRAS - COMARCA; LAVRAS-PJ-05PJ 10.069,62 2.013,92 0,00 6.041,77 0,00 0,00 0,00 1.717,00 19.842,31 1.745,64 1.973,56 0,00 0,00 3.719,20 16.123,11 30/06/2021
931 498800 FABIANO FURTADO PESSOA COELHO ANALISTA DO MP BELO HORIZONTE - COMARCA; DIRETORIA DE REDES E BANCOS DE DADOS 10.069,62 1.006,96 0,00 5.538,29 0,00 0,00 0,00 1.717,00 18.331,87 1.584,53 1.688,82 0,00 0,00 3.273,35 15.058,52 30/06/2021
932 663000 FABIANO MARQUES CORREA ASSESSOR BELO HORIZONTE - COMARCA; DIRETORIA DE SUPORTE E MANUTENCAO 0,00 0,00 5.136,32 2.568,16 0,00 0,00 0,00 1.717,00 9.421,48 738,09 669,60 0,00 0,00 1.407,69 8.013,79 30/06/2021
933 394600 FABIANO PALHARES SILVA ANALISTA DO MP BELO HORIZONTE - COMARCA; CENTRAL DE APOIO TECN-SETOR DE MEIO AMBIENTE 14.324,23 2.864,85 0,00 8.594,54 0,00 0,00 0,00 1.717,00 27.500,62 2.562,53 3.100,80 0,00 0,00 5.663,33 21.837,29 30/06/2021
934 676600 FABIANO RESENDE VELOSO ASSESSOR PROCURADOR JUSTICA BELO HORIZONTE - COMARCA; GABINETE DE PROCURADOR DE JUSTIÇA - SALA 1002 0,00 0,00 7.187,72 3.593,86 0,00 0,00 0,00 1.717,00 12.498,58 751,99 1.229,92 0,00 0,00 1.981,91 10.516,67 30/06/2021
935 444400 FABIANO SARAIVA MEDEIROS ANALISTA DO MP BETIM - COMARCA; BETIM-PJ-11PJ 12.601,30 2.520,26 0,00 7.560,78 0,00 0,00 0,00 1.717,00 24.399,34 2.231,73 2.571,07 0,00 0,00 4.802,80 19.596,54 30/06/2021
936 408700 FABIANO SOARES PORTILHO ANALISTA DO MP JUIZ DE FORA - COMARCA; GAECO REGIONAL DA ZONA DA MATA-JUIZ DE FORA 13.011,52 2.602,30 0,00 7.806,91 0,00 0,00 0,00 1.717,00 25.137,73 2.310,49 2.789,06 0,00 0,00 5.099,55 20.038,18 30/06/2021
937 442600 FABIO CARVALHO VIEIRA ANALISTA DO MP MONTES CLAROS - COMARCA; MONTES CLAROS-PJ-06PJ 9.752,14 1.950,43 0,00 5.851,29 0,00 0,00 0,00 1.717,00 19.270,86 1.684,69 1.885,56 0,00 0,00 3.570,25 15.700,61 30/06/2021
938 702700 FABIO JUNIOR COSTA BARREIROS ASSESSOR BELO HORIZONTE - COMARCA; DIVISAO DE MANUTENCAO PREDIAL 0,00 0,00 3.076,28 699,10 0,00 0,00 0,00 2.486,39 6.261,77 449,69 224,40 0,00 0,00 674,09 5.587,68 30/06/2021
939 240101 FABIO JUNQUEIRA DE ASSIS FONSECA OFICIAL DO MP BELO HORIZONTE - COMARCA; BH-17PJ PATRIMONIO PUBLICO-SECRETARIA 8.170,49 1.634,10 0,00 4.902,30 0,00 0,00 0,00 1.717,00 16.423,89 1.381,01 1.447,12 0,00 0,00 2.828,13 13.595,76 30/06/2021
940 271500 FABIO LUIZ VIEIRA OFICIAL DO MP SANTA VITÓRIA - COMARCA; SANTA VITORIA-PJ-UNPJ 10.069,62 3.020,89 0,00 6.545,26 0,00 0,00 0,00 1.787,35 21.423,12 1.906,76 2.101,90 0,00 0,00 4.008,66 17.414,46 30/06/2021
941 213100 FABIO PRATES GONCALVES ASSESSOR BELO HORIZONTE - COMARCA; CENTRO CERIMONIAL 0,00 4.159,01 10.397,52 7.278,27 4.852,18 0,00 0,00 1.717,00 28.403,98 751,99 4.434,28 0,00 0,00 5.186,27 23.217,71 30/06/2021
942 436700 FABIO SANTIAGO DE CARVALHO OFICIAL DO MP POÇO FUNDO - COMARCA; POCO FUNDO-PJ-UNPJ 8.579,10 1.715,82 0,00 5.147,46 0,00 0,00 0,00 1.717,00 17.159,38 1.459,46 1.560,39 0,00 0,00 3.019,85 14.139,53 30/06/2021
943 208400 FABIOLA DE SOUSA CARDOSO ASSESSOR/ANALISTA BELO HORIZONTE - COMARCA; ASSESS TECNICA DA CORREGEDORIA-GERAL DO MP 18.820,14 7.528,06 2.520,26 14.434,23 0,00 0,00 0,00 1.717,00 45.019,69 4.027,99 5.961,77 0,00 0,00 9.989,76 35.029,93 30/06/2021
944 392200 FABIOLA LEROY COSTA ANALISTA DO MP ESMERALDAS - COMARCA; ESMERALDAS-PJ-01PJ 10.069,62 2.013,92 0,00 0,00 0,00 0,00 0,00 3.255,78 15.339,32 1.745,64 1.973,56 0,00 0,00 3.719,20 11.620,12 30/06/2021
945 409000 FABIOLA MONTEIRO DE CARVALHO CASTRO ANALISTA DO MP BOM SUCESSO - COMARCA; BOM SUCESSO-PJ-UNPJ 11.085,56 2.217,11 0,00 6.651,34 0,00 0,00 0,00 1.717,00 21.671,01 1.940,70 2.255,18 0,00 0,00 4.195,88 17.475,13 30/06/2021
946 525800 FABRICIA ALVES DANTAS OFICIAL DO MP MONTES CLAROS - COMARCA; MONTES CLAROS-PJ-01PJ 7.421,79 742,18 0,00 4.081,99 0,00 0,00 0,00 1.717,00 13.962,96 1.118,51 963,87 0,00 0,00 2.082,38 11.880,58 30/06/2021
947 263400 FABRICIA PINTO TEIXEIRA SANTIAGO OFICIAL DO MP BELO HORIZONTE - COMARCA; CAO-FUNDACOES-SECRETARIA 12.601,30 3.780,39 0,00 8.190,85 0,00 0,00 0,00 1.717,00 26.289,54 2.433,35 2.862,16 0,00 0,00 5.295,51 20.994,03 30/06/2021
948 420800 FABRICIO BERNARDES DE OLIVEIRA OFICIAL DO MP ITURAMA - COMARCA; ITURAMA-PJ-02PJ 8.579,10 1.715,82 0,00 5.147,46 0,00 0,00 0,00 1.717,00 17.159,38 1.459,46 1.508,25 0,00 0,00 2.967,71 14.191,67 30/06/2021
949 474000 FABRICIO DE FREITAS SALES ANALISTA DO MP MONTES CLAROS - COMARCA; COORD REG PATRI PUB ORD TRIB-NORTE MINAS 10.069,62 2.013,92 0,00 6.041,77 0,00 0,00 0,00 1.717,00 19.842,31 1.745,64 1.973,56 0,00 0,00 3.719,20 16.123,11 30/06/2021
950 510100 FABRICIO FURTADO ASSIS DO CARMO ANALISTA DO MP BELO HORIZONTE - COMARCA; SERVICO MEDICO-DEPTO PERIC MEDICA SAUDE OCUP 10.069,62 1.006,96 0,00 6.020,05 0,00 0,00 963,51 3.255,78 21.315,92 1.584,53 2.005,92 0,00 0,00 3.590,45 17.725,47 30/06/2021
951 519600 FABRICIO GONTIJO SALVATI ANALISTA DO MP JUIZ DE FORA - COMARCA; JUIZ DE FORA-CAO ESPECIALIZADO-SECRETARIA 10.069,62 1.006,96 0,00 3.875,54 0,00 0,00 487,37 7.033,76 22.473,25 1.584,53 1.740,95 0,00 0,00 3.325,48 19.147,77 30/06/2021
952 637400 FABRICIO HENRIQUE DA SILVA PASSOS ASSESSOR/ANALISTA BELO HORIZONTE - COMARCA; CENTRO PUBLICIDADE E DESIGN GRAFICO 0,00 1.039,75 10.397,52 4.083,57 0,00 0,00 0,00 1.717,00 17.237,84 1.371,36 1.898,77 0,00 0,00 3.270,13 13.967,71 30/06/2021
953 428200 FABRICIO ORZIL VIANA ANALISTA DO MP SANTA LUZIA - COMARCA; SANTA LUZIA-PJ-04PJ 10.069,62 2.013,92 0,00 4.182,17 0,00 0,00 0,00 1.717,00 17.982,71 1.745,64 1.973,56 0,00 0,00 3.719,20 14.263,51 30/06/2021
954 455600 FABRICIO PAIVA DA ROCHA ANALISTA DO MP SÃO JOÃO DEL REI - COMARCA; SAO JOAO DEL REI-PJ-06PJ 10.069,62 2.013,92 0,00 6.041,77 0,00 0,00 0,00 2.486,39 20.611,70 1.745,64 1.921,43 0,00 0,00 3.667,07 16.944,63 30/06/2021
955 511500 FABRICIO RENE CARDOSO DE PADUA ANALISTA DO MP SÃO SEBASTIÃO DO PARAÍSO - COMARCA; SAO SEBASTIAO DO PARAISO-PJ-03PJ 10.069,62 1.006,96 0,00 5.538,29 0,00 0,00 487,37 7.033,76 24.136,00 1.584,53 1.740,95 0,00 0,00 3.325,48 20.810,52 30/06/2021
956 496100 FABRICIO RESENDE GONCALVES OFICIAL DO MP ENTRE-RIOS DE MINAS - COMARCA; ENTRE RIOS DE MINAS-PJ-UNPJ 7.421,79 742,18 0,00 0,00 0,00 0,00 0,00 2.486,39 10.650,36 1.118,51 1.068,14 0,00 0,00 2.186,65 8.463,71 30/06/2021
957 650300 FABRICIO ROBERTO AZEVEDO OFICIAL DO MP NOVA SERRANA - COMARCA; NOVA SERRANA-PJ-04PJ 4.376,03 262,56 0,00 2.319,30 0,00 0,00 0,00 1.717,00 8.674,89 570,31 279,23 0,00 0,00 849,54 7.825,35 30/06/2021
958 514900 FADUA MARIA DRUMOND CHEQUER ANALISTA DO MP DIVINÓPOLIS - COMARCA; DIVINOPOLIS-PJ-12PJ 10.069,62 1.006,96 0,00 3.927,68 0,00 0,00 0,00 1.717,00 16.721,26 1.584,53 1.636,68 0,00 0,00 3.221,21 13.500,05 30/06/2021
959 282500 FANNY FERREIRA MELO OFICIAL DO MP ARAXÁ - COMARCA; ARAXA-PJ-03PJ 8.436,53 2.530,96 0,00 5.483,75 0,00 0,00 0,00 1.717,00 18.168,24 1.567,08 1.715,75 0,00 0,00 3.282,83 14.885,41 30/06/2021
960 692500 FARID JUNIOR NUNES DA SILVA ASSESSOR PROCURADOR JUSTICA BELO HORIZONTE - COMARCA; GABINETE DE PROCURADOR DE JUSTIÇA - SALA 902 0,00 0,00 7.187,72 3.593,86 0,00 0,00 0,00 1.717,00 12.498,58 751,99 1.125,64 0,00 0,00 1.877,63 10.620,95 30/06/2021
961 540100 FATIMA CRISTINA POVOA DA COSTA ASSESSOR/OFICIAL BELO HORIZONTE - COMARCA; BH-18PJ VIOLENCIA DOMESTICA-SECRETARIA 0,00 3.119,26 10.397,52 6.758,39 0,00 1.045,87 0,00 1.717,00 23.038,04 1.045,87 2.847,75 0,00 0,00 3.893,62 19.144,42 30/06/2021
962 382800 FATIMA DE OLIVEIRA COELHO E SILVA OFICIAL DO MP BELO HORIZONTE - COMARCA; DIRETORIA DE ADMINISTRACAO FINANCEIRA 7.187,72 2.156,32 0,00 4.672,02 0,00 0,00 0,00 1.717,00 15.733,06 1.307,32 1.288,60 0,00 0,00 2.595,92 13.137,14 30/06/2021
963 398601 FELIPE ANTONIO HORTA DE PAULA ANALISTA DO MP BELO HORIZONTE - COMARCA; PROC. JUSTICA DIR. DIFUSOS E COLETIVOS-SEC 9.146,93 914,69 0,00 5.030,81 0,00 0,00 442,71 6.546,58 22.081,72 1.422,14 1.506,50 0,00 0,00 2.928,64 19.153,08 30/06/2021
964 430900 FELIPE BOY VIEIRA ANALISTA DO MP BELO HORIZONTE - COMARCA; DIRETORIA DE SEGURANCA 12.204,02 2.440,80 0,00 7.322,41 0,00 0,00 0,00 1.717,00 23.684,23 2.155,45 2.565,22 0,00 0,00 4.720,67 18.963,56 30/06/2021
965 631700 FELIPE DE MORAIS SIMOES COELHO ANALISTA DO MP BELO HORIZONTE - COMARCA; BH-18PJ VIOLENCIA DOMESTICA-SECRETARIA 7.663,37 766,34 0,00 4.214,86 0,00 0,00 0,00 1.717,00 14.361,57 1.161,03 1.129,53 0,00 0,00 2.290,56 12.071,01 30/06/2021
966 549100 FELIPE FERNANDES ALVIM ANALISTA DO MP LAJINHA - COMARCA; LAJINHA-PJ-UNPJ 9.146,93 914,69 0,00 5.030,81 0,00 0,00 0,00 2.486,39 17.578,82 1.422,14 1.506,50 0,00 0,00 2.928,64 14.650,18 30/06/2021
967 693100 FELIPE FROIS DO AMARAL ASSESSOR PROMOTOR JUSTICA RIBEIRÃO DAS NEVES - COMARCA; RIBEIRAO NEVES-SEC PJ EXECUCAO PENAL 0,00 0,00 7.187,72 3.593,86 0,00 0,00 0,00 1.717,00 12.498,58 751,99 1.125,64 0,00 0,00 1.877,63 10.620,95 30/06/2021
968 620100 FELIPE GOMES DE AZEVEDO ASSESSOR/OFICIAL BELO HORIZONTE - COMARCA; DIVISAO DE SERVICOS 0,00 817,05 8.170,49 4.493,77 0,00 0,00 0,00 1.717,00 15.198,31 694,23 1.411,30 0,00 0,00 2.105,53 13.092,78 30/06/2021
969 601600 FELIPE RODRIGUES DE SIQUEIRA ANALISTA DO MP BELO HORIZONTE - COMARCA; BH-02PJ FAMILIA-SECRETARIA 9.146,93 914,69 0,00 5.030,81 0,00 0,00 0,00 1.717,00 16.809,43 1.422,14 1.143,50 0,00 0,00 2.565,64 14.243,79 30/06/2021
970 628900 FELIX FERNANDO JUNIO VIEIRA ANALISTA DO MP CAETÉ - COMARCA; CAETE-PJ-02PJ 8.436,53 843,65 0,00 3.354,60 0,00 0,00 0,00 1.717,00 14.351,78 1.297,11 1.273,85 0,00 0,00 2.570,96 11.780,82 30/06/2021
971 544500 FELLIPE LEMOS MARCONDES BUENO ANALISTA DO MP SÃO SEBASTIÃO DO PARAÍSO - COMARCA; SAO SEBASTIAO DO PARAISO-PJ-04PJ 9.146,93 914,69 0,00 5.030,81 0,00 0,00 0,00 1.717,00 16.809,43 1.422,14 1.506,50 0,00 0,00 2.928,64 13.880,79 30/06/2021
972 688500 FELLIPE TADEU DE ANDRADE RAMOS ASSESSOR PROCURADOR JUSTICA BELO HORIZONTE - COMARCA; GABINETE DE PROCURADOR DE JUSTIÇA - SALA 907 0,00 0,00 7.187,72 3.593,86 0,00 0,00 0,00 1.717,00 12.498,58 751,99 1.229,92 0,00 0,00 1.981,91 10.516,67 30/06/2021
973 612600 FERNANDA ADRIANA DE PAULA GUIDO ANALISTA DO MP PARACATU - COMARCA; PARACATU-PJ-02PJ 8.436,53 843,65 0,00 4.640,09 0,00 0,00 0,00 2.486,39 16.406,66 1.297,11 1.325,98 0,00 0,00 2.623,09 13.783,57 30/06/2021
974 508400 FERNANDA AGANETTI MATTOS DE OLIVEIRA ANALISTA DO MP BELO HORIZONTE - COMARCA; SUPERINTENDENCIA DE RECURSOS HUMANOS 10.069,62 1.006,96 0,00 5.538,29 0,00 0,00 0,00 2.588,98 19.203,85 1.584,53 1.740,95 0,00 0,00 3.325,48 15.878,37 30/06/2021
975 453600 FERNANDA ALBERNAZ RABELO ANALISTA DO MP BELO HORIZONTE - COMARCA; GABINETE DE PROCURADOR DE JUSTIÇA - SALA 616 10.069,62 2.013,92 0,00 6.041,77 0,00 0,00 0,00 1.717,00 19.842,31 1.745,64 1.973,56 0,00 0,00 3.719,20 16.123,11 30/06/2021
976 255600 FERNANDA ALINA DE ALMEIDA ANDRADE OFICIAL DO MP BELO HORIZONTE - COMARCA; DIRETORIA DE INTELIGENCIA 10.069,62 3.020,89 0,00 6.545,26 0,00 0,00 0,00 1.717,00 21.352,77 1.906,76 2.206,17 0,00 0,00 4.112,93 17.239,84 30/06/2021
977 443200 FERNANDA ALMEIDA LOPES ANALISTA DO MP CONTAGEM - COMARCA; CONTAGEM-PJ-23PJ 12.601,30 2.520,26 0,00 7.560,78 0,00 0,00 0,00 3.255,78 25.938,12 2.231,73 2.571,07 0,00 0,00 4.802,80 21.135,32 30/06/2021
978 281100 FERNANDA ANANIAS MEIRA ANALISTA DO MP BELO HORIZONTE - COMARCA; BH-23PJ INFRACIONAL-ASS JURIDICA 16.750,82 5.025,25 0,00 10.888,04 0,00 0,00 3.359,70 1.717,00 37.740,81 3.834,00 4.988,63 0,00 0,00 8.822,63 28.918,18 30/06/2021
979 539000 FERNANDA BARBOSA ALVES ANALISTA DO MP UBERABA - COMARCA; UBERABA-PJ-04PJ 9.146,93 914,69 0,00 5.030,81 0,00 0,00 0,00 2.486,39 17.578,82 1.422,14 1.506,50 0,00 0,00 2.928,64 14.650,18 30/06/2021
980 451200 FERNANDA BLOISE PRADO OFICIAL DO MP BELO HORIZONTE - COMARCA; DIVISAO DE MATERIAIS 8.170,49 1.634,10 0,00 4.902,30 0,00 0,00 0,00 1.717,00 16.423,89 1.381,01 1.447,12 0,00 0,00 2.828,13 13.595,76 30/06/2021
981 427900 FERNANDA BRAGA CARNEIRO BICALHO ANALISTA DO MP PEÇANHA - COMARCA; PECANHA-PJ-SECRETARIA 10.069,62 2.013,92 0,00 6.041,77 0,00 0,00 0,00 2.486,39 20.611,70 1.745,64 1.921,43 0,00 0,00 3.667,07 16.944,63 30/06/2021
982 507100 FERNANDA CABRINI VAZ MOTA ANALISTA DO MP BELO HORIZONTE - COMARCA; DIVISAO DE MATERIAIS 10.069,62 1.006,96 0,00 5.538,29 0,00 0,00 0,00 3.255,78 19.870,65 1.584,53 1.740,95 0,00 0,00 3.325,48 16.545,17 30/06/2021
983 259800 FERNANDA CALZAVARA DE SOUSA COORDENADOR/OFICIAL BELO HORIZONTE - COMARCA; DIRET DE FORMACAO, APERFEIC. E POS-GRADUACAO 12.601,30 3.780,39 2.687,03 9.534,36 0,00 0,00 0,00 2.486,39 31.089,47 2.433,35 3.653,23 0,00 0,00 6.086,58 25.002,89 30/06/2021
984 494400 FERNANDA CAMPOS BARATA OFICIAL DO MP JUIZ DE FORA - COMARCA; JUIZ DE FORA-PJ-08PJ 6.123,79 612,38 0,00 3.368,09 0,00 0,00 0,00 1.717,00 11.821,26 890,06 738,32 0,00 0,00 1.628,38 10.192,88 30/06/2021
985 555600 FERNANDA CAROLINE RIBEIRO ANALISTA DO MP BELO HORIZONTE - COMARCA; DIRETORIA GESTAO CONTRATOS CONVENIOS 9.146,93 914,69 0,00 5.030,81 0,00 0,00 0,00 1.717,00 16.809,43 1.422,14 1.506,50 0,00 0,00 2.928,64 13.880,79 30/06/2021
986 692000 FERNANDA CESAR SILVA ASSESSOR PROCURADOR JUSTICA BELO HORIZONTE - COMARCA; GABINETE DE PROCURADOR DE JUSTIÇA - SALA 809 0,00 0,00 7.187,72 2.767,62 0,00 0,00 0,00 1.717,00 11.672,34 751,99 1.229,92 0,00 0,00 1.981,91 9.690,43 30/06/2021
987 294500 FERNANDA COSTA FLORES OFICIAL DO MP PARÁ DE MINAS - COMARCA; PARA DE MINAS-PJ-04PJ 10.069,62 3.020,89 0,00 6.545,26 0,00 0,00 0,00 1.717,00 21.352,77 1.906,76 2.206,17 0,00 0,00 4.112,93 17.239,84 30/06/2021
988 344500 FERNANDA CRISTINA DE SOUZA PAZ ASSESSOR BELO HORIZONTE - COMARCA; CENTRAL DE APOIO TECN-SETOR DE MEIO AMBIENTE 0,00 0,00 5.136,32 2.568,16 0,00 0,00 0,00 1.717,00 9.421,48 738,09 565,33 0,00 0,00 1.303,42 8.118,06 30/06/2021
989 538100 FERNANDA CRISTINA DOS SANTOS ROSA OFICIAL DO MP RIBEIRÃO DAS NEVES - COMARCA; RIBEIRAO DAS NEVES-PJ-09PJ 5.930,75 1.779,23 0,00 0,00 0,00 0,00 0,00 1.717,00 9.426,98 1.045,87 963,27 0,00 0,00 2.009,14 7.417,84 30/06/2021
990 337800 FERNANDA CRISTINA ROLAND CLIMACO MENDES COORDENADOR/OFICIAL BELO HORIZONTE - COMARCA; DIRETORIA DE PAGAMENTO DE PESSOAL-DPAG 0,00 4.030,55 13.435,16 8.732,86 0,00 0,00 0,00 1.717,00 27.915,57 2.118,07 3.351,24 0,00 0,00 5.469,31 22.446,26 30/06/2021
991 545400 FERNANDA CUNHA GUIMARAES ANALISTA DO MP BELO HORIZONTE - COMARCA; COORD EST DEF DIR FAM PESSOAS DEFICI IDOSOS 9.146,93 914,69 0,00 3.566,49 0,00 0,00 0,00 1.717,00 15.345,11 1.422,14 1.506,50 0,00 0,00 2.928,64 12.416,47 30/06/2021
992 429801 FERNANDA CUNHA PINHEIRO DA SILVA ANALISTA DO MP BELO HORIZONTE - COMARCA; ASSESSORIA DE COMUNICACAO INTEGRADA 10.069,62 1.006,96 0,00 3.927,68 0,00 0,00 0,00 1.717,00 16.721,26 1.584,53 1.636,68 0,00 0,00 3.221,21 13.500,05 30/06/2021
993 408000 FERNANDA DAS NEVES RAMOS ANALISTA DO MP BELO HORIZONTE - COMARCA; FEPDC-SECRETARIA EXECUTIVA 13.011,52 2.602,30 0,00 7.806,91 0,00 0,00 0,00 2.486,39 25.907,12 2.310,49 2.789,06 0,00 0,00 5.099,55 20.807,57 30/06/2021
994 496000 FERNANDA DE ALMEIDA VIANA ANALISTA DO MP BELO HORIZONTE - COMARCA; PROC JUST ATUACAO TRIBUNAIS SUPERIORES-GAB002 10.069,62 1.006,96 0,00 5.538,29 0,00 0,00 0,00 2.486,39 19.101,26 1.584,53 1.688,82 0,00 0,00 3.273,35 15.827,91 30/06/2021
995 266700 FERNANDA DE CASTRO LUCAS COORDENADOR/OFICIAL BELO HORIZONTE - COMARCA; DIRET DE DESENV DE RECURSOS HUMANOS-DDRH 12.601,30 3.780,39 2.687,03 9.534,36 0,00 0,00 0,00 2.486,39 31.089,47 2.433,35 3.653,23 0,00 0,00 6.086,58 25.002,89 30/06/2021
996 433200 FERNANDA DE FIGUEIREDO NORTE ANALISTA DO MP BELO HORIZONTE - COMARCA; ASSESS JUR DO CONS SUPERIOR DO MINISTERIO PUB 13.011,52 2.602,30 0,00 7.806,91 0,00 0,00 0,00 1.717,00 25.137,73 2.310,49 2.684,78 0,00 0,00 4.995,27 20.142,46 30/06/2021
997 419200 FERNANDA DE MIRANDA MARTINS SIMOES ANALISTA DO MP UBERLÂNDIA - COMARCA; UBERLANDIA-PJ-17PJ 13.011,52 2.602,30 0,00 7.806,91 0,00 0,00 0,00 2.486,39 25.907,12 2.310,49 2.789,06 0,00 0,00 5.099,55 20.807,57 30/06/2021
998 441400 FERNANDA DE MORAIS PINTO ANALISTA DO MP BELO HORIZONTE - COMARCA; PROC. JUSTICA DIR. DIFUSOS E COLETIVOS-SEC 12.601,30 2.520,26 0,00 7.560,78 0,00 0,00 0,00 1.717,00 24.399,34 2.231,73 2.675,34 0,00 0,00 4.907,07 19.492,27 30/06/2021
999 432200 FERNANDA DE MOURA GUIMARAES ANALISTA DO MP BELO HORIZONTE - COMARCA; BH-25PJ DEFESA DA EDUCACAO-SECRETARIA 12.601,30 2.520,26 0,00 7.560,78 0,00 0,00 0,00 1.717,00 24.399,34 2.231,73 2.675,34 0,00 0,00 4.907,07 19.492,27 30/06/2021
1000 461800 FERNANDA DE OLIVEIRA SANTOS ANALISTA DO MP JUIZ DE FORA - COMARCA; JUIZ DE FORA-PJ-21PJ 10.069,62 2.013,92 0,00 6.041,77 0,00 0,00 0,00 2.486,39 20.611,70 1.745,64 1.973,56 0,00 0,00 3.719,20 16.892,50 30/06/2021
1001 432500 FERNANDA DE PAULA PINTO ANALISTA DO MP BELO HORIZONTE - COMARCA; PROC JUST RECURSOS ESP E EXTRAORD CRIMINAIS 12.601,30 2.520,26 0,00 7.560,78 0,00 0,00 0,00 1.717,00 24.399,34 2.231,73 2.675,34 0,00 0,00 4.907,07 19.492,27 30/06/2021
1002 431600 FERNANDA DIAS BARBOSA PEREIRA ANALISTA DO MP BELO HORIZONTE - COMARCA; SUPERINTENDENCIA DE RECURSOS HUMANOS 12.601,30 2.520,26 0,00 5.159,37 0,00 0,00 0,00 2.486,39 22.767,32 2.231,73 2.571,07 0,00 0,00 4.802,80 17.964,52 30/06/2021
1003 162200 FERNANDA FERNANDES MONTEIRO ASSESSOR BELO HORIZONTE - COMARCA; BH-12PJ JUIZO CRIMINAL-SECRETARIA 0,00 2.054,53 5.136,32 3.595,43 0,00 0,00 0,00 1.717,00 12.503,28 751,99 1.178,64 0,00 0,00 1.930,63 10.572,65 30/06/2021
1004 512800 FERNANDA FERREIRA BARBOSA MOREIRA ANALISTA DO MP IPATINGA - COMARCA; IPATINGA-PJ-05PJ 10.069,62 1.006,96 0,00 5.538,29 0,00 0,00 0,00 2.486,39 19.101,26 1.584,53 1.740,95 0,00 0,00 3.325,48 15.775,78 30/06/2021
1005 329200 FERNANDA GABRIEL GUZELLA OFICIAL DO MP BELO HORIZONTE - COMARCA; DIRET DE PLANOS PROJETOS E PROGRAMAS INST 9.752,14 2.925,64 0,00 6.338,89 0,00 0,00 0,00 1.717,00 20.733,67 1.840,72 2.110,83 0,00 0,00 3.951,55 16.782,12 30/06/2021
1006 324200 FERNANDA GEORGIA NEVES ZAHAN OFICIAL DO MP IPANEMA - COMARCA; IPANEMA-PJ-SECRETARIA 8.436,53 5.905,57 0,00 7.171,05 0,00 0,00 0,00 1.717,00 23.230,15 2.107,01 2.495,29 0,00 0,00 4.602,30 18.627,85 30/06/2021
1007 548200 FERNANDA GONCALVES DE CARVALHO ZUZA OFICIAL DO MP TUPACIGUARA - COMARCA; TUPACIGUARA-PJ-UNPJ 5.930,75 593,08 0,00 3.261,92 0,00 0,00 0,00 1.717,00 11.502,75 856,09 689,27 0,00 0,00 1.545,36 9.957,39 30/06/2021
1008 355400 FERNANDA HELENA BASQUES OFICIAL DO MP SABARÁ - COMARCA; SABARA-PJ-01PJ 9.146,93 1.829,39 0,00 5.488,16 0,00 0,00 0,00 1.717,00 18.181,48 1.568,49 1.717,79 0,00 0,00 3.286,28 14.895,20 30/06/2021
1009 454800 FERNANDA IATAROLA BARBOSA DIAS ANALISTA DO MP BARBACENA - COMARCA; BARBACENA-PJ-05PJ 10.736,08 2.147,22 0,00 6.441,65 0,00 0,00 0,00 1.717,00 21.041,95 1.873,61 2.106,17 0,00 0,00 3.979,78 17.062,17 30/06/2021
1010 515500 FERNANDA LILIANE MARUGEIRO ANALISTA DO MP LAGOA SANTA - COMARCA; LAGOA SANTA-PJ-01PJ 10.069,62 1.006,96 0,00 5.538,29 0,00 0,00 0,00 2.486,39 19.101,26 1.584,53 1.688,82 0,00 0,00 3.273,35 15.827,91 30/06/2021
1011 392900 FERNANDA MAGALHAES SILVA ANALISTA DO MP BELO HORIZONTE - COMARCA; CENTRO JORNALISMO 14.324,23 2.864,85 0,00 8.594,54 0,00 0,00 0,00 1.717,00 27.500,62 2.562,53 3.152,94 0,00 0,00 5.715,47 21.785,15 30/06/2021
1012 409200 FERNANDA MAIA SANTIAGO CARDOSO ANALISTA DO MP PIRAPORA - COMARCA; PIRAPORA-PJ-02PJ 10.069,62 2.013,92 0,00 6.041,77 0,00 0,00 0,00 2.486,39 20.611,70 1.745,64 1.973,56 0,00 0,00 3.719,20 16.892,50 30/06/2021
1013 556500 FERNANDA OTERO COSTA ANALISTA DO MP BELO HORIZONTE - COMARCA; ASSESS TECNICO-JUR JUNTO AS PROC. DE JUST 10.069,62 1.006,96 0,00 5.538,29 0,00 0,00 1.339,51 1.717,00 19.671,38 1.584,53 2.109,32 0,00 0,00 3.693,85 15.977,53 30/06/2021
1014 615300 FERNANDA PATRICIA RIBEIRO MOTA OFICIAL DO MP UBERABA - COMARCA; UBERABA-PJ-05PJ 4.974,42 497,44 0,00 2.735,93 0,00 0,00 0,00 1.717,00 9.924,79 694,23 444,49 0,00 0,00 1.138,72 8.786,07 30/06/2021
1015 619800 FERNANDA PINTO PEREIRA ANALISTA DO MP UBERLÂNDIA - COMARCA; UBERLANDIA-PJ-20PJ 8.436,53 843,65 0,00 4.640,09 0,00 0,00 0,00 3.255,78 17.176,05 1.297,11 1.273,85 0,00 0,00 2.570,96 14.605,09 30/06/2021
1016 412900 FERNANDA PORTELA ROSA ANALISTA DO MP BELO HORIZONTE - COMARCA; BH-08PJ JUIZADO ESPECIAL-SECRETARIA 13.011,52 2.602,30 0,00 5.257,13 0,00 0,00 802,98 2.486,39 24.160,32 2.438,97 2.974,54 0,00 0,00 5.413,51 18.746,81 30/06/2021
1017 274301 FERNANDA QUEIROZ PARREIRA ANALISTA DO MP PATOS DE MINAS - COMARCA; GAECO REGIONAL DE PATOS DE MINAS 10.069,62 1.006,96 0,00 5.538,29 0,00 0,00 0,00 1.717,00 18.331,87 1.584,53 1.740,95 0,00 0,00 3.325,48 15.006,39 30/06/2021
1018 467900 FERNANDA QUEIROZ SIMOES GANNAM ANALISTA DO MP SÃO LOURENÇO - COMARCA; SAO LOURENCO-PJ-02PJ 10.069,62 2.013,92 0,00 6.041,77 0,00 0,00 0,00 1.717,00 19.842,31 1.745,64 1.921,43 0,00 0,00 3.667,07 16.175,24 30/06/2021
1019 255500 FERNANDA SIMOES LOPES MENDES ANALISTA DO MP BELO HORIZONTE - COMARCA; BH-17PJ PATRIMONIO PUBLICO-SECRETARIA 18.103,37 5.431,01 0,00 11.767,19 0,00 0,00 0,00 1.717,00 37.018,57 3.577,78 4.514,43 0,00 0,00 8.092,21 28.926,36 30/06/2021
1020 481700 FERNANDA VIANA FROES DA SILVA OFICIAL DO MP GOVERNADOR VALADARES - COMARCA; GOVERNADOR VALADARES-PJ-09PJ 7.663,37 1.532,67 0,00 4.598,02 0,00 0,00 0,00 1.717,00 15.511,06 1.283,64 1.306,55 0,00 0,00 2.590,19 12.920,87 30/06/2021
1021 123900 FERNANDO ANTONIO FARIA DE ABREU ANALISTA DO MP BELO HORIZONTE - COMARCA; SUPERINTENDÊNCIA DE ENGENHARIA E ARQUITETURA 26.471,31 23.824,17 0,00 17.731,11 0,00 5.486,23 520,12 7.390,96 81.423,90 5.486,23 8.882,75 14.833,26 0,00 29.202,24 52.221,66 30/06/2021
1022 416900 FERNANDO APARECIDO DA SILVA ANALISTA DO MP BOM DESPACHO - COMARCA; BOM DESPACHO-PJ-02PJ 12.601,30 8.820,91 0,00 10.711,11 0,00 0,00 0,00 1.717,00 33.850,32 3.239,83 4.026,52 0,00 0,00 7.266,35 26.583,97 30/06/2021
1023 500100 FERNANDO CEZAR PINTO OFICIAL DO MP SANTA LUZIA - COMARCA; SANTA LUZIA-PJ-04PJ 7.663,37 766,34 0,00 4.214,86 0,00 0,00 0,00 1.717,00 14.361,57 1.161,03 1.077,39 0,00 0,00 2.238,42 12.123,15 30/06/2021
1024 346100 FERNANDO EUSTAQUIO CAMPOS UTSCH MOREIRA ANALISTA DO MP BELO HORIZONTE - COMARCA; DIRETORIA DE SISTEMAS DE INFORMACAO 15.272,02 4.581,61 0,00 9.926,82 0,00 0,00 0,00 1.717,00 31.497,45 2.988,86 3.664,18 0,00 0,00 6.653,04 24.844,41 30/06/2021
1025 103500 FERNANDO LUIZ DA SILVA JUNIOR OFICIAL DO MP BELO HORIZONTE - COMARCA; DIVISAO DE ATENDIMENTO E CONSULTA JURIDICA 18.820,14 9.410,07 0,00 14.115,11 0,00 0,00 0,00 1.717,00 44.062,32 4.329,11 5.703,44 0,00 0,00 10.032,55 34.029,77 30/06/2021
1026 287300 FERNANDO MARCIO ALVES MARTINS OFICIAL DO MP LEOPOLDINA - COMARCA; LEOPOLDINA-PJ-01PJ 8.579,10 2.573,73 0,00 5.576,42 0,00 0,00 0,00 1.717,00 18.446,25 1.596,73 1.654,29 0,00 0,00 3.251,02 15.195,23 30/06/2021
1027 472900 FERNANDO RODRIGUES DE FREITAS ANALISTA DO MP BELO HORIZONTE - COMARCA; BH-15PJ M AMB PAT HIST CULT-ASS TECNICA 10.069,62 2.013,92 0,00 6.041,77 0,00 0,00 0,00 1.717,00 19.842,31 1.745,64 1.973,56 0,00 0,00 3.719,20 16.123,11 30/06/2021
1028 421400 FERNANDO TEODORO MACIEL ANALISTA DO MP SANTA VITÓRIA - COMARCA; SANTA VITORIA-PJ-UNPJ 11.085,56 2.217,11 0,00 6.651,34 0,00 0,00 0,00 2.486,39 22.440,40 1.940,70 2.150,91 0,00 0,00 4.091,61 18.348,79 30/06/2021
1029 446300 FERNANDO VITOR DE OLIVEIRA ANALISTA DO MP MONTES CLAROS - COMARCA; COORD REG BACIA RIOS VERDE GRANDE E PARDO 12.601,30 2.520,26 0,00 7.560,78 0,00 0,00 0,00 1.717,00 24.399,34 2.231,73 2.675,34 0,00 0,00 4.907,07 19.492,27 30/06/2021
1030 639300 FILIPE ALMEIDA RODRIGUES ANALISTA DO MP IPATINGA - COMARCA; COORD REG SAUDE MACRORREGIAO SANIT VALE ACO 8.170,49 817,05 0,00 4.493,77 0,00 0,00 0,00 1.717,00 15.198,31 1.250,28 1.258,39 0,00 0,00 2.508,67 12.689,64 30/06/2021
1031 692600 FILIPPE WAGNER MAGALHAES ALAMY REIS ASSESSOR PROCURADOR JUSTICA BELO HORIZONTE - COMARCA; GABINETE DE PROCURADOR DE JUSTIÇA - SALA 604 0,00 0,00 7.187,72 3.593,86 0,00 0,00 0,00 1.717,00 12.498,58 751,99 1.229,92 0,00 0,00 1.981,91 10.516,67 30/06/2021
1032 398400 FLAVIA ALVARES GUIMARAES COORDENADOR/OFICIAL BELO HORIZONTE - COMARCA; CGMP-DIVIS DE APOIO FISC ORIENTACAO FUNCIONAL 0,00 2.363,83 11.819,15 7.091,49 0,00 0,00 0,00 1.717,00 22.991,47 1.459,46 2.577,47 0,00 0,00 4.036,93 18.954,54 30/06/2021
1033 398200 FLAVIA ALVES DE ASSUNCAO RODRIGUES ANALISTA DO MP DIVINÓPOLIS - COMARCA; COORD REG DO MA DA BACIA DO ALTO SAO FRANC 12.601,30 2.520,26 0,00 0,00 0,00 0,00 0,00 2.486,39 17.607,95 2.231,73 2.623,21 0,00 0,00 4.854,94 12.753,01 30/06/2021
1034 318500 FLAVIA BEATRIZ NUNES CRUZ VIEIRA ANALISTA DO MP BARBACENA - COMARCA; BARBACENA-PJ-SECRETARIA 16.750,82 5.025,25 0,00 7.185,68 0,00 0,00 0,00 1.717,00 30.678,75 3.296,45 4.108,26 0,00 0,00 7.404,71 23.274,04 30/06/2021
1035 496500 FLAVIA CARAM BORLIDO ANALISTA DO MP BELO HORIZONTE - COMARCA; DIRETORIA GESTAO CONTRATOS CONVENIOS 12.204,02 1.220,40 0,00 4.590,46 0,00 0,00 0,00 1.717,00 19.731,88 1.960,18 2.283,31 0,00 0,00 4.243,49 15.488,39 30/06/2021
1036 534800 FLAVIA CONDE SOARES ANALISTA DO MP BELO HORIZONTE - COMARCA; BH-13PJ JUÍZO DE TÓXICOS-ASSESSORIA JURIDICA 9.146,93 914,69 0,00 5.030,81 0,00 0,00 0,00 1.717,00 16.809,43 1.422,14 1.506,50 0,00 0,00 2.928,64 13.880,79 30/06/2021
1037 219500 FLAVIA CRISTINA ANCELMO OFICIAL DO MP BELO HORIZONTE - COMARCA; CAO-DH CONT EXT ATIV POLIC E AP COMUNIT 10.069,62 3.020,89 0,00 6.545,26 0,00 0,00 0,00 1.717,00 21.352,77 1.906,76 2.206,17 0,00 0,00 4.112,93 17.239,84 30/06/2021
1038 329600 FLAVIA CRISTINA DE MATOS XAVIER ANALISTA DO MP UBERABA - COMARCA; UBERABA-PJ-15PJ 16.750,82 5.025,25 0,00 10.888,04 0,00 0,00 0,00 1.717,00 34.381,11 3.296,45 4.108,26 0,00 0,00 7.404,71 26.976,40 30/06/2021
1039 207600 FLAVIA DE ANDRADE MANCINI ANALISTA DO MP BELO HORIZONTE - COMARCA; ASSESSORIA JURIDICO-ADMINISTRATIVA 18.820,14 7.528,06 0,00 13.174,10 0,00 0,00 0,00 1.717,00 41.239,30 4.027,99 5.112,29 0,00 0,00 9.140,28 32.099,02 30/06/2021
1040 402801 FLAVIA MARIA DE RESENDE NASCIMENTO ANALISTA DO MP SÃO JOÃO DEL REI - COMARCA; SAO JOAO DEL REI-PJ-04PJ 10.069,62 1.006,96 0,00 5.538,29 0,00 0,00 0,00 2.486,39 19.101,26 1.584,53 1.740,95 0,00 0,00 3.325,48 15.775,78 30/06/2021
1041 437500 FLAVIA MARIA TORRES MARCHETTI ANALISTA DO MP BELO HORIZONTE - COMARCA; BH-18PJ VIOLENCIA DOMESTICA-SECRETARIA 11.085,56 2.217,11 0,00 6.651,34 0,00 0,00 0,00 1.717,00 21.671,01 1.940,70 2.150,91 0,00 0,00 4.091,61